[[{"header":{"parameterUnit":"m.s-1","parameterCategory":1,"la1":31.0,"la2":29.5877,"lo1":-88.7671,"lo2":-86.6584,"dy":0.0162,"dx":0.0185,"nx":115,"ny":88,"refTime":"2026-05-14T12:00:00:Z","depth":0,"parameterNumber":2,"parameterNumberName":"U-component_of_WINDS"},"data":[0.0,0.0,0.0,0.0,0.0,0.0,0.0,0.0,0.0,0.0,0.0,0.0,0.0,0.0,0.0,0.0,0.0,0.0,0.0,0.0,0.0,0.0,0.0,0.0,0.0,0.0,0.0,0.0,0.0,0.0,0.0,0.0,0.0,0.0,0.0,0.0,0.0,0.0,0.0,0.0,0.0,0.0,0.0,0.0,0.0,0.0,0.0,0.0,0.0,0.0,0.0,0.0,0.0,0.0,0.0,0.0,0.0,0.0,0.0,0.0,0.0,0.0,0.0,0.0,0.0,0.0,0.0,0.0,0.0,0.0,0.0,0.0,0.0,0.0,0.0,0.0,0.0,0.0,0.0,0.0,0.0,0.0,0.0,0.0,0.0,0.0,0.0,0.0,0.0,0.0,0.0,0.0,0.0,0.0,0.0,0.0,0.0,0.0,0.0,0.0,0.0,0.0,0.0,0.0,0.0,0.0,0.0,0.0,0.0,0.0,0.0,0.0,0.0,0.0,0.0,0.0,0.0,0.0,0.0,0.0,0.0,0.0,0.0,0.0,0.0,0.0,0.0,0.0,0.0,0.0,0.0,0.0,0.0,0.0,0.0,0.0,0.0,0.0,0.0,0.0,0.0,0.0,0.0,0.0,0.0,0.0,0.0,0.0,0.0,0.0,0.0,0.0,0.0,0.0,0.0,0.0,0.0,0.0,0.0,0.0,0.0,0.0,0.0,0.0,0.0,0.0,0.0,0.0,0.0,0.0,0.0,0.0,0.0,0.0,0.0,0.0,0.0,0.0,0.0,0.0,0.0,0.0,0.0,0.0,0.0,0.0,0.0,0.0,0.0,0.0,0.0,0.0,0.0,0.0,0.0,0.0,0.0,0.0,0.0,0.0,0.0,0.0,0.0,0.0,0.0,0.0,0.0,0.0,0.0,0.0,0.0,0.0,0.0,0.0,0.0,0.0,0.0,0.0,0.0,0.0,0.0,0.0,0.0,0.0,0.0,0.0,0.0,0.0,0.0,0.0,0.0,0.0,0.0,0.0,0.0,0.0,0.0,0.0,0.0,0.0,0.0,0.0,0.0,0.0,0.0,0.0,0.0,0.0,0.0,0.0,0.0,0.0,0.0,0.0,0.0,0.0,0.0,0.0,0.0,0.0,0.0,0.0,0.0,0.0,0.0,0.0,0.0,0.0,0.0,0.0,0.0,0.0,0.0,0.0,0.0,0.0,0.0,0.0,0.0,0.0,0.0,0.0,0.0,0.0,0.0,0.0,0.0,0.0,0.0,0.0,0.0,0.0,0.0,0.0,0.0,0.0,0.0,0.0,0.0,0.0,0.0,0.0,0.0,0.0,0.0,0.0,0.0,0.0,0.0,0.0,0.0,0.0,0.0,0.0,0.0,0.0,0.0,0.0,0.0,0.0,0.0,0.0,0.0,0.0,0.0,0.0,0.0,0.0,0.0,0.0,0.0,0.0,0.0,0.0,0.0,0.0,0.0,0.0,0.0,0.0,0.0,0.0,0.0,0.0,0.0,0.0,0.0,0.0,0.0,0.0,0.0,0.0,0.0,0.0,0.0,0.0,0.0,0.0,0.0,0.0,0.0,0.0,0.0,0.0,0.0,0.0,0.0,0.0,0.0,0.0,0.0,0.0,0.0,0.0,0.0,0.0,0.0,0.0,0.0,0.0,0.0,0.0,0.0,0.0,0.0,0.0,0.0,0.0,0.0,0.0,0.0,0.0,0.0,0.0,0.0,0.0,0.0,0.0,0.0,0.0,0.0,0.0,0.0,0.0,0.0,0.0,0.0,0.0,0.0,0.0,0.0,0.0,0.0,0.0,0.0,0.0,0.0,0.0,0.0,0.0,0.0,0.0,0.0,0.0,0.0,0.0,0.0,0.0,0.0,0.0,0.0,0.0,0.0,0.0,0.0,0.0,0.0,0.0,0.0,0.0,0.0,0.0,0.0,0.0,0.0,0.0,0.0,0.0,0.0,0.0,0.0,0.0,0.0,0.0,0.0,0.0,0.0,0.0,0.0,0.0,0.0,0.0,0.0,0.0,0.0,0.0,0.0,0.0,0.0,0.0,0.0,0.0,0.0,0.0,0.0,0.0,0.0,0.0,0.0,0.0,0.0,0.0,0.0,0.0,0.0,0.0,0.0,0.0,0.0,0.0,0.0,0.0,0.0,0.0,0.0,0.0,0.0,0.0,0.0,0.0,0.0,0.0,0.0,0.0,0.0,0.0,0.0,0.0,0.0,0.0,0.0,0.0,0.0,0.0,0.0,0.0,0.0,0.0,0.0,0.0,0.0,0.0,0.0,0.0,0.0,0.0,0.0,0.0,0.0,0.0,0.0,0.0,0.0,0.0,0.0,0.0,0.0,0.0,0.0,0.0,0.0,0.0,0.0,0.0,0.0,0.0,0.0,0.0,0.0,0.0,0.0,0.0,0.0,0.0,0.0,0.0,0.0,0.0,0.0,0.0,0.0,0.0,0.0,0.0,0.0,0.0,0.0,0.0,0.0,0.0,0.0,0.0,0.0,0.0,0.0,0.0,0.0,0.0,0.0,0.0,0.0,0.0,0.0,0.0,0.0,0.0,0.0,0.0,0.0,0.0,0.0,0.0,0.0,0.0,0.0,0.0,0.0,0.0,0.0,0.0,0.0,0.0,0.0,0.0,0.0,0.0,0.0,0.0,0.0,0.0,0.0,0.0,0.0,0.0,0.0,0.0,0.0,0.0,0.0,0.0,0.0,0.0,0.0,0.0,0.0,0.0,0.0,0.0,0.0,0.0,0.0,0.0,0.0,0.0,0.0,0.0,0.0,0.0,0.0,0.0,0.0,0.0,0.0,0.0,0.0,0.0,0.0,0.0,0.0,0.0,0.0,0.0,0.0,0.0,0.0,0.0,0.0,0.0,0.0,0.0,0.0,0.0,0.0,0.0,0.0,0.0,0.0,0.0,0.0,0.0,0.0,0.0,0.0,0.0,0.0,0.0,0.0,0.0,0.0,0.0,0.0,0.0,0.0,0.0,0.0,0.0,0.0,0.0,0.0,0.0,0.0,0.0,0.0,0.0,0.0,0.0,0.0,0.0,0.0,0.0,0.0,0.0,0.0,0.0,0.0,0.0,0.0,0.0,0.0,0.0,0.0,0.0,0.0,0.0,0.0,0.0,0.0,0.0,0.0,0.0,0.0,0.0,0.0,0.0,0.0,0.0,0.0,0.0,0.0,0.0,0.0,0.0,0.0,0.0,0.0,0.0,0.0,0.0,0.0,0.0,0.0,0.0,0.0,0.0,0.0,0.0,0.0,0.0,0.0,0.0,0.0,0.0,0.0,0.0,0.0,0.0,0.0,0.0,0.0,0.0,0.0,0.0,0.0,0.0,0.0,0.0,0.0,0.0,0.0,0.0,0.0,0.0,0.0,0.0,0.0,0.0,0.0,0.0,0.0,0.0,0.0,0.0,0.0,0.0,0.0,0.0,0.0,0.0,0.0,0.0,0.0,0.0,0.0,0.0,0.0,0.0,0.0,0.0,0.0,0.0,0.0,0.0,0.0,0.0,0.0,0.0,0.0,0.0,0.0,0.0,0.0,0.0,0.0,0.0,0.0,0.0,0.0,0.0,0.0,0.0,0.0,0.0,0.0,0.0,0.0,0.0,0.0,0.0,0.0,0.0,0.0,0.0,0.0,0.0,0.0,0.0,0.0,0.0,0.0,0.0,0.0,0.0,0.0,0.0,0.0,0.0,0.0,0.0,0.0,0.0,0.0,0.0,0.0,0.0,0.0,0.0,0.0,0.0,0.0,0.0,0.0,0.0,0.0,0.0,0.0,0.0,0.0,0.0,0.0,0.0,0.0,0.0,0.0,0.0,0.0,0.0,0.0,0.0,0.0,0.0,0.0,0.0,0.0,0.0,0.0,0.0,0.0,0.0,0.0,0.0,0.0,0.0,0.0,0.0,0.0,0.0,0.0,0.0,0.0,0.0,0.0,0.0,0.0,0.0,0.0,0.0,0.0,0.0,0.0,0.0,0.0,0.0,0.0,0.0,0.0,0.0,0.0,0.0,0.0,0.0,0.0,0.0,0.0,0.0,0.0,0.0,0.0,0.0,0.0,0.0,0.0,0.0,0.0,0.0,0.0,0.0,0.0,0.0,0.0,0.0,0.0,0.0,0.0,0.0,0.0,0.0,0.0,0.0,0.0,0.0,0.0,0.0,0.0,0.0,0.0,0.0,0.0,0.0,0.0,0.0,0.0,0.0,0.0,0.0,0.0,0.0,-0.8395,0.0,0.0,0.0,0.0,0.0,0.0,0.0,0.0,0.0,0.0,0.0,0.0,0.0,0.0,0.0,0.0,0.0,0.0,0.0,0.0,0.0,0.0,0.0,0.0,0.0,0.0,0.0,0.0,0.0,0.0,0.0,0.0,0.0,0.0,0.0,0.0,0.0,0.0,0.0,0.0,0.0,0.0,0.0,0.0,0.0,0.0,0.0,0.0,0.0,0.0,0.0,0.0,0.0,0.0,0.0,0.0,0.0,0.0,0.0,0.0,0.0,0.0,0.0,0.0,0.0,0.0,0.0,0.0,0.0,0.0,0.0,0.0,0.0,0.0,0.0,0.0,0.0,0.0,0.0,0.0,0.0,0.0,0.0,0.0,0.0,0.0,0.0,0.0,0.0,0.0,0.0,0.0,0.0,0.0,0.0,0.0,0.0,0.0,0.0,0.0,0.0,0.0,0.0,0.0,0.0,0.0,0.0,0.0,0.0,0.0,-0.9121,-0.9932,-0.9385,-0.9062,-0.9062,0.0,0.0,0.0,0.0,0.0,0.0,0.0,0.0,0.0,0.0,0.0,0.0,0.0,0.0,0.0,0.0,0.0,0.0,0.0,0.0,0.0,0.0,0.0,0.0,0.0,0.0,0.0,0.0,0.0,0.0,0.0,0.0,0.0,0.0,0.0,0.0,0.0,0.0,0.0,0.0,0.0,0.0,0.0,0.0,0.0,0.0,0.0,0.0,0.0,0.0,0.0,0.0,0.0,0.0,0.0,0.0,0.0,0.0,0.0,0.0,0.0,0.0,0.0,0.0,0.0,0.0,0.0,0.0,0.0,0.0,0.0,0.0,0.0,0.0,0.0,0.0,0.0,0.0,0.0,0.0,0.0,0.0,0.0,0.0,0.0,0.0,0.0,0.0,0.0,0.0,0.0,0.0,0.0,0.0,0.0,0.0,0.0,0.0,0.0,0.0,0.0,0.0,0.0,0.0,0.0,0.0,0.0,0.0,0.0,0.0,0.0,0.0,-0.9805,-0.9572,-0.9474,0.0,0.0,0.0,0.0,0.0,0.0,0.0,0.0,0.0,0.0,0.0,0.0,0.0,0.0,0.0,0.0,0.0,0.0,0.0,0.0,0.0,0.0,0.0,0.0,0.0,0.0,0.0,0.0,0.0,0.0,0.0,0.0,0.0,0.0,0.0,0.0,0.0,0.0,0.0,0.0,0.0,0.0,0.0,0.0,0.0,0.0,0.0,0.0,0.0,0.0,0.0,0.0,0.0,0.0,0.0,0.0,0.0,0.0,0.0,0.0,0.0,0.0,0.0,0.0,0.0,0.0,0.0,0.0,0.0,0.0,0.0,0.0,0.0,0.0,0.0,0.0,0.0,0.0,0.0,0.0,0.0,0.0,0.0,0.0,0.0,0.0,0.0,0.0,0.0,0.0,0.0,0.0,0.0,0.0,0.0,0.0,0.0,0.0,0.0,0.0,0.0,0.0,0.0,0.0,0.0,0.0,0.0,0.0,0.0,0.0,-0.9201,-0.9659,-0.9622,0.0,-0.9055,0.0,0.0,0.0,0.0,0.0,0.0,0.0,0.0,0.0,0.0,0.0,0.0,0.0,0.0,0.0,0.0,0.0,0.0,0.0,0.0,0.0,0.0,0.0,0.0,0.0,0.0,0.0,0.0,0.0,0.0,0.0,0.0,0.0,0.0,0.0,0.0,0.0,0.0,0.0,0.0,0.0,0.0,0.0,0.0,0.0,0.0,0.0,0.0,0.0,0.0,0.0,0.0,0.0,0.0,0.0,0.0,0.0,0.0,0.0,0.0,0.0,0.0,0.0,0.0,0.0,0.0,0.0,0.0,0.0,0.0,0.0,0.0,0.0,0.0,0.0,0.0,0.0,0.0,0.0,0.0,0.0,0.0,0.0,0.0,0.0,0.0,0.0,0.0,0.0,0.0,0.0,0.0,0.0,0.0,0.0,0.0,0.0,0.0,0.0,0.0,0.0,0.0,0.0,0.0,0.0,0.0,0.0,0.0,0.0,0.0,0.0,-1.0,-1.002,-0.9796,0.0,0.0,0.0,0.0,0.0,0.0,0.0,0.0,0.0,0.0,0.0,0.0,0.0,0.0,0.0,0.0,0.0,0.0,0.0,0.0,0.0,0.0,0.0,0.0,0.0,0.0,0.0,0.0,0.0,0.0,0.0,0.0,0.0,0.0,0.0,0.0,0.0,0.0,0.0,0.0,0.0,0.0,0.0,0.0,0.0,0.0,0.0,0.0,0.0,0.0,0.0,0.0,0.0,0.0,0.0,0.0,0.0,0.0,0.0,0.0,0.0,0.0,0.0,0.0,0.0,0.0,0.0,0.0,0.0,0.0,0.0,0.0,0.0,0.0,0.0,0.0,0.0,0.0,0.0,0.0,0.0,0.0,0.0,0.0,0.0,0.0,0.0,0.0,0.0,0.0,0.0,0.0,0.0,0.0,0.0,0.0,0.0,0.0,0.0,0.0,0.0,0.0,0.0,0.0,0.0,0.0,0.0,0.0,0.0,0.0,-0.8721,0.0,-1.0234,-1.0059,-0.9757,-0.9437,0.0,0.0,0.0,0.0,0.0,0.0,0.0,0.0,0.0,0.0,0.0,0.0,0.0,0.0,0.0,0.0,0.0,0.0,0.0,0.0,0.0,0.0,0.0,0.0,0.0,0.0,0.0,0.0,0.0,0.0,0.0,0.0,0.0,0.0,0.0,0.0,0.0,0.0,0.0,0.0,0.0,0.0,0.0,0.0,0.0,0.0,0.0,0.0,0.0,0.0,0.0,0.0,0.0,0.0,0.0,0.0,0.0,0.0,0.0,0.0,0.0,0.0,0.0,0.0,0.0,0.0,0.0,0.0,0.0,0.0,0.0,0.0,0.0,0.0,0.0,0.0,0.0,0.0,0.0,0.0,0.0,0.0,0.0,0.0,0.0,0.0,0.0,0.0,0.0,0.0,0.0,0.0,0.0,0.0,0.0,0.0,0.0,0.0,0.0,0.0,0.0,0.0,0.0,0.0,0.0,0.0,0.0,0.0,0.0,-0.8558,-0.9414,-1.0224,-0.9492,-0.9053,0.0,0.0,0.0,0.0,0.0,0.0,0.0,0.0,0.0,0.0,0.0,0.0,0.0,0.0,0.0,0.0,0.0,0.0,0.0,0.0,0.0,0.0,0.0,0.0,0.0,0.0,0.0,0.0,0.0,0.0,0.0,0.0,0.0,0.0,0.0,0.0,0.0,0.0,0.0,0.0,0.0,0.0,0.0,0.0,0.0,0.0,0.0,0.0,0.0,0.0,0.0,0.0,0.0,0.0,0.0,0.0,0.0,0.0,0.0,0.0,0.0,0.0,0.0,0.0,0.0,0.0,0.0,0.0,0.0,0.0,0.0,0.0,0.0,0.0,0.0,0.0,0.0,0.0,0.0,0.0,0.0,0.0,0.0,0.0,0.0,0.0,0.0,0.0,0.0,0.0,0.0,0.0,0.0,0.0,0.0,0.0,0.0,0.0,0.0,0.0,0.0,0.0,0.0,0.0,0.0,0.0,0.0,0.0,0.0,-0.7734,-0.8548,-0.915,-0.9434,-0.916,-0.8887,0.0,0.0,0.0,0.0,0.0,0.0,0.0,0.0,0.0,0.0,0.0,0.0,0.0,0.0,0.0,0.0,0.0,0.0,0.0,0.0,0.0,0.0,0.0,0.0,0.0,0.0,0.0,0.0,0.0,0.0,0.0,0.0,0.0,0.0,0.0,0.0,0.0,0.0,0.0,0.0,0.0,0.0,0.0,0.0,0.0,0.0,0.0,0.0,0.0,0.0,0.0,0.0,0.0,0.0,0.0,0.0,0.0,0.0,0.0,0.0,0.0,0.0,0.0,0.0,0.0,0.0,0.0,0.0,0.0,0.0,0.0,0.0,0.0,0.0,0.0,0.0,0.0,0.0,0.0,0.0,0.0,0.0,0.0,0.0,0.0,0.0,0.0,0.0,0.0,0.0,0.0,0.0,0.0,0.0,0.0,0.0,0.0,0.0,0.0,0.0,0.0,0.0,0.0,0.0,0.0,0.0,0.0,0.0,0.0,-0.8318,0.0,-0.926,0.0,-0.9141,-0.886,0.0,0.0,0.0,0.0,0.0,0.0,0.0,0.0,0.0,0.0,0.0,0.0,0.0,0.0,0.0,0.0,0.0,0.0,0.0,0.0,0.0,0.0,0.0,0.0,0.0,0.0,0.0,0.0,0.0,0.0,0.0,0.0,0.0,0.0,0.0,0.0,0.0,0.0,0.0,0.0,0.0,0.0,0.0,0.0,0.0,0.0,0.0,0.0,0.0,0.0,0.0,0.0,0.0,0.0,0.0,0.0,0.0,0.0,0.0,0.0,0.0,0.0,0.0,0.0,0.0,0.0,0.0,0.0,0.0,0.0,0.0,0.0,0.0,0.0,0.0,0.0,0.0,0.0,0.0,0.0,0.0,0.0,0.0,0.0,0.0,0.0,0.0,0.0,0.0,0.0,0.0,0.0,0.0,0.0,0.0,0.0,0.0,0.0,0.0,0.0,0.0,0.0,0.0,0.0,0.0,0.0,0.0,0.0,-0.8799,-0.9552,-0.9592,-0.9815,-1.0244,-0.9434,-0.898,0.0,0.0,0.0,0.0,0.0,0.0,0.0,0.0,0.0,0.0,0.0,0.0,0.0,0.0,0.0,0.0,0.0,0.0,0.0,0.0,0.0,0.0,0.0,0.0,0.0,0.0,0.0,0.0,0.0,0.0,0.0,0.0,0.0,0.0,0.0,0.0,0.0,0.0,0.0,0.0,0.0,0.0,0.0,0.0,0.0,0.0,0.0,0.0,0.0,0.0,0.0,0.0,0.0,0.0,0.0,0.0,0.0,0.0,0.0,0.0,0.0,0.0,0.0,0.0,0.0,0.0,0.0,0.0,0.0,0.0,0.0,0.0,0.0,0.0,0.0,0.0,0.0,0.0,0.0,0.0,0.0,0.0,0.0,0.0,0.0,0.0,0.0,0.0,0.0,0.0,0.0,0.0,0.0,0.0,0.0,0.0,0.0,0.0,0.0,0.0,0.0,0.0,0.0,0.0,0.0,0.0,0.0,0.0,0.0,-0.9612,-1.0186,-1.0273,-0.9825,-0.9287,-0.8953,0.0,0.0,0.0,0.0,0.0,0.0,0.0,0.0,0.0,0.0,0.0,0.0,0.0,0.0,0.0,0.0,0.0,0.0,0.0,0.0,0.0,0.0,0.0,0.0,0.0,0.0,0.0,0.0,0.0,0.0,0.0,0.0,0.0,0.0,0.0,0.0,0.0,0.0,0.0,0.0,0.0,0.0,0.0,0.0,0.0,0.0,0.0,0.0,0.0,0.0,0.0,0.0,0.0,0.0,0.0,0.0,0.0,0.0,0.0,0.0,0.0,0.0,0.0,0.0,0.0,0.0,0.0,0.0,0.0,0.0,0.0,0.0,0.0,0.0,0.0,0.0,0.0,0.0,0.0,0.0,0.0,0.0,0.0,0.0,0.0,0.0,0.0,0.0,0.0,0.0,0.0,0.0,0.0,0.0,0.0,0.0,0.0,0.0,0.0,0.0,0.0,0.0,0.0,0.0,0.0,0.0,0.0,0.0,0.0,-1.1063,-1.1424,-1.1287,-1.0605,-1.001,-0.9566,-0.9249,0.0,0.0,0.0,0.0,0.0,0.0,0.0,0.0,0.0,0.0,0.0,0.0,0.0,0.0,0.0,0.0,0.0,0.0,0.0,0.0,0.0,0.0,0.0,0.0,0.0,0.0,0.0,0.0,0.0,0.0,0.0,0.0,0.0,0.0,0.0,0.0,0.0,0.0,0.0,0.0,0.0,0.0,0.0,0.0,0.0,0.0,0.0,0.0,0.0,0.0,0.0,0.0,0.0,0.0,0.0,0.0,0.0,0.0,0.0,0.0,0.0,0.0,0.0,0.0,0.0,0.0,0.0,0.0,0.0,0.0,0.0,0.0,0.0,0.0,0.0,0.0,0.0,0.0,0.0,0.0,0.0,0.0,0.0,0.0,0.0,0.0,0.0,0.0,0.0,0.0,0.0,0.0,0.0,0.0,0.0,0.0,0.0,0.0,0.0,0.0,0.0,0.0,0.0,0.0,0.0,0.0,0.0,0.0,-1.3555,-1.3262,-1.2842,-1.2272,-1.1433,-1.0689,0.0,0.0,0.0,0.0,0.0,0.0,0.0,0.0,0.0,0.0,0.0,0.0,0.0,0.0,0.0,0.0,0.0,0.0,0.0,0.0,0.0,0.0,0.0,0.0,0.0,0.0,0.0,0.0,0.0,0.0,0.0,0.0,0.0,0.0,0.0,0.0,0.0,0.0,0.0,0.0,0.0,0.0,0.0,0.0,0.0,0.0,0.0,0.0,0.0,0.0,0.0,0.0,0.0,0.0,0.0,0.0,0.0,0.0,0.0,0.0,0.0,0.0,0.0,0.0,0.0,0.0,0.0,0.0,0.0,0.0,0.0,0.0,0.0,0.0,0.0,0.0,0.0,0.0,0.0,0.0,0.0,0.0,0.0,0.0,0.0,0.0,0.0,0.0,0.0,0.0,0.0,0.0,0.0,0.0,0.0,0.0,0.0,0.0,0.0,0.0,0.0,0.0,0.0,0.0,0.0,0.0,0.0,0.0,0.0,-1.4414,-1.5273,-1.4874,-1.3232,-1.2656,-1.1775,0.0,0.0,0.0,0.0,0.0,0.0,0.0,0.0,0.0,0.0,0.0,0.0,0.0,0.0,0.0,0.0,0.0,0.0,0.0,0.0,0.0,0.0,0.0,0.0,0.0,0.0,0.0,0.0,0.0,0.0,0.0,0.0,0.0,0.0,0.0,0.0,0.0,0.0,0.0,0.0,0.0,0.0,0.0,0.0,0.0,0.0,0.0,0.0,0.0,0.0,0.0,0.0,0.0,0.0,0.0,0.0,0.0,0.0,0.0,0.0,0.0,0.0,0.0,0.0,0.0,0.0,0.0,0.0,0.0,0.0,0.0,0.0,0.0,0.0,0.0,0.0,0.0,0.0,0.0,0.0,0.0,0.0,0.0,0.0,0.0,0.0,0.0,0.0,0.0,0.0,0.0,0.0,0.0,0.0,0.0,0.0,0.0,0.0,0.0,0.0,0.0,0.0,0.0,0.0,0.0,0.0,0.0,0.0,-1.3672,-1.5322,-1.6426,-1.6328,-1.4864,-1.3916,-1.2706,0.0,0.0,0.0,0.0,0.0,0.0,0.0,0.0,0.0,0.0,0.0,0.0,0.0,0.0,0.0,0.0,0.0,0.0,0.0,0.0,0.0,0.0,0.0,0.0,0.0,0.0,0.0,0.0,0.0,0.0,0.0,0.0,0.0,0.0,0.0,0.0,0.0,0.0,0.0,0.0,0.0,0.0,0.0,0.0,0.0,0.0,0.0,0.0,0.0,0.0,0.0,0.0,0.0,0.0,0.0,0.0,0.0,0.0,0.0,0.0,0.0,0.0,0.0,0.0,0.0,0.0,0.0,0.0,0.0,0.0,0.0,0.0,0.0,0.0,0.0,0.0,0.0,0.0,0.0,0.0,0.0,0.0,0.0,0.0,0.0,0.0,0.0,0.0,0.0,0.0,0.0,0.0,0.0,0.0,0.0,0.0,0.0,0.0,0.0,0.0,0.0,0.0,0.0,0.0,0.0,0.0,0.0,0.0,-1.4069,-1.6046,-1.7005,-1.7236,-1.6746,-1.5167,-1.3572,0.0,0.0,0.0,0.0,0.0,0.0,0.0,0.0,0.0,0.0,0.0,0.0,0.0,0.0,0.0,0.0,0.0,0.0,0.0,0.0,0.0,0.0,0.0,0.0,0.0,0.0,0.0,0.0,0.0,0.0,0.0,0.0,0.0,0.0,0.0,0.0,0.0,0.0,0.0,0.0,0.0,0.0,0.0,0.0,0.0,0.0,0.0,0.0,0.0,0.0,0.0,0.0,0.0,0.0,0.0,0.0,0.0,0.0,0.0,0.0,0.0,0.0,0.0,0.0,0.0,0.0,0.0,0.0,0.0,0.0,0.0,0.0,0.0,0.0,0.0,0.0,0.0,0.0,0.0,0.0,0.0,0.0,0.0,0.0,0.0,0.0,0.0,0.0,0.0,0.0,0.0,0.0,0.0,0.0,0.0,0.0,0.0,0.0,0.0,0.0,0.0,0.0,0.0,0.0,0.0,0.0,0.0,0.0,-1.495,-1.6075,-1.7246,-1.7676,-1.7246,-1.6242,-1.4808,0.0,0.0,0.0,0.0,0.0,0.0,0.0,0.0,0.0,0.0,0.0,0.0,0.0,0.0,0.0,0.0,0.0,0.0,0.0,0.0,0.0,0.0,0.0,0.0,0.0,0.0,0.0,0.0,0.0,0.0,0.0,0.0,0.0,0.0,0.0,0.0,0.0,0.0,0.0,0.0,0.0,0.0,0.0,0.0,0.0,0.0,0.0,0.0,-0.3232,0.0,0.0,0.0,0.0,0.0,0.0,0.0,0.0,0.0,0.0,0.0,0.0,0.0,0.0,0.0,0.0,0.0,0.0,0.0,0.0,0.0,0.0,0.0,0.0,0.0,0.0,0.0,0.0,0.0,0.0,0.0,0.0,0.0,0.0,0.0,0.0,0.0,0.0,0.0,0.0,0.0,0.0,0.0,0.0,0.0,0.0,0.0,0.0,0.0,0.0,0.0,0.0,0.0,0.0,0.0,0.0,0.0,0.0,0.0,-1.5596,-1.6692,-1.7549,-1.79,-1.7666,-1.6836,-1.5458,0.0,0.0,0.0,0.0,0.0,0.0,0.0,0.0,0.0,0.0,0.0,0.0,0.0,0.0,0.0,0.0,0.0,0.0,0.0,0.0,0.0,0.0,0.0,0.0,0.0,0.0,0.0,0.0,0.0,0.0,0.0,0.0,0.0,0.0,0.0,0.0,0.0,0.0,0.0,0.0,0.0,0.0,0.0,0.0,0.0,0.0,0.0,0.0,0.0,0.0,0.0,0.0,0.0,0.0,0.0,0.0,0.0,0.0,0.0,0.0,0.0,0.0,0.0,0.0,0.0,0.0,0.0,0.0,0.0,0.0,0.0,0.0,0.0,0.0,0.0,0.0,0.0,0.0,0.0,0.0,0.0,0.0,0.0,0.0,0.0,0.0,0.0,0.0,0.0,0.0,0.0,0.0,0.0,0.0,0.0,0.0,0.0,0.0,0.0,0.0,0.0,0.0,0.0,0.0,0.0,0.0,0.0,-1.5011,-1.6113,-1.7334,-1.7793,-1.7988,-1.79,-1.7048,-1.573,-1.3859,0.0,0.0,0.0,0.0,0.0,0.0,0.0,0.0,0.0,0.0,0.0,0.0,0.0,0.0,0.0,0.0,0.0,0.0,0.0,0.0,0.0,0.0,0.0,0.0,0.0,0.0,0.0,0.0,0.0,0.0,0.0,0.0,0.0,0.0,0.0,0.0,0.0,0.0,-0.4955,-0.5741,0.0,0.0,0.0,0.0,0.0,0.0,0.0,0.0,-0.3641,0.0,0.0,0.0,0.0,0.0,0.0,0.0,0.0,0.0,0.0,0.0,0.0,0.0,0.0,0.0,0.0,0.0,0.0,0.0,0.0,0.0,0.0,0.0,0.0,0.0,0.0,0.0,0.0,0.0,0.0,0.0,0.0,0.0,0.0,0.0,0.0,0.0,0.0,0.0,0.0,0.0,0.0,0.0,0.0,0.0,0.0,0.0,0.0,0.0,0.0,0.0,0.0,0.0,0.0,0.0,0.0,-1.4085,-1.5332,-1.6457,-1.7396,-1.7793,-1.7852,-1.748,-1.6662,-1.5449,-1.3859,0.0,0.0,0.0,0.0,0.0,0.0,0.0,0.0,0.0,0.0,0.0,0.0,0.0,0.0,0.0,0.0,0.0,0.0,0.0,0.0,0.0,0.0,0.0,0.0,0.0,0.0,0.0,0.0,0.0,0.0,0.0,0.0,0.0,0.0,0.0,0.0,0.0,0.0,0.0,-0.6337,-0.6617,0.0,0.0,0.0,0.0,0.0,0.0,0.0,0.0,-0.42,0.0,0.0,0.0,0.0,0.0,0.0,0.0,0.0,0.0,0.0,0.0,0.0,0.0,0.0,0.0,0.0,0.0,0.0,0.0,0.0,0.0,0.0,0.0,0.0,0.0,0.0,0.0,0.0,0.0,0.0,0.0,0.0,0.0,0.0,0.0,0.0,0.0,0.0,0.0,0.0,0.0,0.0,0.0,0.0,0.0,0.0,0.0,0.0,0.0,0.0,0.0,0.0,0.0,0.0,0.0,-1.4708,-1.6084,-1.7093,-1.7686,-1.791,-1.7812,-1.7416,-1.6309,-1.5167,0.0,0.0,0.0,0.0,0.0,0.0,0.0,0.0,0.0,0.0,0.0,0.0,0.0,0.0,0.0,0.0,0.0,0.0,0.0,0.0,0.0,0.0,0.0,0.0,0.0,0.0,0.0,0.0,0.0,0.0,0.0,0.0,0.0,0.0,0.0,0.0,0.0,0.0,0.0,0.0,-0.6455,-0.6802,-0.6639,0.0,0.0,0.0,0.0,0.0,0.0,-0.4955,-0.4929,0.0,0.0,0.0,0.0,0.0,0.0,0.0,0.0,0.0,0.0,0.0,0.0,0.0,0.0,0.0,0.0,0.0,0.0,0.0,0.0,0.0,0.0,0.0,0.0,0.0,0.0,0.0,0.0,0.0,0.0,0.0,0.0,0.0,0.0,0.0,0.0,0.0,0.0,0.0,0.0,0.0,0.0,0.0,0.0,0.0,0.0,0.0,0.0,0.0,0.0,0.0,0.0,0.0,0.0,0.0,-1.5371,-1.6787,-1.7676,-1.7998,-1.8096,-1.7861,-1.7256,-1.6064,-1.4847,0.0,0.0,0.0,0.0,0.0,0.0,0.0,0.0,0.0,0.0,0.0,0.0,0.0,0.0,0.0,0.0,0.0,0.0,0.0,0.0,0.0,0.0,0.0,0.0,0.0,0.0,0.0,0.0,0.0,0.0,0.0,0.0,0.0,0.0,0.0,0.0,0.0,0.0,0.0,0.0,0.0,-0.6976,-0.705,-0.6795,0.0,0.0,0.0,0.0,-0.549,-0.5659,0.0,0.0,0.0,0.0,0.0,0.0,0.0,0.0,0.0,0.0,0.0,0.0,0.0,0.0,0.0,0.0,0.0,0.0,0.0,0.0,0.0,0.0,0.0,0.0,0.0,0.0,0.0,0.0,0.0,0.0,0.0,0.0,0.0,0.0,0.0,0.0,0.0,0.0,0.0,0.0,0.0,0.0,0.0,0.0,0.0,0.0,0.0,0.0,0.0,0.0,0.0,0.0,0.0,0.0,0.0,0.0,-1.5381,-1.708,-1.7959,-1.8027,-1.8344,-1.7974,-1.6804,-1.5908,-1.4538,0.0,0.0,0.0,0.0,0.0,0.0,0.0,0.0,0.0,0.0,0.0,0.0,0.0,0.0,0.0,0.0,0.0,0.0,0.0,0.0,0.0,0.0,0.0,0.0,0.0,0.0,0.0,0.0,0.0,0.0,0.0,0.0,0.0,0.0,0.0,0.0,0.0,0.0,0.0,0.0,0.0,-0.7295,-0.6965,-0.693,-0.7013,0.0,0.0,-0.6347,-0.6939,-0.6407,0.0,0.0,0.0,0.0,0.0,0.0,0.0,0.0,0.0,0.0,0.0,0.0,0.0,0.0,0.0,0.0,0.0,0.0,0.0,0.0,0.0,0.0,0.0,0.0,0.0,0.0,0.0,0.0,0.0,0.0,0.0,0.0,0.0,0.0,0.0,0.0,0.0,0.0,0.0,0.0,0.0,0.0,0.0,0.0,0.0,0.0,0.0,0.0,0.0,0.0,0.0,0.0,0.0,0.0,0.0,-1.3525,-1.54,-1.7363,-1.8208,-1.8037,-1.8393,-1.811,-1.7129,-1.5976,-1.475,0.0,0.0,0.0,0.0,0.0,0.0,0.0,0.0,0.0,0.0,0.0,0.0,0.0,0.0,0.0,0.0,0.0,0.0,0.0,0.0,0.0,0.0,0.0,0.0,0.0,0.0,0.0,0.0,0.0,0.0,0.0,0.0,0.0,0.0,0.0,0.0,0.0,0.0,0.0,0.0,0.0,0.0,-0.7448,-0.7594,0.0,0.0,0.0,-0.7628,-0.7621,0.0,0.0,0.0,0.0,0.0,0.0,0.0,0.0,0.0,0.0,0.0,0.0,0.0,0.0,0.0,0.0,0.0,0.0,0.0,0.0,0.0,0.0,0.0,0.0,0.0,0.0,0.0,0.0,0.0,0.0,0.0,0.0,0.0,0.0,0.0,0.0,0.0,0.0,0.0,0.0,0.0,0.0,0.0,0.0,0.0,0.0,0.0,0.0,0.0,0.0,0.0,0.0,0.0,0.0,0.0,0.0,0.0,-1.542,-1.7613,-1.85,-1.8047,-1.849,-1.834,-1.7402,-1.6211,0.0,0.0,0.0,0.0,0.0,0.0,0.0,0.0,0.0,0.0,0.0,0.0,0.0,0.0,0.0,0.0,0.0,0.0,0.0,0.0,0.0,0.0,0.0,0.0,0.0,0.0,0.0,-0.383,0.0,0.0,0.0,0.0,0.0,0.0,0.0,0.0,0.0,0.0,0.0,0.0,0.0,0.0,-0.7877,-0.8125,-0.8421,-0.8595,0.0,0.0,-0.8807,-0.8473,-0.8387,-0.796,0.0,0.0,0.0,0.0,0.0,0.0,0.0,0.0,0.0,0.0,0.0,0.0,0.0,0.0,0.0,0.0,0.0,0.0,0.0,0.0,0.0,0.0,0.0,0.0,0.0,0.0,0.0,0.0,0.0,0.0,0.0,0.0,0.0,0.0,0.0,0.0,0.0,0.0,0.0,0.0,0.0,0.0,0.0,0.0,0.0,0.0,0.0,0.0,0.0,0.0,0.0,0.0,0.0,0.0,0.0,-1.543,-1.7939,-1.8838,-1.8066,-1.8818,-1.8678,-1.7422,-1.6525,-1.541,0.0,0.0,0.0,0.0,0.0,0.0,0.0,0.0,0.0,0.0,0.0,0.0,0.0,0.0,0.0,0.0,0.0,0.0,0.0,0.0,0.0,0.0,0.0,0.0,0.0,0.0,0.0,0.0,0.0,0.0,0.0,0.0,0.0,0.0,0.0,0.0,0.0,0.0,0.0,0.0,0.0,-0.8825,-0.8907,-0.9361,-0.9688,0.0,0.0,-0.9554,-0.9811,-0.8875,-0.7951,-0.7407,0.0,0.0,0.0,0.0,0.0,0.0,0.0,0.0,0.0,0.0,0.0,0.0,0.0,0.0,0.0,0.0,0.0,0.0,0.0,0.0,0.0,0.0,0.0,0.0,0.0,0.0,0.0,0.0,0.0,0.0,0.0,0.0,0.0,0.0,0.0,0.0,0.0,0.0,0.0,0.0,0.0,0.0,0.0,0.0,0.0,0.0,0.0,0.0,0.0,0.0,0.0,0.0,0.0,-1.3711,-1.541,-1.8003,-1.9004,-1.8412,-1.8975,-1.8926,-1.8174,-1.7061,-1.5986,0.0,0.0,0.0,0.0,0.0,0.0,0.0,0.0,0.0,0.0,0.0,0.0,0.0,0.0,0.0,0.0,0.0,0.0,0.0,0.0,0.0,0.0,0.0,0.0,0.0,0.0,0.0,0.0,-0.4649,-0.4895,-0.509,0.0,0.0,0.0,0.0,0.0,0.0,0.0,0.0,0.0,0.0,-0.964,-0.9844,-1.0237,0.0,0.0,-1.0579,-1.0429,-1.0211,-0.9262,-0.8218,-0.7412,-0.6147,0.0,0.0,0.0,0.0,0.0,0.0,0.0,0.0,0.0,0.0,0.0,0.0,0.0,0.0,0.0,0.0,0.0,0.0,0.0,0.0,0.0,0.0,0.0,0.0,0.0,0.0,0.0,0.0,0.0,0.0,0.0,0.0,0.0,0.0,0.0,0.0,0.0,0.0,0.0,0.0,0.0,0.0,0.0,0.0,0.0,0.0,0.0,0.0,0.0,0.0,0.0,0.0,-1.3838,-1.5381,-1.7969,-1.9072,-1.8617,-1.9072,-1.9082,-1.8588,-1.7486,-1.6445,0.0,0.0,0.0,0.0,0.0,0.0,0.0,0.0,0.0,0.0,0.0,0.0,0.0,0.0,0.0,0.0,0.0,0.0,0.0,0.0,0.0,0.0,0.0,0.0,0.0,0.0,0.0,0.0,-0.503,-0.5135,-0.5318,0.0,0.0,0.0,0.0,0.0,0.0,0.0,0.0,0.0,0.0,-1.053,-1.0826,-1.1235,-1.151,-1.1653,-1.1556,-1.1288,-1.0731,-0.9808,-0.8758,-0.7752,0.0,0.0,0.0,0.0,0.0,0.0,0.0,0.0,0.0,0.0,0.0,0.0,0.0,0.0,0.0,0.0,0.0,0.0,0.0,0.0,0.0,0.0,0.0,0.0,0.0,0.0,0.0,-1.0908,0.0,0.0,-1.0361,0.0,0.0,0.0,0.0,0.0,0.0,0.0,0.0,0.0,0.0,0.0,0.0,0.0,0.0,0.0,0.0,0.0,0.0,0.0,0.0,0.0,0.0,-1.4121,-1.543,-1.7988,-1.9082,-1.8646,-1.9062,-1.9082,-1.8617,-1.7812,-1.6748,-1.5391,0.0,0.0,0.0,0.0,0.0,0.0,0.0,0.0,0.0,0.0,0.0,0.0,0.0,0.0,0.0,0.0,0.0,0.0,0.0,0.0,0.0,0.0,0.0,0.0,0.0,0.0,-0.6127,-0.5876,-0.5595,0.0,0.0,0.0,0.0,0.0,0.0,0.0,0.0,0.0,0.0,-1.0881,-1.1532,-1.1913,-1.2302,-1.2542,-1.2487,-1.2365,-1.2091,-1.1544,-1.0552,-0.956,0.0,0.0,0.0,0.0,0.0,0.0,0.0,0.0,0.0,0.0,0.0,0.0,0.0,0.0,0.0,0.0,0.0,0.0,0.0,0.0,0.0,0.0,0.0,0.0,0.0,0.0,0.0,-1.3486,-1.3443,0.0,0.0,0.0,0.0,0.0,0.0,0.0,0.0,0.0,0.0,0.0,-1.6494,-1.6167,0.0,0.0,0.0,0.0,0.0,0.0,0.0,0.0,0.0,0.0,0.0,0.0,-1.4424,-1.6248,-1.8262,-1.9355,-1.9436,-1.9355,-1.9219,-1.9062,-1.7978,-1.6494,-1.4591,0.0,0.0,0.0,0.0,0.0,0.0,0.0,0.0,0.0,0.0,0.0,0.0,0.0,0.0,0.0,0.0,0.0,0.0,0.0,0.0,0.0,0.0,0.0,0.0,0.0,-0.6315,0.0,0.0,0.0,0.0,0.0,0.0,0.0,0.0,0.0,0.0,0.0,-1.0222,-1.1037,-1.1909,-1.2517,-1.266,-1.3179,-1.3437,0.0,0.0,0.0,0.0,0.0,0.0,0.0,0.0,0.0,0.0,0.0,0.0,0.0,0.0,-0.6363,-0.618,-0.6068,-0.5939,-0.5644,0.0,0.0,0.0,0.0,0.0,0.0,0.0,0.0,0.0,0.0,0.0,0.0,0.0,0.0,-1.5547,0.0,-1.4674,0.0,0.0,0.0,0.0,0.0,0.0,0.0,0.0,-1.897,-1.9213,-1.8698,-1.8307,-1.8077,0.0,-1.7686,-1.667,0.0,0.0,0.0,0.0,0.0,0.0,0.0,0.0,-1.4941,-1.6892,-1.8496,-1.9492,-1.9883,-1.9648,-1.9434,-1.9268,-1.791,-1.6416,-1.4825,-1.3711,-1.2651,0.0,0.0,0.0,0.0,0.0,0.0,0.0,0.0,0.0,0.0,0.0,0.0,0.0,0.0,0.0,0.0,0.0,0.0,0.0,0.0,0.0,0.0,0.0,-0.6687,0.0,0.0,0.0,0.0,0.0,0.0,0.0,0.0,0.0,-0.9304,-1.0378,-1.1367,-1.1838,-1.2636,-1.3221,-1.3331,0.0,0.0,0.0,0.0,0.0,0.0,0.0,-1.1206,-1.0726,-0.9673,-0.8738,-0.8367,-0.8,-0.7644,-0.743,0.0,0.0,-0.6777,-0.6613,-0.6518,-0.6225,-0.6453,-0.6611,-0.6319,-0.6538,-0.6786,0.0,0.0,0.0,0.0,0.0,0.0,0.0,0.0,-1.7112,-1.7181,0.0,-1.6435,0.0,0.0,0.0,0.0,-1.5515,-1.7183,0.0,0.0,-2.0464,-2.105,-2.0656,-2.0429,-2.0337,-2.0279,-1.9659,-1.9062,-1.849,-1.6533,0.0,0.0,0.0,0.0,0.0,0.0,-1.5723,-1.7435,-1.8717,-1.9521,-1.9884,-1.9874,-1.9707,-1.9238,-1.7603,-1.6553,-1.6075,-1.4473,-1.3379,-1.292,-1.1147,0.0,0.0,0.0,0.0,0.0,0.0,0.0,0.0,0.0,0.0,0.0,0.0,0.0,0.0,0.0,0.0,0.0,0.0,0.0,0.0,-0.7264,0.0,0.0,0.0,0.0,0.0,0.0,0.0,0.0,0.0,0.0,-1.0704,-1.1733,-1.2555,-1.257,0.0,0.0,0.0,0.0,-1.4121,-1.4452,-1.4518,-1.4221,-1.3365,-1.2958,-1.2458,-1.1742,0.0,0.0,-0.9319,-0.9126,-0.8902,-0.8237,-0.8241,-0.8148,-0.738,-0.7119,-0.6984,-0.6781,-0.7017,-0.7171,-0.7077,-0.7265,-0.7472,-2.2221,0.0,0.0,0.0,0.0,-1.9768,-1.9955,-2.0186,-2.0413,-2.0574,-2.0644,-1.9988,0.0,0.0,0.0,0.0,0.0,0.0,-2.0113,-2.0915,-2.2087,-2.252,-2.2238,-2.1834,-2.1516,-2.1212,-2.0708,-2.0121,-1.9521,-1.8623,-1.7275,-1.5547,0.0,0.0,0.0,0.0,-1.6843,-1.8242,-1.9248,-1.9941,-2.041,-2.0078,-1.9561,-1.8802,-1.7773,-1.6992,-1.6543,-1.5469,-1.4521,-1.3763,-1.258,0.0,0.0,0.0,0.0,0.0,0.0,0.0,0.0,0.0,0.0,0.0,0.0,0.0,0.0,0.0,0.0,0.0,0.0,0.0,-0.8143,-0.8265,-0.8186,0.0,0.0,0.0,0.0,0.0,0.0,0.0,0.0,0.0,-1.2636,-1.298,-1.3309,0.0,0.0,-1.4223,-1.4357,-1.4523,-1.4618,-1.4526,-1.4655,0.0,-1.4214,-1.3838,-1.3588,-1.3443,-1.2631,-1.1666,-1.0638,-1.0117,-0.9525,-0.872,-0.8446,-0.8257,-0.7873,-0.7748,-0.7646,-0.7516,-0.7634,-0.7724,-0.7624,-0.7711,-0.7862,-2.5223,-2.3463,-2.2431,-2.1963,-2.1931,-2.2133,-2.2381,-2.2645,-2.2908,-2.3121,-2.322,-2.2686,-2.1803,-2.0629,-1.9839,0.0,0.0,0.0,-2.1834,-2.2656,-2.3381,-2.3639,-2.3494,-2.2971,-2.2585,-2.2311,-2.173,-2.1224,-2.0791,-2.0126,-1.9187,-1.7856,0.0,0.0,-1.6648,-1.7028,-1.7837,-1.9065,-1.9648,-2.0127,-2.0586,-1.998,-1.9424,-1.8861,-1.8076,-1.7432,-1.697,-1.6143,-1.5352,-1.463,-1.3378,-1.2249,0.0,0.0,0.0,0.0,0.0,0.0,0.0,0.0,0.0,0.0,0.0,-0.4997,0.0,0.0,0.0,0.0,-0.7836,-0.8458,-0.887,-0.9126,0.0,0.0,0.0,0.0,0.0,0.0,0.0,-1.1772,-1.276,-1.3565,-1.4004,-1.407,-1.4099,-1.4172,-1.445,-1.4655,-1.4655,0.0,-1.4878,-1.4853,-1.5006,-1.5021,-1.4699,-1.4494,-1.4358,-1.4262,-1.364,-1.2796,-1.1876,-1.1316,-1.0653,-0.974,-0.9326,-0.9158,-0.8855,-0.8733,-0.8438,-0.8,-0.8,-0.8081,-0.8029,-0.8113,-0.8231,-2.7738,-2.7278,-2.552,-2.4452,-2.3829,-2.4249,-2.454,-2.4773,-2.4814,-2.5012,-2.525,-2.4683,-2.3774,-2.2654,-2.1277,0.0,-2.1757,-2.2614,-2.3361,-2.4002,-2.4447,-2.458,-2.4538,-2.3946,-2.3594,-2.3471,-2.2692,-2.2276,-2.2155,-2.1174,-2.0713,-2.0644,-1.8717,-1.8018,-1.8598,-1.8305,-1.874,-1.9883,-1.9951,-2.0166,-2.0586,-1.9793,-1.9316,-1.9277,-1.8486,-1.7852,-1.7383,-1.6604,-1.5948,-1.5439,-1.3791,-1.2776,-1.2573,0.0,0.0,0.0,0.0,0.0,0.0,0.0,0.0,0.0,0.0,0.0,0.0,0.0,0.0,0.0,-0.8736,0.0,-0.9346,-0.9889,0.0,0.0,0.0,-1.0499,-1.1121,-1.1726,-1.2353,-1.3009,0.0,0.0,-1.482,-1.4922,-1.4834,-1.4621,-1.4794,-1.4944,-1.4936,-1.4944,-1.5053,-1.5316,-1.5382,-1.5279,-1.4988,-1.4922,-1.4793,-1.4476,-1.4192,-1.37,-1.2995,-1.2632,-1.2052,-1.0988,-1.0761,-1.0621,-1.0246,-0.9918,-0.9402,-0.8409,-0.8317,-0.8351,-0.8308,-0.8469,-0.8575,-2.839,-2.8255,-2.7821,-2.7132,-2.6419,-2.6512,-2.6429,-2.6141,-2.6481,-2.6501,-2.6264,-2.6094,-2.5496,-2.4512,-2.3505,-2.334,-2.3835,-2.4402,-2.4712,-2.489,-2.5357,-2.5388,-2.5024,-2.4867,-2.4325,-2.3501,-2.3295,-2.2865,-2.2205,-2.1946,-2.1725,-2.1574,-2.0732,-1.9922,-1.917,-1.9355,-1.9609,-1.9912,-2.0244,-2.0498,-2.0576,-2.0039,-1.9619,-1.9287,-1.8769,-1.81,-1.7445,-1.6865,-1.6357,-1.5938,-1.4902,-1.4126,-1.375,-1.2516,0.0,0.0,0.0,0.0,0.0,0.0,0.0,0.0,0.0,-0.6538,-0.7207,0.0,-0.8494,0.0,-0.9833,-1.0353,-1.063,-1.1012,0.0,0.0,-1.1428,-1.1704,-1.2131,-1.2753,-1.3301,-1.3704,-1.4318,-1.4732,-1.4885,-1.5119,-1.5243,-1.5211,-1.5262,-1.5272,-1.5272,-1.5265,-1.5294,-1.5382,-1.5411,-1.536,-1.5301,-1.5265,-1.5272,-1.5148,-1.4968,-1.4615,-1.4084,-1.3669,-1.3105,-1.2382,-1.2029,-1.1815,-1.1569,-1.1187,-1.0644,-0.989,-0.9234,-0.8713,-0.8547,-0.8584,-0.8616,-2.9228,-2.9239,-2.9239,-2.8928,-2.8452,-2.8038,-2.7717,-2.751,-2.7759,-2.7603,-2.7148,-2.6641,-2.6151,-2.5591,-2.4835,-2.4764,-2.5262,-2.553,-2.5836,-2.6134,-2.6165,-2.6051,-2.5813,-2.5375,-2.4877,-2.4253,-2.3963,-2.358,-2.3074,-2.2727,-2.246,-2.2335,-2.1779,-2.1064,-2.0195,-2.0185,-2.0205,-2.0205,-2.0488,-2.0615,-2.0586,-1.9961,-1.9521,-1.9323,-1.8682,-1.8057,-1.7402,-1.6963,-1.6523,-1.6105,-1.5273,-1.4678,-1.4424,-1.3218,-1.2044,0.0,0.0,0.0,0.0,0.0,0.0,0.0,0.0,0.0,0.0,0.0,-0.9577,-1.0228,-1.0865,-1.1363,-1.1692,-1.2138,-1.2516,-1.2662,-1.2928,-1.3192,-1.3375,-1.3836,-1.4209,-1.4392,-1.4812,-1.5119,-1.5126,-1.5279,-1.5389,-1.5389,-1.5389,-1.5389,-1.5403,-1.5506,-1.56,-1.5608,-1.576,-1.5848,-1.5848,-1.5848,-1.5796,-1.5637,-1.5516,-1.5254,-1.4636,-1.4307,-1.3922,-1.3288,-1.3027,-1.2857,-1.2644,-1.2217,-1.1666,-1.0885,-1.0159,-0.9428,-0.8744,-0.8616,-0.8616,-2.9994,-2.9994,-2.9994,-2.9994,-2.9932,-2.9135,-2.8752,-2.87,-2.87,-2.8442,-2.7917,-2.6968,-2.6458,-2.6376,-2.5833,-2.5833,-2.6351,-2.6361,-2.667,-2.7278,-2.6895,-2.6677,-2.6584,-2.5782,-2.5303,-2.5179,-2.4602,-2.4311,-2.4196,-2.3436,-2.3033,-2.2971,-2.2355,-2.1818,-2.1356,-2.0898,-2.0664,-2.0615,-2.0615,-2.0615,-2.0595,-1.9785,-1.9346,-1.9258,-1.8457,-1.7793,-1.7314,-1.6875,-1.6436,-1.6016,-1.5264,-1.4901,-1.4834,-1.3551,-1.2529,0.0,-1.0937,0.0,0.0,0.0,0.0,0.0,0.0,0.0,0.0,-1.0053,-1.0646,-1.1216,-1.1845,-1.2336,-1.2614,-1.3236,-1.3733,-1.4056,-1.4304,-1.4518,-1.4562,-1.4739,-1.4915,-1.4958,-1.5214,-1.5389,-1.5382,-1.5411,-1.5489,-1.5518,-1.5577,-1.5613,-1.5584,-1.5717,-1.5906,-1.5957,-1.6191,-1.6338,-1.6309,-1.6375,-1.625,-1.603,-1.5972,-1.5684,-1.4986,-1.4853,-1.467,-1.4088,-1.3942,-1.3857,-1.3695,-1.3258,-1.2619,-1.1709,-1.1106,-1.0337,-0.913,-0.8744,-0.8696,-2.9994,-2.9994,-2.9994,-2.9994,-2.9973,-2.9808,-2.9518,-2.9166,-2.9166,-2.8907,-2.8483,-2.8258,-2.7919,-2.7569,-2.7438,-2.7301,-2.707,-2.707,-2.7179,-2.7289,-2.7216,-2.6978,-2.6615,-2.6449,-2.5937,-2.521,-2.5063,-2.4728,-2.4196,-2.4029,-2.3773,-2.3365,-2.2916,-2.2564,-2.2236,0.0,0.0,0.0,-2.0615,-2.0615,-2.0586,-2.0068,-1.9639,-1.9277,-1.8457,0.0,-1.6863,-1.6436,-1.5986,-1.5566,-1.5381,0.0,0.0,0.0,0.0,0.0,0.0,0.0,0.0,0.0,0.0,0.0,-1.1267,-1.1253,-1.1173,-1.1692,-1.2116,-1.2255,-1.284,-1.3243,-1.3309,-1.3901,-1.4342,-1.4408,-1.4474,-1.4567,-1.4816,-1.4871,-1.4995,-1.5272,-1.5352,-1.5396,-1.5425,-1.5608,-1.5818,-1.5833,-1.6038,-1.6177,-1.6184,-1.6045,-1.6016,-1.6235,-1.6382,-1.6426,-1.6411,-1.6389,-1.6411,-1.6331,-1.6331,-1.6119,-1.5763,-1.5647,-1.5581,-1.5133,-1.509,-1.5062,-1.502,-1.4489,-1.3743,-1.2638,-1.2057,-1.1284,-0.9777,-0.9305,-0.9174,-2.9994,-2.9994,-2.9994,-2.9994,0.0,-2.9994,-2.986,-2.9642,-2.9653,-2.9384,-2.8938,-2.8711,-2.8483,-2.8245,-2.8017,-2.78,-2.7572,-2.7403,-2.732,-2.732,-2.732,-2.7185,-2.6946,-2.6729,-2.6376,-2.5885,-2.5406,-2.5032,-2.4664,-2.4352,-2.4077,-2.3851,-2.3414,-2.3024,-2.267,-2.1711,-2.1016,-2.0615,-2.0615,-2.0615,-2.0595,-2.0137,-1.9707,-1.9287,-1.8662,0.0,0.0,0.0,0.0,0.0,0.0,0.0,0.0,0.0,0.0,-1.4601,-1.3829,-1.3077,-1.2444,-1.2458,-1.2606,-1.2868,-1.3278,-1.3167,-1.2369,-1.2862,-1.3243,-1.3258,-1.3697,-1.404,-1.4209,-1.4509,-1.4765,-1.4918,-1.4948,-1.5013,-1.5112,-1.5141,-1.5265,-1.5564,-1.563,-1.5673,-1.5877,-1.6023,-1.6133,-1.614,-1.6316,-1.6485,-1.6609,-1.6529,-1.6491,-1.6784,-1.6843,-1.6843,-1.6843,-1.6843,-1.6769,-1.6705,-1.6653,-1.6521,-1.6191,-1.614,-1.6074,-1.5921,-1.5891,-1.5891,-1.5849,-1.5497,-1.4843,-1.3786,-1.331,-1.2783,-1.1567,-1.0622,-0.9859,-2.9994,-2.9994,-2.9994,-2.9994,-2.9994,-2.9994,-2.9994,-2.9994,0.0,0.0,0.0,-2.9032,-2.8814,-2.8711,-2.8338,-2.8079,-2.7844,-2.7552,-2.7382,-2.732,-2.732,-2.732,-2.7289,-2.6915,-2.6698,-2.6584,-2.573,-2.5261,-2.5168,-2.4551,-2.4239,-2.4163,-2.3817,-2.3381,-2.2839,-2.1871,-2.1123,-2.0703,-2.0644,-2.0615,-2.0595,-2.0137,-1.9746,-1.9404,-1.8906,-1.8276,-1.7637,-1.7451,-1.7227,-1.6833,-1.6736,-1.6697,-1.6687,-1.6272,-1.6025,-1.599,-1.5308,-1.4741,-1.4404,-1.4339,-1.4413,-1.4638,-1.505,-1.4744,-1.3431,-1.3792,-1.4108,-1.407,-1.4362,-1.4655,-1.4878,-1.4958,-1.5097,-1.5401,-1.544,-1.5511,-1.5476,-1.557,-1.5716,-1.5943,-1.5994,-1.6089,-1.6345,-1.6448,-1.6499,-1.6507,-1.6587,-1.6623,-1.691,-1.6969,-1.6989,-1.7208,-1.7245,-1.725,-1.7271,-1.7296,-1.7223,-1.7027,-1.6983,-1.6866,-1.6602,-1.6499,-1.6477,-1.6323,-1.636,-1.6389,-1.6397,-1.611,-1.5665,-1.4681,-1.4501,-1.4315,-1.3582,-1.2393,-1.1221,-2.9994,-2.9994,-2.9994,-2.9994,-2.9994,-2.9994,-2.9994,-2.9994,-2.9994,-2.9953,-2.9891,-2.9839,-2.958,-2.9208,-2.9145,-2.868,-2.7935,-2.7862,-2.7624,-2.732,-2.732,-2.732,-2.7299,-2.7237,-2.6998,-2.6594,-2.603,-2.5595,-2.5179,-2.4671,-2.4378,-2.4206,-2.412,-2.3682,-2.2901,-2.2156,-2.1582,-2.1112,-2.0801,-2.0615,-2.0595,-2.0146,-1.9893,-1.9795,-1.9026,-1.8559,-1.8422,-1.7773,-1.7353,-1.7285,-1.6902,-1.6697,-1.6707,-1.6677,-1.6743,-1.7135,-1.6902,-1.6798,-1.693,-1.6838,-1.6668,-1.635,-1.6158,-1.5639,-1.4636,-1.4449,-1.4438,-1.4452,-1.4699,-1.4849,-1.4915,-1.5163,-1.5352,-1.5418,-1.5687,-1.5848,-1.5855,-1.606,-1.6265,-1.6338,-1.6301,-1.6316,-1.647,-1.6675,-1.6829,-1.6873,-1.6952,-1.714,-1.7208,-1.726,-1.7274,-1.7318,-1.7286,-1.7286,-1.7286,-1.7286,-1.725,-1.7274,-1.7245,-1.7135,-1.6881,-1.6837,-1.6749,-1.6485,-1.644,-1.6418,-1.6411,-1.6197,-1.5854,-1.5376,-1.5242,-1.5138,-1.4778,-1.4263,-1.347,-2.9994,-2.9994,-2.9994,-2.9994,-2.9994,-2.9994,-2.9994,-2.9994,-2.9994,-2.9994,-2.9994,-2.9994,-2.988,-2.9663,-2.9415,-2.8938,-2.8297,-2.8048,-2.7676,-2.733,-2.732,-2.732,-2.732,-2.732,-2.7195,-2.6957,-2.6262,-2.5771,-2.5533,-2.4848,-2.4454,-2.4378,-2.4249,-2.3768,-2.2921,-2.2587,-2.2028,-2.12,-2.0791,-2.0615,-2.0605,-2.041,-2.0166,-1.9922,-1.9521,-1.9219,-1.8994,-1.8623,-1.8418,-1.8408,-1.8232,-1.8115,-1.8115,-1.8115,-1.8213,-1.8398,-1.8234,-1.8151,-1.8152,-1.8101,-1.7891,-1.7508,-1.7291,-1.6877,-1.6102,-1.538,-1.4984,-1.4992,-1.509,-1.5243,-1.5411,-1.5564,-1.5717,-1.5928,-1.6074,-1.6155,-1.617,-1.6272,-1.6485,-1.6639,-1.6675,-1.6741,-1.6872,-1.7018,-1.7113,-1.7121,-1.726,-1.7286,-1.7286,-1.7286,-1.7286,-1.7286,-1.7286,-1.7286,-1.7286,-1.7286,-1.7286,-1.7286,-1.7286,-1.7274,-1.7128,-1.7106,-1.704,-1.6923,-1.6879,-1.6894,-1.6879,-1.6803,-1.6528,-1.6169,-1.6169,-1.6123,-1.5932,-1.5371,-1.4291,-3.0087,-2.9994,-2.9994,-2.9994,-2.9994,-2.9994,-2.9994,-2.9994,-2.9994,-2.9994,-2.9994,-2.9994,-2.9994,-2.9953,-2.9611,-2.9208,-2.8752,-2.8286,-2.7831,-2.7475,-2.7361,-2.732,-2.732,-2.732,-2.732,-2.7216,-2.647,-2.6034,-2.5802,-2.5034,-2.46,-2.4507,-2.4282,-2.3808,-2.3093,-2.2951,-2.2438,-2.1533,-2.0986,-2.0703,-2.0615,-2.0615,-2.041,-2.0088,-2.0059,-1.9902,-1.959,-1.9482,-1.9434,-1.9424,-1.9336,-1.9277,-1.9277,-1.9277,-1.9326,-1.9404,-1.9286,-1.9187,-1.9125,-1.9117,-1.8959,-1.8611,-1.84,-1.8089,-1.7564,-1.6469,-1.5735,-1.5617,-1.5533,-1.5622,-1.5935,-1.6016,-1.6111,-1.6382,-1.6485,-1.6529,-1.6529,-1.658,-1.6667,-1.6969,-1.696,-1.7062,-1.726,-1.7286,-1.7271,-1.7264,-1.7286,-1.7286,-1.7286,-1.7286,-1.7286,-1.7286,-1.7286,-1.7286,-1.7286,-1.7286,-1.7286,-1.7286,-1.7286,-1.7271,-1.7257,-1.7271,-1.7279,-1.7228,-1.725,-1.7228,-1.7264,-1.7264,-1.7102,-1.68,-1.6839,-1.6929,-1.6633,-1.5954,-1.4791,-3.0377,-3.0025,-3.0005,-2.9994,-2.9994,-2.9994,-2.9994,-2.9994,-2.9994,-2.9994,-2.9994,-2.9994,-2.9994,-2.9994,-2.9942,-2.9653,-2.9197,-2.8763,-2.8286,-2.7831,-2.7496,-2.732,-2.732,-2.732,-2.732,-2.7247,-2.677,-2.6268,-2.5906,-2.5388,-2.491,-2.4506,-2.4292,-2.4046,-2.3697,-2.3175,-2.2735,-2.2383,-2.1551,-2.0977,-2.0635,-2.0615,-2.0586,-2.0556,-2.0537,-2.0527,-2.0429,-2.0068,-1.9853,-1.9824,-1.9512,-1.9297,-1.9297,-1.9297,-1.9473,-1.9814,-1.9816,-1.9982,-2.0352,-2.045,-2.0294,-2.009,-1.9481,-1.9155,-1.898,-1.782,-1.6769,-1.6332,-1.5998,-1.6001,-1.6323,-1.6367,-1.6404,-1.6499,-1.6705,-1.6859,-1.6881,-1.7069,-1.7206,-1.7274,-1.7252,-1.7296,-1.7271,-1.7286,-1.7286,-1.7286,-1.7286,-1.7286,-1.7286,-1.7286,-1.7286,-1.7286,-1.7286,-1.7286,-1.7286,-1.7286,-1.7286,-1.7286,-1.7286,-1.7286,-1.7286,-1.7286,-1.7286,-1.7286,-1.7286,-1.7286,-1.7286,-1.7286,-1.7286,-1.7192,-1.7192,-1.72,-1.6972,-1.6487,-1.5477,-3.0574,-3.0377,-3.0108,-2.9994,-2.9994,-2.9994,-2.9994,-2.9994,-2.9994,-2.9994,-2.9994,-2.9994,-2.9994,-2.9994,-2.9994,-2.9746,-2.929,-2.8825,-2.8359,-2.7903,-2.7506,-2.732,-2.732,-2.732,-2.732,-2.7268,-2.6832,-2.6511,-2.6241,-2.5575,-2.4962,-2.4538,-2.4411,-2.4196,-2.3831,-2.3541,-2.3117,-2.251,-2.2168,-2.166,-2.1016,-2.0732,-2.0615,-2.0615,-2.0615,-2.0615,-2.0595,-2.0429,-2.0303,-2.0283,-2.0175,-2.0087,-2.0049,-2.0087,-2.0127,-2.0321,-2.0293,-2.0371,-2.0595,-2.0615,-2.0537,-2.0303,-2.0178,-1.9913,-1.9497,-1.8776,-1.8222,-1.7811,-1.6864,-1.6309,-1.6646,-1.6697,-1.6726,-1.6901,-1.7062,-1.7135,-1.7143,-1.7245,-1.7286,-1.7286,-1.7286,-1.7286,-1.7286,-1.7286,-1.7286,-1.7286,-1.7286,-1.7286,-1.7286,-1.7286,-1.7286,-1.7286,-1.7286,-1.7286,-1.7286,-1.7286,-1.7286,-1.7286,-1.7286,-1.7286,-1.7286,-1.7286,-1.7286,-1.7286,-1.7286,-1.7286,-1.7286,-1.7286,-1.7286,-1.7286,-1.7286,-1.7286,-1.7192,-1.677,-1.6169,-3.0905,-3.0626,-3.0191,-2.9994,-2.9994,-2.9994,-2.9994,-2.9994,-2.9994,-2.9994,-2.9994,-2.9994,-2.9994,-2.9994,-2.9994,-2.9808,-2.9446,-2.8887,-2.8431,-2.8059,-2.7531,-2.732,-2.732,-2.732,-2.732,-2.7258,-2.6978,-2.6677,-2.6376,-2.5627,-2.4952,-2.4569,-2.4507,-2.4282,-2.3927,-2.3841,-2.3474,-2.2843,-2.2621,-2.2207,-2.1561,-2.1035,-2.0732,-2.0625,-2.0615,-2.0615,-2.0615,-2.0615,-2.0615,-2.0605,-2.0615,-2.0615,-2.0615,-2.0615,-2.0615,-2.0615,-2.0615,-2.0615,-2.0615,-2.0615,-2.0576,-2.0565,-2.0705,-2.0639,-2.032,-1.9954,-1.9713,-1.9557,-1.8326,-1.755,-1.7295,-1.7264,-1.7283,-1.7397,-1.7333,-1.7286,-1.7279,-1.7286,-1.7286,-1.7286,-1.7286,-1.7286,-1.7286,-1.7286,-1.7286,-1.7286,-1.7286,-1.7286,-1.7286,-1.7286,-1.7286,-1.7286,-1.7286,-1.7286,-1.7286,-1.7286,-1.7286,-1.7286,-1.7286,-1.7286,-1.7286,-1.7286,-1.7286,-1.7286,-1.7286,-1.7286,-1.7286,-1.7286,-1.7286,-1.7286,-1.7286,-1.7286,-1.7286,-1.6958,-1.6864,-3.1474,-3.0667,-3.0191,-3.0015,-2.9994,-2.9994,-2.9994,-2.9994,-2.9994,-2.9994,-2.9994,-2.9994,-2.9994,-2.9994,-2.9994,-2.9984,-2.9839,-2.9011,-2.8597,-2.8452,-2.7655,-2.732,-2.732,-2.732,-2.732,-2.732,-2.7258,-2.6791,-2.5958,-2.5471,-2.4952,-2.4528,-2.4507,-2.4411,-2.4153,-2.3927,-2.3711,-2.3361,-2.2873,-2.249,-2.2334,-2.158,-2.1035,-2.0703,-2.0615,-2.0615,-2.0615,-2.0615,-2.0615,-2.0615,-2.0615,-2.0615,-2.0615,-2.0615,-2.0615,-2.0615,-2.0625,-2.0625,-2.0635,-2.0674,-2.0791,-2.1093,-2.1209,-2.1428,-2.174,-2.1302,-2.0974,-2.1123,-2.0309,-1.9459,-1.8556,-1.8134,-1.794,-1.7699,-1.7481,-1.7333,-1.7286,-1.7286,-1.7286,-1.7286,-1.7315,-1.7344,-1.7315,-1.7286,-1.7352,-1.7406,-1.7369,-1.7344,-1.7388,-1.7352,-1.7359,-1.7366,-1.7352,-1.7293,-1.7293,-1.7286,-1.7286,-1.7286,-1.7286,-1.7286,-1.7286,-1.7286,-1.7286,-1.7286,-1.7286,-1.7286,-1.7286,-1.7286,-1.7286,-1.7286,-1.7286,-1.7286,-1.7286,-1.7286,-1.7192,-3.1516,-3.0688,-3.0512,-3.0274,-3.0005,-2.9994,-2.9994,-2.9994,-2.9994,-2.9994,-2.9994,-2.9994,-2.9994,-2.9994,-2.9994,-2.9994,-2.9911,-2.9032,-2.8618,-2.8514,-2.7676,-2.732,-2.732,-2.732,-2.732,-2.732,-2.7309,-2.6822,-2.5958,-2.5709,-2.5264,-2.4611,-2.4507,-2.4411,-2.4206,-2.411,-2.3884,-2.3537,-2.3248,-2.2922,-2.2529,-2.2165,-2.1687,-2.1025,-2.0713,-2.0615,-2.0615,-2.0615,-2.0615,-2.0615,-2.0615,-2.0615,-2.0615,-2.0615,-2.0615,-2.0635,-2.084,-2.0996,-2.1025,-2.13,-2.1515,-2.1641,-2.1914,-2.2065,-2.2149,-2.201,-2.1841,-2.1561,-2.123,-2.051,-1.96,-1.8904,-1.8434,-1.811,-1.7652,-1.7286,-1.7286,-1.7286,-1.7286,-1.7315,-1.7494,-1.764,-1.7684,-1.7816,-1.794,-1.7955,-1.7947,-1.7933,-1.7947,-1.7947,-1.7911,-1.794,-1.7947,-1.7882,-1.7647,-1.7395,-1.7286,-1.7286,-1.7286,-1.7286,-1.7286,-1.7286,-1.7286,-1.7286,-1.7286,-1.7286,-1.7286,-1.7286,-1.7286,-1.7286,-1.7286,-1.7286,-1.7286,-1.7286,-1.7286,-3.1681,-3.1122,-3.0812,-3.0512,-3.0222,-3.0056,-2.9994,-2.9994,-2.9994,-2.9994,-2.9994,-2.9994,-2.9994,-2.9994,-2.9994,-2.9994,-2.9922,-2.9197,-2.8763,-2.8545,-2.7831,-2.7444,-2.732,-2.732,-2.732,-2.732,-2.732,-2.6884,-2.621,-2.5993,-2.5482,-2.4776,-2.459,-2.4454,-2.4292,-2.4249,-2.4024,-2.3764,-2.359,-2.3258,-2.282,-2.2611,-2.2246,-2.1648,-2.123,-2.0879,-2.0635,-2.0615,-2.0615,-2.0615,-2.0615,-2.0615,-2.0615,-2.0615,-2.0674,-2.0791,-2.1074,-2.1268,-2.1414,-2.1728,-2.1934,-2.209,-2.2344,-2.2473,-2.25,-2.2587,-2.2413,-2.2097,-2.1687,-2.115,-2.0329,-1.9392,-1.8703,-1.8295,-1.7699,-1.7333,-1.7293,-1.7374,-1.749,-1.7677,-1.7852,-1.7962,-1.7991,-1.8167,-1.8255,-1.8299,-1.8299,-1.8299,-1.8299,-1.8299,-1.8299,-1.8299,-1.8262,-1.8167,-1.8021,-1.7845,-1.7461,-1.7403,-1.7374,-1.7344,-1.7344,-1.733,-1.7308,-1.7301,-1.7293,-1.7286,-1.7286,-1.7286,-1.7286,-1.7293,-1.7286,-1.7286,-1.7286,-1.7286,-1.7286,-3.1988,-3.1802,-3.1071,-3.0698,-3.0574,-3.017,-2.9994,-2.9994,-2.9994,-2.9994,-2.9994,-2.9994,-2.9994,-2.9994,-2.9994,-2.9994,-2.9911,-2.9508,-2.9083,-2.8659,-2.8121,-2.7665,-2.7382,-2.733,-2.732,-2.732,-2.732,-2.7061,-2.6553,-2.6169,-2.5689,-2.5168,-2.4745,-2.4559,-2.4497,-2.4335,-2.4206,-2.4077,-2.3764,-2.3537,-2.34,-2.2893,-2.2519,-2.2393,-2.2031,-2.1505,-2.0723,-2.0693,-2.0732,-2.0703,-2.0664,-2.0625,-2.0674,-2.0703,-2.081,-2.1182,-2.1229,-2.1484,-2.1826,-2.1953,-2.2197,-2.2441,-2.2539,-2.2691,-2.2921,-2.3018,-2.2925,-2.2574,-2.2069,-2.149,-2.0852,-1.9762,-1.8743,-1.8172,-1.7652,-1.7333,-1.7374,-1.7585,-1.7925,-1.8167,-1.8269,-1.8299,-1.8306,-1.8394,-1.8445,-1.8445,-1.843,-1.8438,-1.8467,-1.8467,-1.8364,-1.8372,-1.8467,-1.8489,-1.8386,-1.8262,-1.7882,-1.7541,-1.7552,-1.7523,-1.7505,-1.7505,-1.7447,-1.7432,-1.7439,-1.7432,-1.7362,-1.7362,-1.7377,-1.7377,-1.7362,-1.7286,-1.7286,-1.7286,-1.7286,-3.2277,-3.1926,-3.1412,-3.0977,-3.0646,-3.0191,-2.9994,-2.9994,-2.9994,-2.9994,-2.9994,-2.9994,-2.9994,-2.9994,-2.9994,-2.9994,-2.9984,-2.9818,-2.9539,-2.9032,-2.8286,-2.7862,-2.7686,-2.7455,-2.732,-2.732,-2.732,-2.7071,-2.6677,-2.6423,-2.5989,-2.5292,-2.5055,-2.4807,-2.4528,-2.4411,-2.4325,-2.4163,-2.4077,-2.3861,-2.3547,-2.3288,-2.2985,-2.2539,-2.2383,-2.2041,-2.1523,-2.1475,-2.1515,-2.1455,-2.1191,-2.1025,-2.1074,-2.1309,-2.1523,-2.1689,-2.1973,-2.2148,-2.2314,-2.2578,-2.2764,-2.2867,-2.2896,-2.2945,-2.3071,-2.3101,-2.2925,-2.2583,-2.2176,-2.1733,-2.116,-2.0475,-1.9548,-1.8419,-1.7699,-1.7457,-1.7691,-1.7955,-1.8167,-1.8299,-1.8496,-1.8621,-1.8679,-1.8774,-1.8906,-1.8921,-1.8928,-1.8928,-1.8942,-1.8891,-1.8972,-1.8972,-1.8957,-1.8825,-1.8708,-1.8621,-1.8401,-1.8079,-1.7933,-1.7801,-1.7794,-1.7765,-1.7699,-1.76,-1.76,-1.7604,-1.7479,-1.7435,-1.7486,-1.7413,-1.7315,-1.7301,-1.7286,-1.7286,-1.7286,-3.2504,-3.2184,-3.1629,-3.1215,-3.0874,-3.0284,-2.9994,-2.9994,-2.9994,-2.9994,-2.9994,-2.9994,-2.9994,-2.9994,-2.9994,-2.9994,-2.9994,-2.9994,-2.9849,-2.9446,-2.8607,-2.8061,-2.7903,-2.7506,-2.732,-2.732,-2.732,-2.7164,-2.6884,-2.6641,-2.6279,-2.5802,-2.5564,-2.521,-2.4797,-2.4745,-2.4607,-2.4366,-2.4239,-2.4024,-2.3667,-2.3547,-2.3235,-2.2783,-2.2701,-2.2565,-2.2373,-2.2353,-2.2197,-2.1914,-2.1611,-2.1444,-2.1504,-2.1728,-2.1953,-2.2148,-2.2353,-2.2568,-2.2734,-2.2925,-2.3101,-2.3101,-2.3101,-2.3091,-2.3101,-2.3101,-2.2964,-2.2818,-2.24,-2.2062,-2.1706,-2.1178,-2.0439,-1.9554,-1.8603,-1.8071,-1.8179,-1.8357,-1.8547,-1.8679,-1.8855,-1.8942,-1.903,-1.9103,-1.9272,-1.9272,-1.9272,-1.9272,-1.9272,-1.925,-1.9272,-1.9272,-1.9199,-1.9081,-1.9001,-1.8935,-1.8891,-1.8642,-1.8401,-1.8233,-1.813,-1.8064,-1.7999,-1.7925,-1.7904,-1.7882,-1.7779,-1.7713,-1.7706,-1.7512,-1.7403,-1.7301,-1.7286,-1.7286,-1.7315,-3.2669,-3.2556,-3.1785,-3.1433,-3.1298,-3.046,-3.0087,-3.0056,-2.9994,-2.9994,-2.9994,-2.9994,-2.9994,-2.9994,-2.9994,-2.9994,-2.9994,-2.9994,-2.9984,-2.9715,-2.9052,-2.84,-2.781,-2.7475,-2.732,-2.732,-2.732,-2.7299,-2.7216,-2.6895,-2.6646,-2.648,-2.6072,-2.5654,-2.5292,-2.521,-2.4952,-2.4555,-2.4323,-2.41,-2.3807,-2.3634,-2.3396,-2.3105,-2.3042,-2.3023,-2.2974,-2.2945,-2.2685,-2.206,-2.1982,-2.1992,-2.1934,-2.1943,-2.2217,-2.2529,-2.2549,-2.2721,-2.2994,-2.3071,-2.3101,-2.3101,-2.3101,-2.312,-2.3179,-2.3237,-2.3285,-2.3364,-2.2839,-2.2492,-2.2494,-2.2111,-2.154,-2.1063,-1.9844,-1.9053,-1.8809,-1.8782,-1.8913,-1.9133,-1.9264,-1.9264,-1.9228,-1.9257,-1.9272,-1.9272,-1.9272,-1.9272,-1.9272,-1.9272,-1.9272,-1.9272,-1.9272,-1.9235,-1.9125,-1.9118,-1.9067,-1.8979,-1.8789,-1.8664,-1.8489,-1.8408,-1.8247,-1.8174,-1.8174,-1.8145,-1.8108,-1.805,-1.7969,-1.7874,-1.7699,-1.7403,-1.7435,-1.7545,-1.7604,-3.2669,-3.2607,-3.2106,-3.1868,-3.1733,-3.0884,-3.0501,-3.046,-3.0129,-2.9994,-2.9994,-2.9994,-2.9994,-2.9994,-2.9994,-2.9994,-2.9994,-2.9994,-2.9994,-2.9911,-2.9425,-2.8462,-2.7624,-2.7382,-2.732,-2.732,-2.732,-2.732,-2.7309,-2.7164,-2.6946,-2.6615,-2.6511,-2.6084,-2.5546,-2.5341,-2.506,-2.4733,-2.4512,-2.4196,-2.3841,-2.3754,-2.3537,-2.3144,-2.3101,-2.3101,-2.3101,-2.3101,-2.2867,-2.2451,-2.2646,-2.2646,-2.2402,-2.2607,-2.2803,-2.2857,-2.2916,-2.2955,-2.3062,-2.3101,-2.3101,-2.3101,-2.314,-2.3237,-2.3594,-2.3613,-2.3693,-2.3784,-2.3567,-2.3402,-2.3463,-2.3258,-2.2788,-2.2083,-2.0817,-1.9626,-1.9064,-1.9008,-1.9199,-1.9264,-1.9272,-1.9272,-1.9272,-1.9272,-1.9272,-1.9272,-1.9272,-1.9272,-1.9272,-1.9272,-1.9272,-1.9272,-1.9272,-1.9272,-1.9257,-1.9257,-1.9242,-1.922,-1.914,-1.9096,-1.8928,-1.8789,-1.8555,-1.8343,-1.846,-1.8474,-1.8438,-1.8394,-1.8299,-1.8189,-1.8064,-1.7896,-1.7984,-1.8079,-1.8072,-3.2669,-3.2638,-3.2184,-3.1988,-3.1864,-3.1081,-3.0688,-3.0594,-3.0201,-2.9994,-2.9994,-2.9994,-2.9994,-2.9994,-2.9994,-2.9994,-2.9994,-2.9994,-2.9994,-2.9922,-2.9508,-2.8649,-2.7748,-2.7444,-2.732,-2.732,-2.732,-2.732,-2.7309,-2.732,-2.7154,-2.6978,-2.6905,-2.6574,-2.6023,-2.5846,-2.5475,-2.5077,-2.4813,-2.4497,-2.3861,-2.3797,-2.3527,-2.3178,-2.3101,-2.3101,-2.3101,-2.3101,-2.2974,-2.2828,-2.2945,-2.2974,-2.2789,-2.2955,-2.3101,-2.3101,-2.3101,-2.3091,-2.3101,-2.3101,-2.3188,-2.3369,-2.3418,-2.3633,-2.3945,-2.4053,-2.4137,-2.4433,-2.436,-2.4449,-2.4564,-2.4427,-2.3984,-2.3205,-2.2113,-2.0835,-1.9541,-1.9406,-1.9413,-1.9324,-1.9272,-1.9272,-1.9272,-1.9272,-1.9272,-1.9272,-1.9272,-1.9272,-1.9272,-1.9272,-1.9272,-1.9272,-1.9272,-1.9272,-1.9272,-1.9272,-1.9272,-1.9272,-1.9272,-1.9272,-1.9184,-1.9038,-1.8884,-1.8694,-1.8767,-1.8796,-1.8767,-1.8716,-1.8599,-1.8503,-1.8423,-1.8343,-1.835,-1.8445,-1.8445,-3.2669,-3.2696,-3.2225,-3.206,-3.1936,-3.1164,-3.0812,-3.0677,-3.0222,-2.9994,-2.9994,-2.9994,-2.9994,-2.9994,-2.9994,-2.9994,-2.9994,-2.9994,-2.9994,-2.986,-2.9508,-2.8835,-2.8193,-2.7624,-2.7423,-2.734,-2.732,-2.732,-2.732,-2.732,-2.732,-2.7247,-2.7258,-2.7034,-2.6589,-2.6537,-2.6113,-2.5496,-2.5323,-2.4815,-2.4116,-2.3948,-2.369,-2.3178,-2.3101,-2.3101,-2.3101,-2.3101,-2.3071,-2.3091,-2.3101,-2.3071,-2.3071,-2.3091,-2.3101,-2.3101,-2.3101,-2.312,-2.3179,-2.3237,-2.3383,-2.376,-2.3857,-2.4043,-2.4375,-2.4492,-2.4668,-2.5098,-2.5137,-2.5226,-2.5421,-2.5353,-2.4884,-2.4156,-2.3543,-2.2358,-2.0798,-1.9983,-1.968,-1.9324,-1.9272,-1.9272,-1.9272,-1.9272,-1.9272,-1.9272,-1.9272,-1.9272,-1.9272,-1.9272,-1.9272,-1.9272,-1.9272,-1.9272,-1.9272,-1.9272,-1.9272,-1.9272,-1.9272,-1.9264,-1.9235,-1.914,-1.9118,-1.9067,-1.9023,-1.9052,-1.9118,-1.903,-1.8891,-1.8825,-1.876,-1.8591,-1.8474,-1.8635,-1.8701,-3.2669,-3.2659,-3.2623,-3.2525,-3.238,-3.1619,-3.1215,-3.1133,-3.0336,-2.9994,-2.9994,-2.9994,-2.9994,-2.9994,-2.9994,-2.9994,-2.9994,-2.9994,-2.9994,-2.9932,-2.9518,-2.9249,-2.8814,-2.8193,-2.7624,-2.7434,-2.732,-2.732,-2.732,-2.732,-2.732,-2.732,-2.7309,-2.7125,-2.6849,-2.6718,-2.6434,-2.6018,-2.5846,-2.529,-2.4543,-2.4309,-2.3939,-2.3223,-2.313,-2.3101,-2.3101,-2.3101,-2.3101,-2.3101,-2.312,-2.3149,-2.3101,-2.3101,-2.311,-2.3149,-2.314,-2.3257,-2.3564,-2.3672,-2.3838,-2.4219,-2.4307,-2.4463,-2.4863,-2.4932,-2.5146,-2.5478,-2.5605,-2.5615,-2.5664,-2.544,-2.5128,-2.4726,-2.4075,-2.3061,-2.1641,-2.0739,-2.0078,-1.9532,-1.9272,-1.9272,-1.9272,-1.9272,-1.9272,-1.9272,-1.9272,-1.9272,-1.9272,-1.9272,-1.9272,-1.9272,-1.9272,-1.9272,-1.9272,-1.9272,-1.9272,-1.9272,-1.9272,-1.9272,-1.9242,-1.9228,-1.9199,-1.9199,-1.9272,-1.9309,-1.9264,-1.9257,-1.9096,-1.9096,-1.9074,-1.8964,-1.8884,-1.8957,-1.895,-3.2669,-3.2649,-3.2442,-3.2406,-3.2261,-3.1454,-3.1104,-3.0926,-3.0315,-2.9994,-2.9994,-2.9994,-2.9994,-2.9994,-2.9994,-2.9994,-2.9994,-2.9994,-2.9994,-2.9953,-2.9715,-2.9528,-2.927,-2.8804,-2.8255,-2.7655,-2.7392,-2.732,-2.732,-2.732,-2.732,-2.732,-2.732,-2.7262,-2.7129,-2.6956,-2.6739,-2.6408,-2.6249,-2.5807,-2.5133,-2.4871,-2.4381,-2.3624,-2.3428,-2.3325,-2.312,-2.3101,-2.3101,-2.3149,-2.333,-2.3296,-2.312,-2.311,-2.3188,-2.3418,-2.3447,-2.3652,-2.3965,-2.4111,-2.4277,-2.4687,-2.4727,-2.498,-2.5254,-2.5381,-2.5469,-2.5664,-2.5674,-2.5684,-2.5693,-2.5586,-2.5391,-2.5235,-2.4686,-2.3669,-2.2299,-2.1242,-2.0292,-1.9583,-1.9272,-1.9272,-1.9272,-1.9272,-1.9272,-1.9272,-1.9272,-1.9272,-1.9272,-1.9272,-1.9272,-1.9272,-1.9272,-1.9272,-1.9272,-1.9272,-1.9272,-1.9272,-1.9272,-1.9272,-1.9264,-1.9264,-1.9264,-1.9264,-1.9316,-1.9264,-1.9272,-1.9272,-1.9272,-1.922,-1.9199,-1.925,-1.9242,-1.914,-1.9125,-3.2669,-3.2628,-3.2184,-3.1988,-3.1843,-3.1102,-3.0719,-3.0636,-3.0201,-2.9994,-2.9994,-2.9994,-2.9994,-2.9994,-2.9994,-2.9994,-2.9994,-2.9994,-2.9994,-2.9973,-2.9953,-2.9756,-2.9477,-2.9218,-2.8856,-2.8131,-2.7655,-2.7417,-2.734,-2.732,-2.732,-2.732,-2.732,-2.732,-2.7309,-2.7289,-2.7018,-2.6682,-2.6656,-2.6316,-2.5681,-2.5406,-2.4901,-2.4146,-2.375,-2.3603,-2.3296,-2.3179,-2.313,-2.3198,-2.3584,-2.3594,-2.3403,-2.3305,-2.3413,-2.3877,-2.3887,-2.4092,-2.4414,-2.4541,-2.4707,-2.5117,-2.5176,-2.5332,-2.5615,-2.5625,-2.5635,-2.5654,-2.5684,-2.5684,-2.5684,-2.581,-2.582,-2.5732,-2.5388,-2.4349,-2.2976,-2.1763,-2.0848,-1.9532,-1.9272,-1.9272,-1.9272,-1.9272,-1.9272,-1.9286,-1.9294,-1.9294,-1.9308,-1.9294,-1.9308,-1.9279,-1.9272,-1.9272,-1.9272,-1.9316,-1.9308,-1.9338,-1.9323,-1.933,-1.9316,-1.9272,-1.9272,-1.9272,-1.9272,-1.9272,-1.9272,-1.9272,-1.9272,-1.9272,-1.9272,-1.9272,-1.9272,-1.9272,-1.9272,-3.2669,-3.2628,-3.2184,-3.1988,-3.1833,-3.1071,-3.0657,-3.0605,-3.018,-3.0005,-2.9994,-2.9994,-2.9994,-2.9994,-2.9994,-2.9994,-2.9994,-2.9994,-2.9994,-2.9994,-2.9994,-2.988,-2.9787,-2.9518,-2.9218,-2.8897,-2.8286,-2.7717,-2.7423,-2.732,-2.732,-2.732,-2.732,-2.732,-2.732,-2.7309,-2.7125,-2.6859,-2.6971,-2.6613,-2.6056,-2.5878,-2.55,-2.4621,-2.4173,-2.3848,-2.3652,-2.3325,-2.3266,-2.3633,-2.375,-2.3935,-2.4111,-2.4134,-2.4258,-2.4287,-2.4326,-2.4502,-2.4873,-2.4971,-2.5195,-2.5498,-2.5586,-2.5586,-2.5654,-2.5684,-2.5684,-2.5703,-2.5713,-2.5723,-2.5703,-2.6064,-2.626,-2.6188,-2.5942,-2.5177,-2.3722,-2.2642,-2.1428,-1.9807,-1.9486,-1.9352,-1.944,-1.9484,-1.9499,-1.952,-1.9513,-1.9506,-1.9491,-1.944,-1.9389,-1.9338,-1.9272,-1.9272,-1.9272,-1.933,-1.9374,-1.944,-1.9447,-1.9455,-1.9411,-1.9308,-1.9286,-1.9447,-1.9381,-1.9272,-1.9272,-1.9279,-1.9272,-1.9272,-1.9272,-1.9272,-1.9272,-1.9272,-1.9272,-3.2669,-3.2607,-3.1981,-3.1692,-3.1536,-3.0719,-3.0336,-3.0294,-3.0098,-2.9994,-2.9994,-2.9994,-2.9994,-2.9994,-2.9994,-2.9994,-2.9994,-2.9994,-2.9994,-2.9994,-2.9994,-2.9994,-2.9994,-2.9735,-2.9518,-2.9259,-2.8804,-2.8235,-2.7634,-2.7413,-2.734,-2.732,-2.732,-2.732,-2.732,-2.732,-2.7119,-2.6986,-2.6976,-2.6884,-2.6384,-2.6391,-2.5829,-2.5132,-2.4643,-2.4355,-2.4092,-2.3965,-2.3906,-2.4111,-2.4372,-2.4541,-2.4736,-2.4922,-2.498,-2.4805,-2.4756,-2.4951,-2.5322,-2.542,-2.5527,-2.5625,-2.5684,-2.5684,-2.5684,-2.5684,-2.5703,-2.5742,-2.6006,-2.6074,-2.6103,-2.6475,-2.667,-2.6637,-2.6394,-2.543,-2.4053,-2.3224,-2.1751,-2.0194,-1.9911,-1.9872,-1.9835,-1.9842,-1.9791,-1.9769,-1.9747,-1.9725,-1.9703,-1.9681,-1.9638,-1.9659,-1.9645,-1.9645,-1.963,-1.9623,-1.9616,-1.9638,-1.9652,-1.9659,-1.9689,-1.9667,-1.9733,-1.9857,-1.9689,-1.9418,-1.9279,-1.9286,-1.9279,-1.9272,-1.9272,-1.9272,-1.9272,-1.9272,-1.9272,-3.2669,-3.2597,-3.1754,-3.1381,-3.1226,-3.0398,-3.0015,-2.9994,-3.0005,-2.9994,-2.9994,-2.9994,-2.9994,-2.9994,-2.9994,-2.9994,-2.9994,-2.9994,-2.9994,-2.9994,-2.9994,-2.9994,-2.9994,-2.9973,-2.987,-2.9766,-2.9446,-2.8907,-2.7986,-2.7603,-2.7396,-2.734,-2.732,-2.732,-2.732,-2.732,-2.7129,-2.689,-2.69,-2.69,-2.6757,-2.6524,-2.6096,-2.5348,-2.5165,-2.4863,-2.458,-2.4375,-2.4414,-2.458,-2.4871,-2.5135,-2.5244,-2.5547,-2.5557,-2.5273,-2.5205,-2.542,-2.5596,-2.5664,-2.5635,-2.5684,-2.5684,-2.5684,-2.5732,-2.5791,-2.5908,-2.5937,-2.625,-2.6504,-2.6562,-2.6904,-2.71,-2.7075,-2.6649,-2.5854,-2.4411,-2.3328,-2.2299,-2.1197,-2.0648,-2.0256,-2.0186,-2.0084,-2.0011,-2.0011,-1.9989,-2.0011,-2.0003,-2.0055,-2.0047,-2.0044,-2.0066,-2.0059,-2.0037,-2.0047,-2.0018,-1.9996,-2.0003,-2.0003,-2.0022,-2.0081,-2.0117,-2.0135,-1.9923,-1.9667,-1.9484,-1.936,-1.9279,-1.9272,-1.9272,-1.9272,-1.9272,-1.9272,-1.9272,-3.2669,-3.2597,-3.1754,-3.1381,-3.1236,-3.0387,-2.9994,-2.9994,-2.9994,-2.9994,-2.9994,-2.9994,-2.9994,-2.9994,-2.9994,-2.9994,-2.9994,-2.9994,-2.9994,-2.9994,-2.9994,-3.0025,-3.0025,-2.9994,-3.0284,-3.0315,-3.0108,-2.9156,-2.8349,-2.7997,-2.7634,-2.7444,-2.7351,-2.732,-2.732,-2.7272,-2.7013,-2.6688,-2.6747,-2.6747,-2.6496,-2.6294,-2.6099,-2.5826,-2.5446,-2.5145,-2.4961,-2.4766,-2.4687,-2.498,-2.5039,-2.5283,-2.5538,-2.5645,-2.5684,-2.5625,-2.5615,-2.5625,-2.5674,-2.5684,-2.5684,-2.5684,-2.5684,-2.5684,-2.582,-2.6133,-2.6309,-2.6328,-2.6699,-2.6924,-2.7021,-2.7344,-2.7571,-2.7519,-2.7266,-2.6197,-2.4896,-2.3708,-2.272,-2.1612,-2.0879,-2.054,-2.0358,-2.0256,-2.0168,-2.0183,-2.0197,-2.0234,-2.0285,-2.0358,-2.0387,-2.0431,-2.0508,-2.0508,-2.0467,-2.0424,-2.0394,-2.0336,-2.0329,-2.0329,-2.0394,-2.0438,-2.03,-2.0227,-2.0051,-1.9996,-1.9864,-1.9667,-1.9403,-1.9301,-1.933,-1.9308,-1.9272,-1.9279,-1.9286,-3.2669,-3.2597,-3.1754,-3.1381,-3.1257,-3.0398,-2.9994,-2.9994,-2.9994,-2.9994,-2.9994,-2.9994,-2.9994,-2.9994,-2.9994,-2.9994,-2.9994,-2.9994,-2.9994,-2.9994,-3.0015,-3.0129,-3.0356,-3.0408,-3.0626,-3.0853,-3.0801,-3.0263,-2.928,-2.8524,-2.8079,-2.7645,-2.7444,-2.732,-2.7272,-2.7129,-2.689,-2.6602,-2.6448,-2.6304,-2.612,-2.6062,-2.6052,-2.5878,-2.5575,-2.5449,-2.5371,-2.5312,-2.5234,-2.5449,-2.5449,-2.5469,-2.5635,-2.5684,-2.5684,-2.5684,-2.5674,-2.5674,-2.5684,-2.5684,-2.5684,-2.5693,-2.5713,-2.5801,-2.6054,-2.6475,-2.6738,-2.6748,-2.7139,-2.7353,-2.7461,-2.7783,-2.7939,-2.7927,-2.7523,-2.6281,-2.5131,-2.4309,-2.3255,-2.2191,-2.1189,-2.0925,-2.0728,-2.072,-2.0684,-2.0706,-2.0728,-2.0764,-2.0815,-2.0881,-2.0889,-2.0867,-2.0874,-2.0874,-2.0896,-2.0896,-2.0889,-2.0852,-2.0859,-2.0852,-2.0852,-2.0823,-2.0691,-2.057,-2.0581,-2.045,-2.0281,-1.9959,-1.9638,-1.9551,-1.9456,-1.9418,-1.9418,-1.9323,-1.9323,-3.2395,-3.2323,-3.165,-3.1381,-3.1288,-3.0387,-2.9994,-2.9994,-2.9994,-2.9994,-2.9994,-2.9994,-2.9994,-2.9994,-2.9994,-2.9994,-2.9994,-2.9994,-2.9994,-2.9994,-3.0036,-3.017,-3.0315,-3.0481,-3.0688,-3.127,-3.1029,-3.0646,-3.0129,-2.9487,-2.8825,-2.7976,-2.7624,-2.7349,-2.7139,-2.6986,-2.6757,-2.64,-2.6159,-2.5965,-2.583,-2.5917,-2.5878,-2.5781,-2.5684,-2.5684,-2.5684,-2.5645,-2.5654,-2.5654,-2.5684,-2.5645,-2.5684,-2.5684,-2.5684,-2.5684,-2.5684,-2.5684,-2.5684,-2.5684,-2.5684,-2.5723,-2.5918,-2.6083,-2.6533,-2.6914,-2.7168,-2.7178,-2.7464,-2.7659,-2.7775,-2.7956,-2.7907,-2.7688,-2.7359,-2.6136,-2.491,-2.403,-2.3095,-2.193,-2.1211,-2.1211,-2.1086,-2.1145,-2.1159,-2.1174,-2.1211,-2.1211,-2.1196,-2.1174,-2.1137,-2.1057,-2.1064,-2.1057,-2.1094,-2.1145,-2.1196,-2.1211,-2.1211,-2.1181,-2.1094,-2.1094,-2.1042,-2.1006,-2.0955,-2.0889,-2.0713,-2.0281,-1.9879,-1.9835,-1.9769,-1.9652,-1.9586,-1.9491,-1.9499,-3.1474,-3.1464,-3.1391,-3.135,-3.1343,-3.0398,-2.9994,-2.9994,-2.9994,-2.9994,-2.9994,-2.9994,-2.9994,-2.9994,-2.9994,-2.9994,-2.9994,-2.9994,-2.9994,-2.9994,-3.0015,-3.0087,-3.0201,-3.0294,-3.0387,-3.0781,-3.0936,-3.0843,-3.0605,-3.0356,-2.9332,-2.8173,-2.81,-2.7551,-2.7201,-2.7056,-2.6665,-2.6287,-2.5966,-2.5781,-2.5732,-2.5732,-2.5732,-2.5732,-2.5684,-2.5684,-2.5684,-2.5684,-2.5684,-2.5684,-2.5684,-2.5684,-2.5684,-2.5684,-2.5684,-2.5684,-2.5684,-2.5713,-2.5771,-2.584,-2.5732,-2.582,-2.6162,-2.6582,-2.6943,-2.7373,-2.7578,-2.7637,-2.7781,-2.7743,-2.7703,-2.7618,-2.7413,-2.6916,-2.6373,-2.5487,-2.442,-2.3584,-2.2644,-2.1596,-2.1211,-2.1211,-2.1211,-2.1211,-2.1211,-2.1211,-2.1211,-2.1211,-2.1211,-2.1196,-2.1196,-2.1167,-2.1174,-2.1174,-2.1181,-2.1211,-2.1211,-2.1211,-2.1211,-2.1211,-2.1181,-2.1211,-2.1211,-2.1181,-2.1094,-2.113,-2.1101,-2.0676,-2.0362,-2.0252,-2.0128,-1.9959,-1.9916,-1.9908,-1.9952,-3.1381,-3.135,-3.1081,-3.0957,-3.0905,-3.0274,-2.9994,-2.9994,-2.9994,-2.9994,-2.9994,-2.9994,-2.9994,-2.9994,-2.9994,-2.9994,-2.9994,-2.9994,-2.9994,-2.9994,-3.0005,-3.016,-3.0274,-3.0429,-3.0603,-3.0784,-3.0941,-3.0797,-3.0399,-3.056,-3.0201,-2.9384,-2.8907,-2.8541,-2.8134,-2.7199,-2.6635,-2.6281,-2.5938,-2.5693,-2.5684,-2.5684,-2.5684,-2.5684,-2.5684,-2.5684,-2.5684,-2.5684,-2.5684,-2.5684,-2.5684,-2.5684,-2.5684,-2.5684,-2.5703,-2.5713,-2.5732,-2.5849,-2.6113,-2.6162,-2.624,-2.6541,-2.6924,-2.7226,-2.7412,-2.7793,-2.8008,-2.8062,-2.7898,-2.7736,-2.7079,-2.6744,-2.6418,-2.5863,-2.5194,-2.4539,-2.384,-2.3062,-2.2438,-2.1536,-2.1254,-2.1211,-2.1211,-2.1211,-2.1211,-2.1211,-2.1211,-2.1211,-2.1211,-2.1211,-2.1211,-2.1211,-2.1211,-2.1211,-2.1211,-2.1211,-2.1211,-2.1211,-2.1211,-2.1211,-2.1211,-2.1211,-2.1211,-2.1211,-2.1211,-2.1189,-2.1115,-2.0984,-2.0801,-2.0611,-2.0398,-2.0139,-2.0161,-2.0249,-2.0292,-3.0957,-3.0926,-3.0615,-3.0563,-3.0615,-3.0191,-2.9994,-2.9994,-2.9994,-2.9994,-2.9994,-2.9994,-2.9994,-2.9994,-2.9994,-2.9994,-2.9994,-2.9994,-2.9994,-2.9994,-3.0046,-3.0201,-3.0377,-3.0364,-3.0268,-3.0581,-3.0547,-3.0312,-3.0046,-3.037,-3.0302,-3.0076,-2.9828,-2.9425,-2.8451,-2.7531,-2.6703,-2.6515,-2.6182,-2.5937,-2.5937,-2.5752,-2.5684,-2.5684,-2.5684,-2.5684,-2.5684,-2.5684,-2.5684,-2.5684,-2.5684,-2.5684,-2.5684,-2.5703,-2.5762,-2.5879,-2.5977,-2.6143,-2.6445,-2.6611,-2.6768,-2.7129,-2.7383,-2.7699,-2.7943,-2.8125,-2.8213,-2.8262,-2.796,-2.7359,-2.6472,-2.6091,-2.5542,-2.4927,-2.4317,-2.3664,-2.3223,-2.2583,-2.2089,-2.1531,-2.1488,-2.1562,-2.1511,-2.1525,-2.1335,-2.1298,-2.1211,-2.1211,-2.1211,-2.1211,-2.1211,-2.1211,-2.1211,-2.1211,-2.1211,-2.1211,-2.1211,-2.1211,-2.1211,-2.1211,-2.1211,-2.1211,-2.1211,-2.1211,-2.1211,-2.1211,-2.1159,-2.1072,-2.0998,-2.0911,-2.0728,-2.0574,-2.0647,-2.0735,-2.0669,-3.0067,-3.0025,-3.0046,-3.0284,-3.0574,-3.0191,-2.9994,-2.9994,-2.9994,-2.9994,-2.9994,-2.9994,-2.9994,-2.9994,-2.9994,-2.9994,-2.9942,-2.9994,-2.9994,-2.9942,-3.0005,-3.0036,-2.9941,-2.9898,-2.9768,-2.9562,-2.9578,-2.9629,-2.9583,-2.9995,-3.0288,-3.0498,-3.0238,-2.9792,-2.8528,-2.7535,-2.7012,-2.6953,-2.6621,-2.6416,-2.6299,-2.5986,-2.581,-2.5684,-2.5684,-2.5684,-2.5684,-2.5684,-2.5684,-2.5684,-2.5684,-2.5684,-2.5684,-2.5752,-2.5927,-2.6269,-2.6338,-2.6582,-2.6953,-2.6992,-2.7275,-2.7588,-2.7836,-2.7881,-2.8154,-2.8301,-2.8301,-2.8247,-2.7809,-2.7034,-2.6263,-2.5542,-2.477,-2.384,-2.3231,-2.2931,-2.2505,-2.2386,-2.1985,-2.1803,-2.1994,-2.2118,-2.2015,-2.1884,-2.1584,-2.1415,-2.1262,-2.1218,-2.1233,-2.1211,-2.1211,-2.1211,-2.1211,-2.1211,-2.1211,-2.1211,-2.1211,-2.1211,-2.1211,-2.1211,-2.1211,-2.1211,-2.1211,-2.1211,-2.1211,-2.1211,-2.1211,-2.1196,-2.1115,-2.1057,-2.1115,-2.1057,-2.113,-2.1101,-2.0984,-2.9994,-2.9994,-2.9994,-3.0077,-3.0201,-3.0077,-2.9994,-2.9994,-2.9994,-2.9994,-2.9994,-2.9994,-2.9994,-2.9994,-2.9994,-2.9942,-2.9774,-2.9931,-2.9931,-2.9774,-2.9889,-2.9889,-2.9774,-2.9617,-2.9406,-2.9142,-2.8983,-2.8973,-2.9003,-2.9513,-2.9993,-3.0243,-3.0135,-2.9698,-2.8856,-2.8018,-2.7549,-2.7666,-2.7256,-2.6797,-2.6758,-2.6416,-2.6055,-2.5752,-2.5732,-2.5684,-2.5684,-2.5684,-2.5684,-2.5684,-2.5684,-2.5693,-2.5781,-2.5888,-2.623,-2.6484,-2.6602,-2.7012,-2.7412,-2.7646,-2.79,-2.8027,-2.8066,-2.8115,-2.8281,-2.8301,-2.8301,-2.8184,-2.7755,-2.6808,-2.5461,-2.4706,-2.384,-2.2503,-2.1895,-2.2067,-2.1985,-2.2157,-2.2082,-2.2075,-2.2169,-2.2242,-2.2206,-2.2176,-2.1942,-2.1715,-2.1576,-2.1364,-2.132,-2.1247,-2.1218,-2.1211,-2.1211,-2.1211,-2.1211,-2.1211,-2.1211,-2.1211,-2.1211,-2.1211,-2.1211,-2.1211,-2.1211,-2.1211,-2.1211,-2.1211,-2.1211,-2.1211,-2.1211,-2.1203,-2.1211,-2.1211,-2.1181,-2.1174,-2.1145,-2.9994,-2.9994,-2.9994,-2.9994,-2.9994,-2.9994,-2.9994,-2.9994,-2.9994,-2.9994,-2.9994,-2.9994,-2.9994,-2.9994,-2.9994,-2.9879,-2.9659,-2.9774,-2.9827,-2.9606,-2.9617,-2.9617,-2.9554,-2.9353,-2.9089,-2.8781,-2.8717,-2.8717,-2.8781,-2.9099,-2.9452,-2.9688,-2.9682,-2.931,-2.8797,-2.8301,-2.7978,-2.8037,-2.7695,-2.75,-2.7324,-2.6973,-2.6494,-2.6201,-2.5918,-2.5684,-2.5684,-2.5684,-2.5693,-2.5713,-2.5713,-2.5781,-2.6006,-2.6211,-2.6543,-2.6816,-2.7226,-2.7588,-2.7891,-2.8047,-2.8193,-2.8242,-2.8301,-2.8301,-2.8301,-2.8301,-2.8301,-2.813,-2.7711,-2.6573,-2.5223,-2.446,-2.3456,-2.211,-2.1715,-2.1891,-2.1987,-2.2222,-2.2337,-2.2337,-2.2432,-2.2447,-2.244,-2.2374,-2.2301,-2.2096,-2.1906,-2.1708,-2.1511,-2.143,-2.1379,-2.1364,-2.1284,-2.124,-2.1225,-2.1211,-2.1211,-2.1211,-2.1211,-2.1211,-2.1211,-2.1211,-2.1211,-2.1211,-2.1211,-2.1211,-2.1211,-2.1211,-2.1211,-2.1211,-2.1211,-2.1211,-2.1211,-2.1211,-2.1211,-2.9994,-2.9994,-2.9994,-2.9994,-2.9994,-2.9994,-2.9994,-2.9994,-2.9994,-2.9994,-2.9994,-2.9994,-2.9994,-2.9994,-2.9994,-2.9827,-2.9606,-2.9606,-2.9554,-2.9448,-2.9343,-2.9343,-2.9237,-2.9036,-2.8781,-2.8621,-2.8568,-2.8558,-2.8684,-2.8834,-2.896,-2.9129,-2.9199,-2.899,-2.8708,-2.8455,-2.8271,-2.831,-2.8193,-2.8037,-2.7891,-2.749,-2.707,-2.6738,-2.6406,-2.6074,-2.5986,-2.5977,-2.5888,-2.5859,-2.583,-2.6084,-2.6269,-2.6416,-2.6973,-2.7562,-2.8018,-2.8135,-2.8203,-2.8281,-2.8291,-2.8301,-2.8301,-2.8301,-2.8301,-2.8301,-2.8301,-2.8179,-2.7787,-2.66,-2.5397,-2.4579,-2.3815,-2.2923,-2.2215,-2.2198,-2.2242,-2.2403,-2.2586,-2.271,-2.2871,-2.2915,-2.2871,-2.2798,-2.2615,-2.2557,-2.2403,-2.2323,-2.2103,-2.1781,-2.173,-2.1657,-2.1533,-2.1298,-2.1262,-2.1269,-2.1211,-2.1211,-2.1211,-2.1211,-2.1211,-2.1211,-2.1211,-2.1211,-2.1211,-2.1211,-2.1211,-2.1211,-2.1211,-2.1211,-2.1211,-2.1211,-2.1211,-2.1211,-2.1211,-2.9994,-2.9994,-2.9994,-2.9994,-2.9994,-2.9994,-2.9994,-2.9994,-2.9994,-2.9994,-2.9994,-2.9994,-2.9994,-2.9994,-2.9994,-2.9669,-2.9511,-2.9406,-2.9248,-2.9142,-2.9026,-2.9036,-2.894,-2.8781,-2.8568,-2.8461,-2.8354,-2.8354,-2.8461,-2.8568,-2.8824,-2.9089,-2.893,-2.8781,-2.8621,-2.8451,-2.8511,-2.8555,-2.8428,-2.8389,-2.835,-2.8018,-2.7617,-2.7207,-2.708,-2.6807,-2.665,-2.6562,-2.6553,-2.6582,-2.6611,-2.6758,-2.6787,-2.7119,-2.765,-2.8008,-2.8232,-2.8281,-2.8301,-2.8301,-2.8301,-2.8301,-2.8301,-2.8301,-2.8301,-2.8301,-2.8301,-2.8125,-2.793,-2.6884,-2.5761,-2.4853,-2.3885,-2.2968,-2.2478,-2.2506,-2.2564,-2.2681,-2.2849,-2.2915,-2.3084,-2.3084,-2.3069,-2.304,-2.2879,-2.2908,-2.2886,-2.2798,-2.2623,-2.2271,-2.2074,-2.2001,-2.173,-2.1474,-2.1393,-2.1386,-2.1284,-2.1211,-2.1211,-2.1211,-2.1211,-2.1211,-2.1211,-2.1211,-2.1211,-2.1211,-2.1211,-2.1211,-2.1211,-2.1211,-2.1211,-2.1211,-2.1211,-2.1211,-2.1211,-2.9994,-2.9994,-2.9994,-2.9994,-2.9994,-2.9994,-2.9994,-2.9994,-2.9994,-2.9994,-2.9994,-2.9994,-2.9994,-2.9994,-2.9879,-2.9564,-2.9185,-2.9142,-2.8993,-2.8877,-2.8761,-2.8771,-2.8674,-2.8621,-2.8451,-2.8344,-2.8301,-2.8301,-2.8344,-2.8514,-2.8781,-2.8708,-2.8674,-2.8621,-2.8514,-2.8417,-2.8462,-2.8535,-2.8584,-2.8545,-2.8516,-2.8516,-2.8164,-2.7832,-2.7822,-2.751,-2.7305,-2.7187,-2.7041,-2.7021,-2.7012,-2.7129,-2.7266,-2.7676,-2.793,-2.8252,-2.8281,-2.8301,-2.8301,-2.8301,-2.8301,-2.8301,-2.8301,-2.8301,-2.8301,-2.8301,-2.8301,-2.8233,-2.7901,-2.7373,-2.6246,-2.5103,-2.3932,-2.2793,-2.2804,-2.2806,-2.2901,-2.2988,-2.3047,-2.3076,-2.3106,-2.3106,-2.3106,-2.3106,-2.3098,-2.3054,-2.3032,-2.3003,-2.2842,-2.2586,-2.2418,-2.2337,-2.1979,-2.1642,-2.1576,-2.1467,-2.1298,-2.1211,-2.1211,-2.1211,-2.1211,-2.1211,-2.1211,-2.1211,-2.1211,-2.1211,-2.1211,-2.1211,-2.1211,-2.1211,-2.1211,-2.1211,-2.1211,-2.1211,-2.1211,-2.9994,-2.9994,-2.9994,-2.9994,-2.9994,-2.9994,-2.9994,-2.9994,-2.9994,-2.9994,-2.9942,-2.9942,-2.9889,-2.9774,-2.9617,-2.9343,-2.9036,-2.8887,-2.8781,-2.8674,-2.8504,-2.8451,-2.8514,-2.8451,-2.8344,-2.8291,-2.8301,-2.8291,-2.8344,-2.8461,-2.8514,-2.8344,-2.8514,-2.8514,-2.8398,-2.8344,-2.835,-2.8398,-2.8574,-2.8662,-2.875,-2.8838,-2.8887,-2.8652,-2.8232,-2.7783,-2.7637,-2.7412,-2.7119,-2.7129,-2.7197,-2.7412,-2.7715,-2.8008,-2.8213,-2.8281,-2.8291,-2.8301,-2.8301,-2.8301,-2.8301,-2.8301,-2.8301,-2.8301,-2.8301,-2.8301,-2.8301,-2.832,-2.8077,-2.7269,-2.6165,-2.5561,-2.4627,-2.3489,-2.2977,-2.2974,-2.301,-2.3069,-2.3076,-2.3106,-2.3106,-2.3106,-2.3106,-2.3106,-2.3106,-2.3106,-2.3106,-2.3106,-2.3025,-2.2813,-2.2732,-2.2623,-2.2206,-2.1847,-2.1723,-2.1576,-2.1306,-2.1211,-2.1211,-2.1211,-2.1211,-2.1211,-2.1211,-2.1211,-2.1211,-2.1211,-2.1211,-2.1211,-2.1211,-2.1211,-2.1211,-2.1211,-2.1211,-2.1211,-2.1211,-2.9994,-2.9994,-2.9994,-2.9994,-2.9994,-2.9994,-2.9994,-2.9994,-2.9994,-2.9879,-2.9711,-2.9659,-2.9554,-2.9396,-2.929,-2.9079,-2.8834,-2.8737,-2.8568,-2.8461,-2.8291,-2.8344,-2.8408,-2.8344,-2.8301,-2.8301,-2.8301,-2.8301,-2.8291,-2.8354,-2.8408,-2.8291,-2.8408,-2.8354,-2.8291,-2.8301,-2.8301,-2.831,-2.8398,-2.8516,-2.8525,-2.8721,-2.8799,-2.8662,-2.833,-2.834,-2.8213,-2.8037,-2.7959,-2.7988,-2.7988,-2.8057,-2.8144,-2.8252,-2.8291,-2.8301,-2.8301,-2.8301,-2.8301,-2.8301,-2.8301,-2.8301,-2.8301,-2.8301,-2.8301,-2.8301,-2.8335,-2.8348,-2.8036,-2.718,-2.6342,-2.5964,-2.5319,-2.4163,-2.3106,-2.3106,-2.3106,-2.3106,-2.3106,-2.3106,-2.3106,-2.3106,-2.3106,-2.3106,-2.3106,-2.3106,-2.3106,-2.3106,-2.3106,-2.2988,-2.2967,-2.2813,-2.2389,-2.2081,-2.192,-2.162,-2.1313,-2.1211,-2.1211,-2.1211,-2.1211,-2.1211,-2.1211,-2.1211,-2.1211,-2.1211,-2.1211,-2.1211,-2.1211,-2.1211,-2.1211,-2.1211,-2.1211,-2.1211,-2.1211,-2.9994,-2.9994,-2.9994,-2.9931,-2.9879,-2.9942,-2.9994,-2.9994,-2.9994,-2.9774,-2.9448,-2.9501,-2.9396,-2.9079,-2.8983,-2.8877,-2.8684,-2.8568,-2.8461,-2.8344,-2.8301,-2.8291,-2.8301,-2.8301,-2.8301,-2.8301,-2.8301,-2.8301,-2.8301,-2.8301,-2.8301,-2.8301,-2.8301,-2.8301,-2.8301,-2.8301,-2.8301,-2.8301,-2.8301,-2.8301,-2.833,-2.8603,-2.8818,-2.8711,-2.8711,-2.8721,-2.8623,-2.8437,-2.8291,-2.8281,-2.8242,-2.8242,-2.8252,-2.8281,-2.8291,-2.8301,-2.8301,-2.8301,-2.832,-2.835,-2.8359,-2.8369,-2.832,-2.833,-2.8359,-2.8398,-2.8633,-2.8694,-2.8839,-2.8107,-2.7055,-2.644,-2.5388,-2.427,-2.3604,-2.3355,-2.323,-2.3106,-2.3106,-2.3106,-2.3106,-2.3106,-2.3106,-2.3106,-2.3106,-2.3106,-2.3106,-2.3106,-2.3106,-2.3106,-2.3106,-2.2981,-2.255,-2.2257,-2.2074,-2.1693,-2.1262,-2.1211,-2.1233,-2.1211,-2.1211,-2.1211,-2.1211,-2.1211,-2.1211,-2.1211,-2.1211,-2.1211,-2.1211,-2.1211,-2.1211,-2.1211,-2.1211,-2.1225,-2.1254,-2.9994,-2.9942,-2.9942,-2.9827,-2.9659,-2.9827,-2.9942,-2.9994,-2.9931,-2.9617,-2.9185,-2.9343,-2.9248,-2.8983,-2.8781,-2.8727,-2.8578,-2.8461,-2.8344,-2.8291,-2.8291,-2.8301,-2.8301,-2.8301,-2.8301,-2.8301,-2.8301,-2.8301,-2.8301,-2.8301,-2.8301,-2.8301,-2.8301,-2.8301,-2.8301,-2.8301,-2.8301,-2.8301,-2.8301,-2.8301,-2.8447,-2.8633,-2.8711,-2.8789,-2.8838,-2.8838,-2.8711,-2.8555,-2.832,-2.8301,-2.8301,-2.8301,-2.8301,-2.8301,-2.8398,-2.8408,-2.8476,-2.8516,-2.8555,-2.8623,-2.8584,-2.8525,-2.8447,-2.8476,-2.8564,-2.8769,-2.9004,-2.9124,-2.9317,-2.8883,-2.7817,-2.6918,-2.5769,-2.4533,-2.3976,-2.3417,-2.323,-2.3106,-2.3106,-2.3106,-2.3106,-2.3106,-2.3106,-2.3106,-2.3106,-2.3106,-2.3106,-2.3106,-2.3106,-2.3106,-2.3106,-2.2959,-2.2659,-2.241,-2.2257,-2.1811,-2.1342,-2.1313,-2.1335,-2.1262,-2.1211,-2.1211,-2.1211,-2.1211,-2.1211,-2.1211,-2.1211,-2.1211,-2.1211,-2.1211,-2.1211,-2.1218,-2.1254,-2.1269,-2.132,-2.9879,-2.9669,-2.9659,-2.9659,-2.9606,-2.9669,-2.9774,-2.9942,-2.9774,-2.9448,-2.9142,-2.8887,-2.8727,-2.8451,-2.8398,-2.8408,-2.8408,-2.8291,-2.8291,-2.8291,-2.8369,-2.834,-2.8379,-2.8516,-2.834,-2.8379,-2.8437,-2.833,-2.8535,-2.8447,-2.833,-2.8389,-2.8359,-2.835,-2.834,-2.835,-2.8389,-2.8418,-2.8398,-2.8379,-2.8379,-2.8457,-2.8389,-2.8408,-2.8418,-2.8418,-2.8379,-2.834,-2.8301,-2.8301,-2.8301,-2.8301,-2.832,-2.8359,-2.8496,-2.8682,-2.874,-2.8945,-2.9023,-2.9101,-2.9092,-2.9131,-2.9121,-2.916,-2.9316,-2.9551,-2.9726,-2.9748,-2.9747,-2.9277,-2.84,-2.7917,-2.6952,-2.5133,-2.4092,-2.3534,-2.3106,-2.3106,-2.3106,-2.3106,-2.3106,-2.3106,-2.3106,-2.3106,-2.3106,-2.3106,-2.3106,-2.3106,-2.3106,-2.3106,-2.3106,-2.2937,-2.2747,-2.2652,-2.252,-2.1964,-2.1554,-2.1503,-2.1401,-2.1276,-2.1211,-2.1211,-2.1211,-2.1211,-2.1211,-2.1211,-2.1211,-2.1211,-2.1211,-2.1211,-2.1211,-2.1225,-2.1269,-2.1364,-2.1445]},{"header":{"parameterUnit":"m.s-1","parameterCategory":1,"la1":31.0,"la2":29.5877,"lo1":-88.7671,"lo2":-86.6584,"dy":0.0162,"dx":0.0185,"nx":115,"ny":88,"refTime":"2026-05-14T12:00:00:Z","depth":0,"parameterNumber":3,"parameterNumberName":"V-component_of_WINDS"},"data":[0.0,0.0,0.0,0.0,0.0,0.0,0.0,0.0,0.0,0.0,0.0,0.0,0.0,0.0,0.0,0.0,0.0,0.0,0.0,0.0,0.0,0.0,0.0,0.0,0.0,0.0,0.0,0.0,0.0,0.0,0.0,0.0,0.0,0.0,0.0,0.0,0.0,0.0,0.0,0.0,0.0,0.0,0.0,0.0,0.0,0.0,0.0,0.0,0.0,0.0,0.0,0.0,0.0,0.0,0.0,0.0,0.0,0.0,0.0,0.0,0.0,0.0,0.0,0.0,0.0,0.0,0.0,0.0,0.0,0.0,0.0,0.0,0.0,0.0,0.0,0.0,0.0,0.0,0.0,0.0,0.0,0.0,0.0,0.0,0.0,0.0,0.0,0.0,0.0,0.0,0.0,0.0,0.0,0.0,0.0,0.0,0.0,0.0,0.0,0.0,0.0,0.0,0.0,0.0,0.0,0.0,0.0,0.0,0.0,0.0,0.0,0.0,0.0,0.0,0.0,0.0,0.0,0.0,0.0,0.0,0.0,0.0,0.0,0.0,0.0,0.0,0.0,0.0,0.0,0.0,0.0,0.0,0.0,0.0,0.0,0.0,0.0,0.0,0.0,0.0,0.0,0.0,0.0,0.0,0.0,0.0,0.0,0.0,0.0,0.0,0.0,0.0,0.0,0.0,0.0,0.0,0.0,0.0,0.0,0.0,0.0,0.0,0.0,0.0,0.0,0.0,0.0,0.0,0.0,0.0,0.0,0.0,0.0,0.0,0.0,0.0,0.0,0.0,0.0,0.0,0.0,0.0,0.0,0.0,0.0,0.0,0.0,0.0,0.0,0.0,0.0,0.0,0.0,0.0,0.0,0.0,0.0,0.0,0.0,0.0,0.0,0.0,0.0,0.0,0.0,0.0,0.0,0.0,0.0,0.0,0.0,0.0,0.0,0.0,0.0,0.0,0.0,0.0,0.0,0.0,0.0,0.0,0.0,0.0,0.0,0.0,0.0,0.0,0.0,0.0,0.0,0.0,0.0,0.0,0.0,0.0,0.0,0.0,0.0,0.0,0.0,0.0,0.0,0.0,0.0,0.0,0.0,0.0,0.0,0.0,0.0,0.0,0.0,0.0,0.0,0.0,0.0,0.0,0.0,0.0,0.0,0.0,0.0,0.0,0.0,0.0,0.0,0.0,0.0,0.0,0.0,0.0,0.0,0.0,0.0,0.0,0.0,0.0,0.0,0.0,0.0,0.0,0.0,0.0,0.0,0.0,0.0,0.0,0.0,0.0,0.0,0.0,0.0,0.0,0.0,0.0,0.0,0.0,0.0,0.0,0.0,0.0,0.0,0.0,0.0,0.0,0.0,0.0,0.0,0.0,0.0,0.0,0.0,0.0,0.0,0.0,0.0,0.0,0.0,0.0,0.0,0.0,0.0,0.0,0.0,0.0,0.0,0.0,0.0,0.0,0.0,0.0,0.0,0.0,0.0,0.0,0.0,0.0,0.0,0.0,0.0,0.0,0.0,0.0,0.0,0.0,0.0,0.0,0.0,0.0,0.0,0.0,0.0,0.0,0.0,0.0,0.0,0.0,0.0,0.0,0.0,0.0,0.0,0.0,0.0,0.0,0.0,0.0,0.0,0.0,0.0,0.0,0.0,0.0,0.0,0.0,0.0,0.0,0.0,0.0,0.0,0.0,0.0,0.0,0.0,0.0,0.0,0.0,0.0,0.0,0.0,0.0,0.0,0.0,0.0,0.0,0.0,0.0,0.0,0.0,0.0,0.0,0.0,0.0,0.0,0.0,0.0,0.0,0.0,0.0,0.0,0.0,0.0,0.0,0.0,0.0,0.0,0.0,0.0,0.0,0.0,0.0,0.0,0.0,0.0,0.0,0.0,0.0,0.0,0.0,0.0,0.0,0.0,0.0,0.0,0.0,0.0,0.0,0.0,0.0,0.0,0.0,0.0,0.0,0.0,0.0,0.0,0.0,0.0,0.0,0.0,0.0,0.0,0.0,0.0,0.0,0.0,0.0,0.0,0.0,0.0,0.0,0.0,0.0,0.0,0.0,0.0,0.0,0.0,0.0,0.0,0.0,0.0,0.0,0.0,0.0,0.0,0.0,0.0,0.0,0.0,0.0,0.0,0.0,0.0,0.0,0.0,0.0,0.0,0.0,0.0,0.0,0.0,0.0,0.0,0.0,0.0,0.0,0.0,0.0,0.0,0.0,0.0,0.0,0.0,0.0,0.0,0.0,0.0,0.0,0.0,0.0,0.0,0.0,0.0,0.0,0.0,0.0,0.0,0.0,0.0,0.0,0.0,0.0,0.0,0.0,0.0,0.0,0.0,0.0,0.0,0.0,0.0,0.0,0.0,0.0,0.0,0.0,0.0,0.0,0.0,0.0,0.0,0.0,0.0,0.0,0.0,0.0,0.0,0.0,0.0,0.0,0.0,0.0,0.0,0.0,0.0,0.0,0.0,0.0,0.0,0.0,0.0,0.0,0.0,0.0,0.0,0.0,0.0,0.0,0.0,0.0,0.0,0.0,0.0,0.0,0.0,0.0,0.0,0.0,0.0,0.0,0.0,0.0,0.0,0.0,0.0,0.0,0.0,0.0,0.0,0.0,0.0,0.0,0.0,0.0,0.0,0.0,0.0,0.0,0.0,0.0,0.0,0.0,0.0,0.0,0.0,0.0,0.0,0.0,0.0,0.0,0.0,0.0,0.0,0.0,0.0,0.0,0.0,0.0,0.0,0.0,0.0,0.0,0.0,0.0,0.0,0.0,0.0,0.0,0.0,0.0,0.0,0.0,0.0,0.0,0.0,0.0,0.0,0.0,0.0,0.0,0.0,0.0,0.0,0.0,0.0,0.0,0.0,0.0,0.0,0.0,0.0,0.0,0.0,0.0,0.0,0.0,0.0,0.0,0.0,0.0,0.0,0.0,0.0,0.0,0.0,0.0,0.0,0.0,0.0,0.0,0.0,0.0,0.0,0.0,0.0,0.0,0.0,0.0,0.0,0.0,0.0,0.0,0.0,0.0,0.0,0.0,0.0,0.0,0.0,0.0,0.0,0.0,0.0,0.0,0.0,0.0,0.0,0.0,0.0,0.0,0.0,0.0,0.0,0.0,0.0,0.0,0.0,0.0,0.0,0.0,0.0,0.0,0.0,0.0,0.0,0.0,0.0,0.0,0.0,0.0,0.0,0.0,0.0,0.0,0.0,0.0,0.0,0.0,0.0,0.0,0.0,0.0,0.0,0.0,0.0,0.0,0.0,0.0,0.0,0.0,0.0,0.0,0.0,0.0,0.0,0.0,0.0,0.0,0.0,0.0,0.0,0.0,0.0,0.0,0.0,0.0,0.0,0.0,0.0,0.0,0.0,0.0,0.0,0.0,0.0,0.0,0.0,0.0,0.0,0.0,0.0,0.0,0.0,0.0,0.0,0.0,0.0,0.0,0.0,0.0,0.0,0.0,0.0,0.0,0.0,0.0,0.0,0.0,0.0,0.0,0.0,0.0,0.0,0.0,0.0,0.0,0.0,0.0,0.0,0.0,0.0,0.0,0.0,0.0,0.0,0.0,0.0,0.0,0.0,0.0,0.0,0.0,0.0,0.0,0.0,0.0,0.0,0.0,0.0,0.0,0.0,0.0,0.0,0.0,0.0,0.0,0.0,0.0,0.0,0.0,0.0,0.0,0.0,0.0,0.0,0.0,0.0,0.0,0.0,0.0,0.0,0.0,0.0,0.0,0.0,0.0,0.0,0.0,0.0,0.0,0.0,0.0,0.0,0.0,0.0,0.0,0.0,0.0,0.0,0.0,0.0,0.0,0.0,0.0,0.0,0.0,0.0,0.0,0.0,0.0,0.0,0.0,0.0,0.0,0.0,0.0,0.0,0.0,0.0,0.0,0.0,0.0,0.0,0.0,0.0,0.0,0.0,0.0,0.0,0.0,0.0,0.0,0.0,0.0,0.0,0.0,0.0,0.0,0.0,0.0,0.0,0.0,0.0,0.0,0.0,0.0,0.0,0.0,0.0,0.0,0.0,0.0,0.0,0.0,0.0,0.0,0.0,0.0,0.0,0.0,0.0,0.0,0.0,0.0,0.0,0.0,0.0,0.0,0.0,0.0,0.0,0.0,0.0,0.0,0.0,0.0,0.0,0.0,0.0,0.0,0.0,0.0,0.0,0.0,0.0,0.0,0.0,0.0,0.0,0.0,0.0,0.0,0.0,0.0,0.0,0.0,0.0,0.0,0.0,0.0,0.0,0.0,0.0,0.0,1.4504,0.0,0.0,0.0,0.0,0.0,0.0,0.0,0.0,0.0,0.0,0.0,0.0,0.0,0.0,0.0,0.0,0.0,0.0,0.0,0.0,0.0,0.0,0.0,0.0,0.0,0.0,0.0,0.0,0.0,0.0,0.0,0.0,0.0,0.0,0.0,0.0,0.0,0.0,0.0,0.0,0.0,0.0,0.0,0.0,0.0,0.0,0.0,0.0,0.0,0.0,0.0,0.0,0.0,0.0,0.0,0.0,0.0,0.0,0.0,0.0,0.0,0.0,0.0,0.0,0.0,0.0,0.0,0.0,0.0,0.0,0.0,0.0,0.0,0.0,0.0,0.0,0.0,0.0,0.0,0.0,0.0,0.0,0.0,0.0,0.0,0.0,0.0,0.0,0.0,0.0,0.0,0.0,0.0,0.0,0.0,0.0,0.0,0.0,0.0,0.0,0.0,0.0,0.0,0.0,0.0,0.0,0.0,0.0,0.0,0.0,1.5798,1.7202,1.6255,1.5697,1.5697,0.0,0.0,0.0,0.0,0.0,0.0,0.0,0.0,0.0,0.0,0.0,0.0,0.0,0.0,0.0,0.0,0.0,0.0,0.0,0.0,0.0,0.0,0.0,0.0,0.0,0.0,0.0,0.0,0.0,0.0,0.0,0.0,0.0,0.0,0.0,0.0,0.0,0.0,0.0,0.0,0.0,0.0,0.0,0.0,0.0,0.0,0.0,0.0,0.0,0.0,0.0,0.0,0.0,0.0,0.0,0.0,0.0,0.0,0.0,0.0,0.0,0.0,0.0,0.0,0.0,0.0,0.0,0.0,0.0,0.0,0.0,0.0,0.0,0.0,0.0,0.0,0.0,0.0,0.0,0.0,0.0,0.0,0.0,0.0,0.0,0.0,0.0,0.0,0.0,0.0,0.0,0.0,0.0,0.0,0.0,0.0,0.0,0.0,0.0,0.0,0.0,0.0,0.0,0.0,0.0,0.0,0.0,0.0,0.0,0.0,0.0,0.0,1.6982,1.6621,1.6451,0.0,0.0,0.0,0.0,0.0,0.0,0.0,0.0,0.0,0.0,0.0,0.0,0.0,0.0,0.0,0.0,0.0,0.0,0.0,0.0,0.0,0.0,0.0,0.0,0.0,0.0,0.0,0.0,0.0,0.0,0.0,0.0,0.0,0.0,0.0,0.0,0.0,0.0,0.0,0.0,0.0,0.0,0.0,0.0,0.0,0.0,0.0,0.0,0.0,0.0,0.0,0.0,0.0,0.0,0.0,0.0,0.0,0.0,0.0,0.0,0.0,0.0,0.0,0.0,0.0,0.0,0.0,0.0,0.0,0.0,0.0,0.0,0.0,0.0,0.0,0.0,0.0,0.0,0.0,0.0,0.0,0.0,0.0,0.0,0.0,0.0,0.0,0.0,0.0,0.0,0.0,0.0,0.0,0.0,0.0,0.0,0.0,0.0,0.0,0.0,0.0,0.0,0.0,0.0,0.0,0.0,0.0,0.0,0.0,0.0,1.5977,1.6773,1.6749,0.0,1.5723,0.0,0.0,0.0,0.0,0.0,0.0,0.0,0.0,0.0,0.0,0.0,0.0,0.0,0.0,0.0,0.0,0.0,0.0,0.0,0.0,0.0,0.0,0.0,0.0,0.0,0.0,0.0,0.0,0.0,0.0,0.0,0.0,0.0,0.0,0.0,0.0,0.0,0.0,0.0,0.0,0.0,0.0,0.0,0.0,0.0,0.0,0.0,0.0,0.0,0.0,0.0,0.0,0.0,0.0,0.0,0.0,0.0,0.0,0.0,0.0,0.0,0.0,0.0,0.0,0.0,0.0,0.0,0.0,0.0,0.0,0.0,0.0,0.0,0.0,0.0,0.0,0.0,0.0,0.0,0.0,0.0,0.0,0.0,0.0,0.0,0.0,0.0,0.0,0.0,0.0,0.0,0.0,0.0,0.0,0.0,0.0,0.0,0.0,0.0,0.0,0.0,0.0,0.0,0.0,0.0,0.0,0.0,0.0,0.0,0.0,0.0,1.732,1.7354,1.701,0.0,0.0,0.0,0.0,0.0,0.0,0.0,0.0,0.0,0.0,0.0,0.0,0.0,0.0,0.0,0.0,0.0,0.0,0.0,0.0,0.0,0.0,0.0,0.0,0.0,0.0,0.0,0.0,0.0,0.0,0.0,0.0,0.0,0.0,0.0,0.0,0.0,0.0,0.0,0.0,0.0,0.0,0.0,0.0,0.0,0.0,0.0,0.0,0.0,0.0,0.0,0.0,0.0,0.0,0.0,0.0,0.0,0.0,0.0,0.0,0.0,0.0,0.0,0.0,0.0,0.0,0.0,0.0,0.0,0.0,0.0,0.0,0.0,0.0,0.0,0.0,0.0,0.0,0.0,0.0,0.0,0.0,0.0,0.0,0.0,0.0,0.0,0.0,0.0,0.0,0.0,0.0,0.0,0.0,0.0,0.0,0.0,0.0,0.0,0.0,0.0,0.0,0.0,0.0,0.0,0.0,0.0,0.0,0.0,0.0,1.5105,0.0,1.7681,1.7422,1.6942,1.6428,0.0,0.0,0.0,0.0,0.0,0.0,0.0,0.0,0.0,0.0,0.0,0.0,0.0,0.0,0.0,0.0,0.0,0.0,0.0,0.0,0.0,0.0,0.0,0.0,0.0,0.0,0.0,0.0,0.0,0.0,0.0,0.0,0.0,0.0,0.0,0.0,0.0,0.0,0.0,0.0,0.0,0.0,0.0,0.0,0.0,0.0,0.0,0.0,0.0,0.0,0.0,0.0,0.0,0.0,0.0,0.0,0.0,0.0,0.0,0.0,0.0,0.0,0.0,0.0,0.0,0.0,0.0,0.0,0.0,0.0,0.0,0.0,0.0,0.0,0.0,0.0,0.0,0.0,0.0,0.0,0.0,0.0,0.0,0.0,0.0,0.0,0.0,0.0,0.0,0.0,0.0,0.0,0.0,0.0,0.0,0.0,0.0,0.0,0.0,0.0,0.0,0.0,0.0,0.0,0.0,0.0,0.0,0.0,0.0,1.486,1.6306,1.7665,1.6441,1.568,0.0,0.0,0.0,0.0,0.0,0.0,0.0,0.0,0.0,0.0,0.0,0.0,0.0,0.0,0.0,0.0,0.0,0.0,0.0,0.0,0.0,0.0,0.0,0.0,0.0,0.0,0.0,0.0,0.0,0.0,0.0,0.0,0.0,0.0,0.0,0.0,0.0,0.0,0.0,0.0,0.0,0.0,0.0,0.0,0.0,0.0,0.0,0.0,0.0,0.0,0.0,0.0,0.0,0.0,0.0,0.0,0.0,0.0,0.0,0.0,0.0,0.0,0.0,0.0,0.0,0.0,0.0,0.0,0.0,0.0,0.0,0.0,0.0,0.0,0.0,0.0,0.0,0.0,0.0,0.0,0.0,0.0,0.0,0.0,0.0,0.0,0.0,0.0,0.0,0.0,0.0,0.0,0.0,0.0,0.0,0.0,0.0,0.0,0.0,0.0,0.0,0.0,0.0,0.0,0.0,0.0,0.0,0.0,0.0,1.3464,1.4843,1.5849,1.6339,1.5866,1.5392,0.0,0.0,0.0,0.0,0.0,0.0,0.0,0.0,0.0,0.0,0.0,0.0,0.0,0.0,0.0,0.0,0.0,0.0,0.0,0.0,0.0,0.0,0.0,0.0,0.0,0.0,0.0,0.0,0.0,0.0,0.0,0.0,0.0,0.0,0.0,0.0,0.0,0.0,0.0,0.0,0.0,0.0,0.0,0.0,0.0,0.0,0.0,0.0,0.0,0.0,0.0,0.0,0.0,0.0,0.0,0.0,0.0,0.0,0.0,0.0,0.0,0.0,0.0,0.0,0.0,0.0,0.0,0.0,0.0,0.0,0.0,0.0,0.0,0.0,0.0,0.0,0.0,0.0,0.0,0.0,0.0,0.0,0.0,0.0,0.0,0.0,0.0,0.0,0.0,0.0,0.0,0.0,0.0,0.0,0.0,0.0,0.0,0.0,0.0,0.0,0.0,0.0,0.0,0.0,0.0,0.0,0.0,0.0,0.0,1.448,0.0,1.6079,0.0,1.5832,1.5385,0.0,0.0,0.0,0.0,0.0,0.0,0.0,0.0,0.0,0.0,0.0,0.0,0.0,0.0,0.0,0.0,0.0,0.0,0.0,0.0,0.0,0.0,0.0,0.0,0.0,0.0,0.0,0.0,0.0,0.0,0.0,0.0,0.0,0.0,0.0,0.0,0.0,0.0,0.0,0.0,0.0,0.0,0.0,0.0,0.0,0.0,0.0,0.0,0.0,0.0,0.0,0.0,0.0,0.0,0.0,0.0,0.0,0.0,0.0,0.0,0.0,0.0,0.0,0.0,0.0,0.0,0.0,0.0,0.0,0.0,0.0,0.0,0.0,0.0,0.0,0.0,0.0,0.0,0.0,0.0,0.0,0.0,0.0,0.0,0.0,0.0,0.0,0.0,0.0,0.0,0.0,0.0,0.0,0.0,0.0,0.0,0.0,0.0,0.0,0.0,0.0,0.0,0.0,0.0,0.0,0.0,0.0,0.0,1.524,1.6587,1.6699,1.7044,1.7698,1.6339,1.5632,0.0,0.0,0.0,0.0,0.0,0.0,0.0,0.0,0.0,0.0,0.0,0.0,0.0,0.0,0.0,0.0,0.0,0.0,0.0,0.0,0.0,0.0,0.0,0.0,0.0,0.0,0.0,0.0,0.0,0.0,0.0,0.0,0.0,0.0,0.0,0.0,0.0,0.0,0.0,0.0,0.0,0.0,0.0,0.0,0.0,0.0,0.0,0.0,0.0,0.0,0.0,0.0,0.0,0.0,0.0,0.0,0.0,0.0,0.0,0.0,0.0,0.0,0.0,0.0,0.0,0.0,0.0,0.0,0.0,0.0,0.0,0.0,0.0,0.0,0.0,0.0,0.0,0.0,0.0,0.0,0.0,0.0,0.0,0.0,0.0,0.0,0.0,0.0,0.0,0.0,0.0,0.0,0.0,0.0,0.0,0.0,0.0,0.0,0.0,0.0,0.0,0.0,0.0,0.0,0.0,0.0,0.0,0.0,0.0,1.6733,1.7687,1.7839,1.7061,1.6086,1.5625,0.0,0.0,0.0,0.0,0.0,0.0,0.0,0.0,0.0,0.0,0.0,0.0,0.0,0.0,0.0,0.0,0.0,0.0,0.0,0.0,0.0,0.0,0.0,0.0,0.0,0.0,0.0,0.0,0.0,0.0,0.0,0.0,0.0,0.0,0.0,0.0,0.0,0.0,0.0,0.0,0.0,0.0,0.0,0.0,0.0,0.0,0.0,0.0,0.0,0.0,0.0,0.0,0.0,0.0,0.0,0.0,0.0,0.0,0.0,0.0,0.0,0.0,0.0,0.0,0.0,0.0,0.0,0.0,0.0,0.0,0.0,0.0,0.0,0.0,0.0,0.0,0.0,0.0,0.0,0.0,0.0,0.0,0.0,0.0,0.0,0.0,0.0,0.0,0.0,0.0,0.0,0.0,0.0,0.0,0.0,0.0,0.0,0.0,0.0,0.0,0.0,0.0,0.0,0.0,0.0,0.0,0.0,0.0,0.0,1.921,1.9836,1.9599,1.8415,1.7382,1.6737,1.6557,0.0,0.0,0.0,0.0,0.0,0.0,0.0,0.0,0.0,0.0,0.0,0.0,0.0,0.0,0.0,0.0,0.0,0.0,0.0,0.0,0.0,0.0,0.0,0.0,0.0,0.0,0.0,0.0,0.0,0.0,0.0,0.0,0.0,0.0,0.0,0.0,0.0,0.0,0.0,0.0,0.0,0.0,0.0,0.0,0.0,0.0,0.0,0.0,0.0,0.0,0.0,0.0,0.0,0.0,0.0,0.0,0.0,0.0,0.0,0.0,0.0,0.0,0.0,0.0,0.0,0.0,0.0,0.0,0.0,0.0,0.0,0.0,0.0,0.0,0.0,0.0,0.0,0.0,0.0,0.0,0.0,0.0,0.0,0.0,0.0,0.0,0.0,0.0,0.0,0.0,0.0,0.0,0.0,0.0,0.0,0.0,0.0,0.0,0.0,0.0,0.0,0.0,0.0,0.0,0.0,0.0,0.0,0.0,2.3477,2.297,2.2243,2.1309,1.9853,1.8749,0.0,0.0,0.0,0.0,0.0,0.0,0.0,0.0,0.0,0.0,0.0,0.0,0.0,0.0,0.0,0.0,0.0,0.0,0.0,0.0,0.0,0.0,0.0,0.0,0.0,0.0,0.0,0.0,0.0,0.0,0.0,0.0,0.0,0.0,0.0,0.0,0.0,0.0,0.0,0.0,0.0,0.0,0.0,0.0,0.0,0.0,0.0,0.0,0.0,0.0,0.0,0.0,0.0,0.0,0.0,0.0,0.0,0.0,0.0,0.0,0.0,0.0,0.0,0.0,0.0,0.0,0.0,0.0,0.0,0.0,0.0,0.0,0.0,0.0,0.0,0.0,0.0,0.0,0.0,0.0,0.0,0.0,0.0,0.0,0.0,0.0,0.0,0.0,0.0,0.0,0.0,0.0,0.0,0.0,0.0,0.0,0.0,0.0,0.0,0.0,0.0,0.0,0.0,0.0,0.0,0.0,0.0,0.0,0.0,2.4966,2.6454,2.5828,2.2919,2.1921,2.0603,0.0,0.0,0.0,0.0,0.0,0.0,0.0,0.0,0.0,0.0,0.0,0.0,0.0,0.0,0.0,0.0,0.0,0.0,0.0,0.0,0.0,0.0,0.0,0.0,0.0,0.0,0.0,0.0,0.0,0.0,0.0,0.0,0.0,0.0,0.0,0.0,0.0,0.0,0.0,0.0,0.0,0.0,0.0,0.0,0.0,0.0,0.0,0.0,0.0,0.0,0.0,0.0,0.0,0.0,0.0,0.0,0.0,0.0,0.0,0.0,0.0,0.0,0.0,0.0,0.0,0.0,0.0,0.0,0.0,0.0,0.0,0.0,0.0,0.0,0.0,0.0,0.0,0.0,0.0,0.0,0.0,0.0,0.0,0.0,0.0,0.0,0.0,0.0,0.0,0.0,0.0,0.0,0.0,0.0,0.0,0.0,0.0,0.0,0.0,0.0,0.0,0.0,0.0,0.0,0.0,0.0,0.0,0.0,2.368,2.6471,2.845,2.8281,2.5811,2.4103,2.2231,0.0,0.0,0.0,0.0,0.0,0.0,0.0,0.0,0.0,0.0,0.0,0.0,0.0,0.0,0.0,0.0,0.0,0.0,0.0,0.0,0.0,0.0,0.0,0.0,0.0,0.0,0.0,0.0,0.0,0.0,0.0,0.0,0.0,0.0,0.0,0.0,0.0,0.0,0.0,0.0,0.0,0.0,0.0,0.0,0.0,0.0,0.0,0.0,0.0,0.0,0.0,0.0,0.0,0.0,0.0,0.0,0.0,0.0,0.0,0.0,0.0,0.0,0.0,0.0,0.0,0.0,0.0,0.0,0.0,0.0,0.0,0.0,0.0,0.0,0.0,0.0,0.0,0.0,0.0,0.0,0.0,0.0,0.0,0.0,0.0,0.0,0.0,0.0,0.0,0.0,0.0,0.0,0.0,0.0,0.0,0.0,0.0,0.0,0.0,0.0,0.0,0.0,0.0,0.0,0.0,0.0,0.0,0.0,2.4308,2.7722,2.9379,2.9854,2.9077,2.6336,2.3805,0.0,0.0,0.0,0.0,0.0,0.0,0.0,0.0,0.0,0.0,0.0,0.0,0.0,0.0,0.0,0.0,0.0,0.0,0.0,0.0,0.0,0.0,0.0,0.0,0.0,0.0,0.0,0.0,0.0,0.0,0.0,0.0,0.0,0.0,0.0,0.0,0.0,0.0,0.0,0.0,0.0,0.0,0.0,0.0,0.0,0.0,0.0,0.0,0.0,0.0,0.0,0.0,0.0,0.0,0.0,0.0,0.0,0.0,0.0,0.0,0.0,0.0,0.0,0.0,0.0,0.0,0.0,0.0,0.0,0.0,0.0,0.0,0.0,0.0,0.0,0.0,0.0,0.0,0.0,0.0,0.0,0.0,0.0,0.0,0.0,0.0,0.0,0.0,0.0,0.0,0.0,0.0,0.0,0.0,0.0,0.0,0.0,0.0,0.0,0.0,0.0,0.0,0.0,0.0,0.0,0.0,0.0,0.0,2.5829,2.7773,2.9871,3.0615,2.9871,2.806,2.5843,0.0,0.0,0.0,0.0,0.0,0.0,0.0,0.0,0.0,0.0,0.0,0.0,0.0,0.0,0.0,0.0,0.0,0.0,0.0,0.0,0.0,0.0,0.0,0.0,0.0,0.0,0.0,0.0,0.0,0.0,0.0,0.0,0.0,0.0,0.0,0.0,0.0,0.0,0.0,0.0,0.0,0.0,0.0,0.0,0.0,0.0,0.0,0.0,1.5207,0.0,0.0,0.0,0.0,0.0,0.0,0.0,0.0,0.0,0.0,0.0,0.0,0.0,0.0,0.0,0.0,0.0,0.0,0.0,0.0,0.0,0.0,0.0,0.0,0.0,0.0,0.0,0.0,0.0,0.0,0.0,0.0,0.0,0.0,0.0,0.0,0.0,0.0,0.0,0.0,0.0,0.0,0.0,0.0,0.0,0.0,0.0,0.0,0.0,0.0,0.0,0.0,0.0,0.0,0.0,0.0,0.0,0.0,0.0,2.7012,2.8838,3.0395,3.1004,3.0598,2.9161,2.7046,0.0,0.0,0.0,0.0,0.0,0.0,0.0,0.0,0.0,0.0,0.0,0.0,0.0,0.0,0.0,0.0,0.0,0.0,0.0,0.0,0.0,0.0,0.0,0.0,0.0,0.0,0.0,0.0,0.0,0.0,0.0,0.0,0.0,0.0,0.0,0.0,0.0,0.0,0.0,0.0,0.0,0.0,0.0,0.0,0.0,0.0,0.0,0.0,0.0,0.0,0.0,0.0,0.0,0.0,0.0,0.0,0.0,0.0,0.0,0.0,0.0,0.0,0.0,0.0,0.0,0.0,0.0,0.0,0.0,0.0,0.0,0.0,0.0,0.0,0.0,0.0,0.0,0.0,0.0,0.0,0.0,0.0,0.0,0.0,0.0,0.0,0.0,0.0,0.0,0.0,0.0,0.0,0.0,0.0,0.0,0.0,0.0,0.0,0.0,0.0,0.0,0.0,0.0,0.0,0.0,0.0,0.0,2.6065,2.7909,3.0023,3.0818,3.1157,3.1004,2.9602,2.7521,2.481,0.0,0.0,0.0,0.0,0.0,0.0,0.0,0.0,0.0,0.0,0.0,0.0,0.0,0.0,0.0,0.0,0.0,0.0,0.0,0.0,0.0,0.0,0.0,0.0,0.0,0.0,0.0,0.0,0.0,0.0,0.0,0.0,0.0,0.0,0.0,0.0,0.0,0.0,1.3847,1.5827,0.0,0.0,0.0,0.0,0.0,0.0,0.0,0.0,1.6857,0.0,0.0,0.0,0.0,0.0,0.0,0.0,0.0,0.0,0.0,0.0,0.0,0.0,0.0,0.0,0.0,0.0,0.0,0.0,0.0,0.0,0.0,0.0,0.0,0.0,0.0,0.0,0.0,0.0,0.0,0.0,0.0,0.0,0.0,0.0,0.0,0.0,0.0,0.0,0.0,0.0,0.0,0.0,0.0,0.0,0.0,0.0,0.0,0.0,0.0,0.0,0.0,0.0,0.0,0.0,0.0,2.4457,2.6556,2.8432,3.0055,3.0818,3.092,3.0277,2.8787,2.6962,2.481,0.0,0.0,0.0,0.0,0.0,0.0,0.0,0.0,0.0,0.0,0.0,0.0,0.0,0.0,0.0,0.0,0.0,0.0,0.0,0.0,0.0,0.0,0.0,0.0,0.0,0.0,0.0,0.0,0.0,0.0,0.0,0.0,0.0,0.0,0.0,0.0,0.0,0.0,0.0,1.7895,1.875,0.0,0.0,0.0,0.0,0.0,0.0,0.0,0.0,1.8374,0.0,0.0,0.0,0.0,0.0,0.0,0.0,0.0,0.0,0.0,0.0,0.0,0.0,0.0,0.0,0.0,0.0,0.0,0.0,0.0,0.0,0.0,0.0,0.0,0.0,0.0,0.0,0.0,0.0,0.0,0.0,0.0,0.0,0.0,0.0,0.0,0.0,0.0,0.0,0.0,0.0,0.0,0.0,0.0,0.0,0.0,0.0,0.0,0.0,0.0,0.0,0.0,0.0,0.0,0.0,2.554,2.7858,2.9531,3.0632,3.1021,3.0852,3.0089,2.8247,2.6403,0.0,0.0,0.0,0.0,0.0,0.0,0.0,0.0,0.0,0.0,0.0,0.0,0.0,0.0,0.0,0.0,0.0,0.0,0.0,0.0,0.0,0.0,0.0,0.0,0.0,0.0,0.0,0.0,0.0,0.0,0.0,0.0,0.0,0.0,0.0,0.0,0.0,0.0,0.0,0.0,1.9362,2.0111,2.0207,0.0,0.0,0.0,0.0,0.0,0.0,1.9779,2.0047,0.0,0.0,0.0,0.0,0.0,0.0,0.0,0.0,0.0,0.0,0.0,0.0,0.0,0.0,0.0,0.0,0.0,0.0,0.0,0.0,0.0,0.0,0.0,0.0,0.0,0.0,0.0,0.0,0.0,0.0,0.0,0.0,0.0,0.0,0.0,0.0,0.0,0.0,0.0,0.0,0.0,0.0,0.0,0.0,0.0,0.0,0.0,0.0,0.0,0.0,0.0,0.0,0.0,0.0,0.0,2.6623,2.9076,3.0615,3.1173,3.1343,3.0937,2.9888,2.7824,2.5911,0.0,0.0,0.0,0.0,0.0,0.0,0.0,0.0,0.0,0.0,0.0,0.0,0.0,0.0,0.0,0.0,0.0,0.0,0.0,0.0,0.0,0.0,0.0,0.0,0.0,0.0,0.0,0.0,0.0,0.0,0.0,0.0,0.0,0.0,0.0,0.0,0.0,0.0,0.0,0.0,0.0,2.1391,2.1942,2.2227,0.0,0.0,0.0,0.0,2.0225,2.1211,0.0,0.0,0.0,0.0,0.0,0.0,0.0,0.0,0.0,0.0,0.0,0.0,0.0,0.0,0.0,0.0,0.0,0.0,0.0,0.0,0.0,0.0,0.0,0.0,0.0,0.0,0.0,0.0,0.0,0.0,0.0,0.0,0.0,0.0,0.0,0.0,0.0,0.0,0.0,0.0,0.0,0.0,0.0,0.0,0.0,0.0,0.0,0.0,0.0,0.0,0.0,0.0,0.0,0.0,0.0,0.0,2.664,2.9583,3.1106,3.1224,3.1853,3.121,2.9179,2.7554,2.5435,0.0,0.0,0.0,0.0,0.0,0.0,0.0,0.0,0.0,0.0,0.0,0.0,0.0,0.0,0.0,0.0,0.0,0.0,0.0,0.0,0.0,0.0,0.0,0.0,0.0,0.0,0.0,0.0,0.0,0.0,0.0,0.0,0.0,0.0,0.0,0.0,0.0,0.0,0.0,0.0,0.0,2.2704,2.2174,2.2757,2.3487,0.0,0.0,2.2886,2.481,2.291,0.0,0.0,0.0,0.0,0.0,0.0,0.0,0.0,0.0,0.0,0.0,0.0,0.0,0.0,0.0,0.0,0.0,0.0,0.0,0.0,0.0,0.0,0.0,0.0,0.0,0.0,0.0,0.0,0.0,0.0,0.0,0.0,0.0,0.0,0.0,0.0,0.0,0.0,0.0,0.0,0.0,0.0,0.0,0.0,0.0,0.0,0.0,0.0,0.0,0.0,0.0,0.0,0.0,0.0,0.0,2.3427,2.6674,3.0074,3.1616,3.1241,3.1938,3.1447,2.9668,2.774,2.5742,0.0,0.0,0.0,0.0,0.0,0.0,0.0,0.0,0.0,0.0,0.0,0.0,0.0,0.0,0.0,0.0,0.0,0.0,0.0,0.0,0.0,0.0,0.0,0.0,0.0,0.0,0.0,0.0,0.0,0.0,0.0,0.0,0.0,0.0,0.0,0.0,0.0,0.0,0.0,0.0,0.0,0.0,2.4172,2.5332,0.0,0.0,0.0,2.6278,2.5935,0.0,0.0,0.0,0.0,0.0,0.0,0.0,0.0,0.0,0.0,0.0,0.0,0.0,0.0,0.0,0.0,0.0,0.0,0.0,0.0,0.0,0.0,0.0,0.0,0.0,0.0,0.0,0.0,0.0,0.0,0.0,0.0,0.0,0.0,0.0,0.0,0.0,0.0,0.0,0.0,0.0,0.0,0.0,0.0,0.0,0.0,0.0,0.0,0.0,0.0,0.0,0.0,0.0,0.0,0.0,0.0,0.0,2.6708,3.0584,3.2124,3.1258,3.2107,3.1765,3.0142,2.8078,0.0,0.0,0.0,0.0,0.0,0.0,0.0,0.0,0.0,0.0,0.0,0.0,0.0,0.0,0.0,0.0,0.0,0.0,0.0,0.0,0.0,0.0,0.0,0.0,0.0,0.0,0.0,1.0557,0.0,0.0,0.0,0.0,0.0,0.0,0.0,0.0,0.0,0.0,0.0,0.0,0.0,0.0,2.5368,2.5966,2.7652,2.8559,0.0,0.0,2.9148,2.7289,2.754,2.7199,0.0,0.0,0.0,0.0,0.0,0.0,0.0,0.0,0.0,0.0,0.0,0.0,0.0,0.0,0.0,0.0,0.0,0.0,0.0,0.0,0.0,0.0,0.0,0.0,0.0,0.0,0.0,0.0,0.0,0.0,0.0,0.0,0.0,0.0,0.0,0.0,0.0,0.0,0.0,0.0,0.0,0.0,0.0,0.0,0.0,0.0,0.0,0.0,0.0,0.0,0.0,0.0,0.0,0.0,0.0,2.6725,3.1072,3.2628,3.1292,3.2594,3.2269,3.0176,2.8551,2.6759,0.0,0.0,0.0,0.0,0.0,0.0,0.0,0.0,0.0,0.0,0.0,0.0,0.0,0.0,0.0,0.0,0.0,0.0,0.0,0.0,0.0,0.0,0.0,0.0,0.0,0.0,0.0,0.0,0.0,0.0,0.0,0.0,0.0,0.0,0.0,0.0,0.0,0.0,0.0,0.0,0.0,2.6664,2.6718,2.881,3.0039,0.0,0.0,3.0532,3.0307,2.8473,2.7059,2.7051,0.0,0.0,0.0,0.0,0.0,0.0,0.0,0.0,0.0,0.0,0.0,0.0,0.0,0.0,0.0,0.0,0.0,0.0,0.0,0.0,0.0,0.0,0.0,0.0,0.0,0.0,0.0,0.0,0.0,0.0,0.0,0.0,0.0,0.0,0.0,0.0,0.0,0.0,0.0,0.0,0.0,0.0,0.0,0.0,0.0,0.0,0.0,0.0,0.0,0.0,0.0,0.0,0.0,2.3748,2.6691,3.1103,3.2916,3.1972,3.2865,3.278,3.1478,2.955,2.7689,0.0,0.0,0.0,0.0,0.0,0.0,0.0,0.0,0.0,0.0,0.0,0.0,0.0,0.0,0.0,0.0,0.0,0.0,0.0,0.0,0.0,0.0,0.0,0.0,0.0,0.0,0.0,0.0,1.2816,1.3495,1.3985,0.0,0.0,0.0,0.0,0.0,0.0,0.0,0.0,0.0,0.0,2.7603,2.8091,2.9836,0.0,0.0,3.139,3.1626,3.0628,2.9375,2.808,2.6726,2.548,0.0,0.0,0.0,0.0,0.0,0.0,0.0,0.0,0.0,0.0,0.0,0.0,0.0,0.0,0.0,0.0,0.0,0.0,0.0,0.0,0.0,0.0,0.0,0.0,0.0,0.0,0.0,0.0,0.0,0.0,0.0,0.0,0.0,0.0,0.0,0.0,0.0,0.0,0.0,0.0,0.0,0.0,0.0,0.0,0.0,0.0,0.0,0.0,0.0,0.0,0.0,0.0,2.3968,2.6708,3.1123,3.3034,3.2327,3.3034,3.3051,3.2276,3.0364,2.8484,0.0,0.0,0.0,0.0,0.0,0.0,0.0,0.0,0.0,0.0,0.0,0.0,0.0,0.0,0.0,0.0,0.0,0.0,0.0,0.0,0.0,0.0,0.0,0.0,0.0,0.0,0.0,0.0,1.382,1.4156,1.4463,0.0,0.0,0.0,0.0,0.0,0.0,0.0,0.0,0.0,0.0,2.8737,2.9544,3.1078,3.2059,3.1799,3.252,3.2551,3.0946,3.0185,2.9101,2.7035,0.0,0.0,0.0,0.0,0.0,0.0,0.0,0.0,0.0,0.0,0.0,0.0,0.0,0.0,0.0,0.0,0.0,0.0,0.0,0.0,0.0,0.0,0.0,0.0,0.0,0.0,0.0,1.8894,0.0,0.0,1.7901,0.0,0.0,0.0,0.0,0.0,0.0,0.0,0.0,0.0,0.0,0.0,0.0,0.0,0.0,0.0,0.0,0.0,0.0,0.0,0.0,0.0,0.0,2.4458,2.6725,3.1157,3.3051,3.2378,3.3017,3.3051,3.2327,3.0852,2.9008,2.6725,0.0,0.0,0.0,0.0,0.0,0.0,0.0,0.0,0.0,0.0,0.0,0.0,0.0,0.0,0.0,0.0,0.0,0.0,0.0,0.0,0.0,0.0,0.0,0.0,0.0,0.0,1.6663,1.6089,1.5319,0.0,0.0,0.0,0.0,0.0,0.0,0.0,0.0,0.0,0.0,2.8439,3.0239,3.1034,3.2579,3.3323,3.2529,3.3181,3.322,3.161,3.0863,2.9977,0.0,0.0,0.0,0.0,0.0,0.0,0.0,0.0,0.0,0.0,0.0,0.0,0.0,0.0,0.0,0.0,0.0,0.0,0.0,0.0,0.0,0.0,0.0,0.0,0.0,0.0,0.0,2.3359,2.3226,0.0,0.0,0.0,0.0,0.0,0.0,0.0,0.0,0.0,0.0,0.0,2.8071,2.7584,0.0,0.0,0.0,0.0,0.0,0.0,0.0,0.0,0.0,0.0,0.0,0.0,2.4983,2.8214,3.163,3.3525,3.3749,3.3525,3.3288,3.3017,3.114,2.8569,2.5337,0.0,0.0,0.0,0.0,0.0,0.0,0.0,0.0,0.0,0.0,0.0,0.0,0.0,0.0,0.0,0.0,0.0,0.0,0.0,0.0,0.0,0.0,0.0,0.0,0.0,1.6614,0.0,0.0,0.0,0.0,0.0,0.0,0.0,0.0,0.0,0.0,0.0,2.6118,2.7665,2.9945,3.1574,3.1833,3.3245,3.4004,0.0,0.0,0.0,0.0,0.0,0.0,0.0,0.0,0.0,0.0,0.0,0.0,0.0,0.0,2.9937,2.9077,2.8701,2.809,2.6695,0.0,0.0,0.0,0.0,0.0,0.0,0.0,0.0,0.0,0.0,0.0,0.0,0.0,0.0,2.6928,0.0,2.5289,0.0,0.0,0.0,0.0,0.0,0.0,0.0,0.0,3.1416,3.1976,3.1351,3.0925,3.0766,0.0,3.0632,2.8873,0.0,0.0,0.0,0.0,0.0,0.0,0.0,0.0,2.5879,2.9331,3.2036,3.3761,3.4438,3.4032,3.366,3.3372,3.1021,2.8433,2.5743,2.3748,2.1857,0.0,0.0,0.0,0.0,0.0,0.0,0.0,0.0,0.0,0.0,0.0,0.0,0.0,0.0,0.0,0.0,0.0,0.0,0.0,0.0,0.0,0.0,0.0,1.7308,0.0,0.0,0.0,0.0,0.0,0.0,0.0,0.0,0.0,2.3246,2.593,2.8311,2.93,3.1274,3.2723,3.2995,0.0,0.0,0.0,0.0,0.0,0.0,0.0,3.1317,3.0824,3.0331,3.0349,3.1364,3.2386,3.3274,3.3862,0.0,0.0,3.1885,3.1281,3.0663,2.9287,3.0357,3.1102,2.9726,3.0758,3.1923,0.0,0.0,0.0,0.0,0.0,0.0,0.0,0.0,2.9565,2.9683,0.0,2.797,0.0,0.0,0.0,0.0,2.5631,2.8457,0.0,0.0,3.389,3.486,3.4208,3.4253,3.4353,3.4342,3.371,3.3017,3.2107,2.8636,0.0,0.0,0.0,0.0,0.0,0.0,2.7164,3.0123,3.2337,3.3812,3.4527,3.451,3.4134,3.3322,3.0567,2.867,2.7773,2.5067,2.3173,2.2378,1.9702,0.0,0.0,0.0,0.0,0.0,0.0,0.0,0.0,0.0,0.0,0.0,0.0,0.0,0.0,0.0,0.0,0.0,0.0,0.0,0.0,1.8802,0.0,0.0,0.0,0.0,0.0,0.0,0.0,0.0,0.0,0.0,2.6493,2.9132,3.1075,3.1111,0.0,0.0,0.0,0.0,3.495,3.5659,3.5822,3.531,3.3822,3.3646,3.3209,3.1829,0.0,0.0,3.4627,3.5607,3.6207,3.6404,3.6983,3.6944,3.4533,3.349,3.268,3.1904,3.3012,3.3738,3.3119,3.3998,3.5152,3.5562,0.0,0.0,0.0,0.0,3.2417,3.2966,3.3762,3.4058,3.4326,3.4443,3.3265,0.0,0.0,0.0,0.0,0.0,0.0,3.2503,3.3798,3.5691,3.648,3.6378,3.5892,3.572,3.5833,3.5155,3.4503,3.3812,3.2256,2.9922,2.686,0.0,0.0,0.0,0.0,2.9247,3.1596,3.3339,3.4539,3.5261,3.4776,3.388,3.2649,3.0784,2.9431,2.8653,2.6793,2.5152,2.3898,2.2122,0.0,0.0,0.0,0.0,0.0,0.0,0.0,0.0,0.0,0.0,0.0,0.0,0.0,0.0,0.0,0.0,0.0,0.0,0.0,2.0345,2.0717,2.0517,0.0,0.0,0.0,0.0,0.0,0.0,0.0,0.0,0.0,3.1274,3.2125,3.294,0.0,0.0,3.5204,3.5424,3.5946,3.6182,3.584,3.6272,0.0,3.5292,3.4685,3.4385,3.4568,3.506,3.5639,3.6204,3.6636,3.6997,3.7215,3.7518,3.744,3.6844,3.6451,3.5974,3.5362,3.5916,3.6337,3.5679,3.6279,3.6986,4.0365,3.7549,3.5984,3.5492,3.5787,3.603,3.6611,3.741,3.7845,3.8196,3.8455,3.7386,3.5842,3.3996,3.2694,0.0,0.0,0.0,3.5112,3.6257,3.7417,3.8015,3.8059,3.7394,3.7127,3.7224,3.6616,3.6121,3.574,3.4771,3.3148,3.085,0.0,0.0,2.8908,2.9568,3.0973,3.3106,3.4032,3.4861,3.5566,3.4607,3.3643,3.275,3.1309,3.0192,2.9467,2.796,2.659,2.5405,2.3466,2.1816,0.0,0.0,0.0,0.0,0.0,0.0,0.0,0.0,0.0,0.0,0.0,1.2368,0.0,0.0,0.0,0.0,1.9395,2.0934,2.1884,2.2518,0.0,0.0,0.0,0.0,0.0,0.0,0.0,2.9137,3.1582,3.3574,3.4661,3.4824,3.4896,3.5077,3.5765,3.6272,3.6272,0.0,3.6941,3.6761,3.7142,3.7178,3.6381,3.5874,3.576,3.6324,3.6604,3.7031,3.7664,3.7897,3.8089,3.8353,3.8476,3.8516,3.8547,3.8595,3.826,3.7236,3.7636,3.8018,3.757,3.8171,3.8725,4.439,4.3549,4.0939,3.9418,3.8885,3.9475,4.0144,4.0825,4.0892,4.132,4.1816,4.0377,3.8987,3.761,3.5498,0.0,3.5504,3.6903,3.7843,3.8411,3.9123,3.9431,3.9365,3.879,3.8502,3.8394,3.7952,3.7722,3.7612,3.6399,3.5785,3.5667,3.2337,3.1207,3.2293,3.1785,3.2459,3.4438,3.4556,3.4928,3.5566,3.4197,3.3457,3.3389,3.2019,3.092,3.0108,2.8686,2.7553,2.6742,2.413,2.264,2.2508,0.0,0.0,0.0,0.0,0.0,0.0,0.0,0.0,0.0,0.0,0.0,0.0,0.0,0.0,0.0,2.1622,0.0,2.3061,2.44,0.0,0.0,0.0,2.5986,2.7526,2.9114,3.0672,3.2198,0.0,0.0,3.6796,3.7049,3.6832,3.6075,3.6616,3.7104,3.7085,3.7104,3.7375,3.8028,3.8191,3.7937,3.7212,3.7049,3.708,3.7226,3.7335,3.7768,3.8697,3.9022,3.9266,3.9455,3.964,3.9637,3.9796,3.9778,3.9542,3.8127,3.8507,3.9079,3.9088,3.9632,4.0129,4.5433,4.5218,4.4522,4.3525,4.2381,4.2531,4.2398,4.214,4.2688,4.2721,4.2339,4.1962,4.1,3.9611,3.7983,3.7626,3.833,3.9242,3.974,3.9928,4.058,4.063,4.0144,3.9989,3.9405,3.8444,3.8295,3.8053,3.7696,3.735,3.7253,3.7273,3.591,3.4506,3.3203,3.3525,3.3964,3.4489,3.5064,3.5414,3.5549,3.4709,3.3981,3.3406,3.251,3.143,3.014,2.9211,2.8332,2.7536,2.5812,2.4591,2.3996,2.2405,0.0,0.0,0.0,0.0,0.0,0.0,0.0,0.0,0.0,1.6233,1.7837,0.0,2.1025,0.0,2.4339,2.5624,2.6228,2.717,0.0,0.0,2.8286,2.906,3.0025,3.1564,3.2922,3.3918,3.5439,3.6578,3.6959,3.7538,3.7846,3.7649,3.7775,3.7919,3.7919,3.7901,3.7973,3.8191,3.8263,3.8136,3.7991,3.7901,3.7919,3.7969,3.7998,3.8198,3.8563,3.8733,3.8886,3.9122,3.9192,3.9257,3.9371,3.9501,3.955,3.9302,3.9602,3.9919,3.9995,4.0167,4.032,4.6775,4.6792,4.6792,4.6295,4.5533,4.487,4.4357,4.4026,4.4423,4.4175,4.3446,4.2841,4.2157,4.1355,4.033,4.0213,4.0823,4.1255,4.1548,4.1823,4.1872,4.169,4.1309,4.0707,4.0005,3.9289,3.9009,3.8762,3.8497,3.8295,3.8226,3.8299,3.7628,3.6485,3.4979,3.4962,3.4996,3.4996,3.5397,3.5616,3.5566,3.4573,3.3812,3.3385,3.2357,3.1275,3.0142,2.9381,2.8619,2.7824,2.6387,2.5423,2.4983,2.3422,2.2241,0.0,0.0,0.0,0.0,0.0,0.0,0.0,0.0,0.0,0.0,0.0,2.3705,2.5316,2.6892,2.8123,2.8938,3.0043,3.088,3.1242,3.1999,3.2651,3.3103,3.4244,3.5168,3.562,3.6777,3.7538,3.7557,3.7937,3.8209,3.8209,3.8209,3.8209,3.8245,3.8499,3.8734,3.8752,3.9007,3.9224,3.9224,3.9224,3.9097,3.8825,3.8768,3.8725,3.8504,3.8523,3.8643,3.8865,3.8933,3.899,3.9059,3.9195,3.9383,3.9585,3.9818,4.0038,4.0273,4.032,4.032,4.8001,4.8001,4.8001,4.8001,4.7901,4.6626,4.6013,4.593,4.593,4.5516,4.4785,4.358,4.3069,4.2936,4.2467,4.2467,4.2791,4.2808,4.3099,4.3549,4.2936,4.2589,4.244,4.1259,4.0591,4.0393,3.9854,3.9575,3.9484,3.91,3.8908,3.89,3.8333,3.7696,3.7083,3.6197,3.5701,3.5616,3.5616,3.5616,3.5583,3.4269,3.3508,3.3355,3.1968,3.0818,2.9989,2.9228,2.8467,2.7672,2.6437,2.5745,2.5693,2.3952,2.2956,0.0,2.1936,0.0,0.0,0.0,0.0,0.0,0.0,0.0,0.0,2.4882,2.6349,2.7761,2.9318,3.0532,3.122,3.2759,3.3991,3.4682,3.5403,3.5822,3.5931,3.6596,3.7031,3.714,3.7774,3.8209,3.8191,3.8263,3.8337,3.8409,3.8554,3.8645,3.8572,3.9024,3.9369,3.9496,4.0075,4.0311,4.0365,4.0401,4.022,3.9677,3.9532,3.9311,3.8662,3.8567,3.8595,3.8707,3.8698,3.8728,3.8807,3.8917,3.9129,3.937,3.9544,3.9792,4.0147,4.0273,4.0263,4.8001,4.8001,4.8001,4.8001,4.7968,4.7703,4.7239,4.6676,4.6676,4.6262,4.5582,4.5332,4.4898,4.4334,4.4231,4.3903,4.3426,4.3426,4.3495,4.3565,4.3449,4.3069,4.2489,4.2224,4.1508,4.0442,4.0304,3.996,3.9484,3.9404,3.9467,3.9665,3.9,3.8595,3.8514,0.0,0.0,0.0,3.5616,3.5616,3.5566,3.4759,3.4015,3.3389,3.1968,0.0,2.9281,2.8467,2.7689,2.6962,2.664,0.0,0.0,0.0,0.0,0.0,0.0,0.0,0.0,0.0,0.0,0.0,2.7888,2.7852,2.7568,2.8938,2.9989,3.0333,3.1781,3.2777,3.294,3.4407,3.5388,3.555,3.5713,3.6055,3.6671,3.6922,3.723,3.7919,3.8118,3.8227,3.8299,3.8752,3.9152,3.9188,3.9695,4.0039,4.0057,3.9713,3.9641,4.0184,4.0546,4.0528,4.0492,4.0564,4.0619,4.0293,4.0293,4.002,3.9385,3.922,3.8931,3.8542,3.8307,3.836,3.8376,3.8496,3.881,3.904,3.9285,3.9514,3.9954,4.0106,4.0137,4.8001,4.8001,4.8001,4.8001,0.0,4.8001,4.7785,4.7438,4.7454,4.7023,4.6311,4.5947,4.5582,4.5202,4.4837,4.4489,4.4125,4.3747,4.3615,4.3615,4.3615,4.34,4.3019,4.2671,4.2109,4.1425,4.0757,4.0254,3.9954,3.9641,3.958,3.9694,3.9454,3.9185,3.8873,3.751,3.64,3.5616,3.5616,3.5616,3.5583,3.4878,3.4134,3.3406,3.2324,0.0,0.0,0.0,0.0,0.0,0.0,0.0,0.0,0.0,0.0,2.6408,2.5872,2.5735,2.609,2.6947,2.8231,2.995,3.1665,3.1986,3.0518,3.1836,3.2777,3.2814,3.39,3.4751,3.5168,3.591,3.6544,3.6924,3.6997,3.716,3.752,3.7593,3.7901,3.8644,3.8807,3.8915,3.9297,3.9659,3.993,3.9948,4.0257,4.0673,4.0981,4.0782,4.0818,4.1542,4.1687,4.1687,4.1687,4.1687,4.1506,4.1216,4.1089,4.0764,4.0075,3.9948,3.9786,3.9405,3.9333,3.9333,3.935,3.9469,3.9699,4.0037,4.0218,4.0389,4.0672,4.0344,3.9914,4.8001,4.8001,4.8001,4.8001,4.8001,4.8001,4.8001,4.8001,0.0,0.0,0.0,4.646,4.6113,4.5947,4.5351,4.4937,4.4669,4.4092,4.3714,4.3615,4.3615,4.3615,4.3565,4.2969,4.2622,4.244,4.1177,4.0525,4.0376,3.9771,3.9458,3.9528,3.9737,3.9496,3.8773,3.7597,3.6586,3.5859,3.5667,3.5616,3.5583,3.4878,3.4201,3.3609,3.2747,3.1735,3.0548,3.0226,2.9837,2.923,2.9061,2.8993,2.8976,2.8471,2.8252,2.8406,2.8048,2.8019,2.85,2.9318,3.0474,3.2028,3.4305,3.4841,3.2933,3.403,3.4808,3.4824,3.5548,3.6272,3.6941,3.714,3.7484,3.8119,3.8336,3.8391,3.8426,3.8536,3.8898,3.946,3.9586,3.9822,4.0329,4.0583,4.0709,4.0727,4.0926,4.1144,4.1723,4.1868,4.2049,4.2592,4.2683,4.2829,4.2883,4.281,4.2629,4.2012,4.1904,4.1614,4.0963,4.0709,4.0655,4.0401,4.0492,4.0438,4.0456,4.0508,4.0808,4.1172,4.1235,4.128,4.1341,4.0694,4.0121,4.8001,4.8001,4.8001,4.8001,4.8001,4.8001,4.8001,4.8001,4.8001,4.7934,4.7835,4.7752,4.7338,4.6742,4.6643,4.5897,4.4705,4.4589,4.4208,4.3615,4.3615,4.3615,4.3582,4.3482,4.3102,4.2456,4.1657,4.0961,4.0393,3.9674,3.9395,3.9501,3.9554,3.9317,3.8782,3.8087,3.7381,3.666,3.5938,3.5616,3.5583,3.4895,3.4455,3.4286,3.3038,3.2226,3.1989,3.0784,3.0057,2.9939,2.9348,2.8993,2.901,2.8959,2.9146,2.9754,2.9798,3.046,3.2009,3.2345,3.298,3.4182,3.5456,3.5859,3.5225,3.5428,3.5623,3.5659,3.6381,3.6868,3.7031,3.7647,3.8118,3.8281,3.8826,3.9224,3.9242,3.9749,4.013,4.0311,4.0347,4.0383,4.0637,4.1144,4.1524,4.1632,4.1959,4.2557,4.2592,4.2719,4.2755,4.2864,4.2919,4.2919,4.2919,4.2919,4.2829,4.2755,4.2683,4.2411,4.165,4.1542,4.1325,4.0673,4.0691,4.0637,4.0619,4.0599,4.0902,4.1126,4.1176,4.1172,4.1303,4.1132,4.1152,4.8001,4.8001,4.8001,4.8001,4.8001,4.8001,4.8001,4.8001,4.8001,4.8001,4.8001,4.8001,4.7819,4.7471,4.7073,4.6311,4.5284,4.4887,4.4291,4.3631,4.3615,4.3615,4.3615,4.3615,4.3416,4.3035,4.1926,4.1243,4.0862,3.9862,3.9325,3.9395,3.9475,3.9265,3.8816,3.8537,3.7867,3.6812,3.6011,3.5616,3.56,3.5261,3.4928,3.4506,3.3812,3.3288,3.2899,3.2256,3.1901,3.1884,3.1579,3.1376,3.1376,3.1376,3.1546,3.1867,3.1984,3.2412,3.3259,3.3864,3.446,3.5116,3.6048,3.6609,3.6594,3.6904,3.7087,3.7105,3.7466,3.7846,3.8263,3.8644,3.9024,3.9423,3.9786,3.9985,4.0021,4.0274,4.0673,4.1053,4.1144,4.1307,4.1759,4.2122,4.2357,4.2375,4.2719,4.2919,4.2919,4.2919,4.2919,4.2919,4.2919,4.2919,4.2919,4.2919,4.2919,4.2919,4.2919,4.2755,4.2393,4.2339,4.2176,4.1886,4.1778,4.1814,4.1778,4.185,4.196,4.212,4.212,4.2138,4.219,4.2376,4.2403,4.815,4.8001,4.8001,4.8001,4.8001,4.8001,4.8001,4.8001,4.8001,4.8001,4.8001,4.8001,4.8001,4.7934,4.7388,4.6742,4.6013,4.5268,4.4539,4.3863,4.3681,4.3615,4.3615,4.3615,4.3615,4.3449,4.2258,4.1562,4.1293,4.016,3.9464,3.9315,3.9432,3.9332,3.9009,3.8866,3.8284,3.7297,3.6349,3.5769,3.5616,3.5616,3.5351,3.4793,3.4742,3.4472,3.3931,3.3744,3.366,3.3643,3.3491,3.3389,3.3389,3.3389,3.3474,3.3609,3.3744,3.3913,3.415,3.4846,3.5377,3.5561,3.6307,3.6985,3.7453,3.799,3.8342,3.8411,3.8445,3.8788,3.9441,3.9641,3.9876,4.042,4.0673,4.0782,4.0782,4.0908,4.1252,4.1868,4.1977,4.223,4.2719,4.2919,4.2883,4.2865,4.2919,4.2919,4.2919,4.2919,4.2919,4.2919,4.2919,4.2919,4.2919,4.2919,4.2919,4.2919,4.2919,4.2883,4.2847,4.2883,4.2901,4.2774,4.2829,4.2774,4.2865,4.2865,4.2867,4.2923,4.2887,4.2977,4.3051,4.3245,4.3264,4.8614,4.805,4.8017,4.8001,4.8001,4.8001,4.8001,4.8001,4.8001,4.8001,4.8001,4.8001,4.8001,4.8001,4.7918,4.7454,4.6725,4.603,4.5268,4.4539,4.3896,4.3615,4.3615,4.3615,4.3615,4.3499,4.2738,4.2038,4.1458,4.063,3.9962,3.9408,3.9448,3.953,3.9536,3.9051,3.8789,3.8768,3.7422,3.6332,3.565,3.5616,3.5566,3.5515,3.5481,3.5464,3.5295,3.4759,3.4387,3.4336,3.3795,3.3423,3.3423,3.3423,3.3728,3.432,3.4409,3.4697,3.534,3.5509,3.5598,3.5781,3.6161,3.6797,3.7655,3.8325,3.8797,3.9067,3.9226,3.9604,4.0275,4.0383,4.0474,4.0709,4.1216,4.1596,4.165,4.2248,4.272,4.2755,4.2701,4.281,4.2883,4.2919,4.2919,4.2919,4.2919,4.2919,4.2919,4.2919,4.2919,4.2919,4.2919,4.2919,4.2919,4.2919,4.2919,4.2919,4.2919,4.2919,4.2919,4.2919,4.2919,4.2919,4.2919,4.2919,4.2919,4.2919,4.2919,4.2957,4.2957,4.2975,4.3086,4.3232,4.3106,4.8928,4.8614,4.8183,4.8001,4.8001,4.8001,4.8001,4.8001,4.8001,4.8001,4.8001,4.8001,4.8001,4.8001,4.8001,4.7603,4.6874,4.6129,4.5384,4.4655,4.3913,4.3615,4.3615,4.3615,4.3615,4.3532,4.2837,4.2324,4.1893,4.0928,4.0044,3.9365,3.9352,3.9484,3.9661,3.947,3.9244,3.8988,3.8396,3.7516,3.64,3.5819,3.5616,3.5616,3.5616,3.5616,3.5583,3.5295,3.5165,3.5131,3.4856,3.4704,3.4726,3.4704,3.4861,3.5109,3.5148,3.5284,3.5583,3.5616,3.5661,3.5795,3.6403,3.7059,3.7654,3.8497,3.9301,4.0003,4.0094,4.0365,4.1071,4.1198,4.1397,4.1832,4.223,4.2411,4.2429,4.2683,4.2919,4.2919,4.2919,4.2919,4.2919,4.2919,4.2919,4.2919,4.2919,4.2919,4.2919,4.2919,4.2919,4.2919,4.2919,4.2919,4.2919,4.2919,4.2919,4.2919,4.2919,4.2919,4.2919,4.2919,4.2919,4.2919,4.2919,4.2919,4.2919,4.2919,4.2919,4.2919,4.2919,4.2919,4.2957,4.3123,4.3102,4.9458,4.9011,4.8315,4.8001,4.8001,4.8001,4.8001,4.8001,4.8001,4.8001,4.8001,4.8001,4.8001,4.8001,4.8001,4.7703,4.7123,4.6228,4.55,4.4903,4.4059,4.3615,4.3615,4.3615,4.3615,4.3515,4.3069,4.2589,4.2109,4.1011,4.0028,3.9415,3.9315,3.9432,3.9625,3.9677,3.9555,3.9269,3.9082,3.8464,3.7438,3.6434,3.5819,3.5633,3.5616,3.5616,3.5616,3.5616,3.5616,3.56,3.5616,3.5616,3.5616,3.5616,3.5616,3.5616,3.5616,3.5616,3.5616,3.5616,3.5729,3.6073,3.669,3.733,3.8016,3.8847,3.9756,4.0658,4.08,4.1097,4.1755,4.1937,4.2246,4.279,4.29,4.2919,4.2901,4.2919,4.2919,4.2919,4.2919,4.2919,4.2919,4.2919,4.2919,4.2919,4.2919,4.2919,4.2919,4.2919,4.2919,4.2919,4.2919,4.2919,4.2919,4.2919,4.2919,4.2919,4.2919,4.2919,4.2919,4.2919,4.2919,4.2919,4.2919,4.2919,4.2919,4.2919,4.2919,4.2919,4.2919,4.2919,4.2919,4.305,4.3087,5.0369,4.9077,4.8315,4.8034,4.8001,4.8001,4.8001,4.8001,4.8001,4.8001,4.8001,4.8001,4.8001,4.8001,4.8001,4.7984,4.7752,4.6427,4.5765,4.5533,4.4257,4.3615,4.3615,4.3615,4.3615,4.3615,4.3515,4.2771,4.1541,4.0763,4.0028,3.9348,3.9315,3.9352,3.9511,3.9625,3.9755,3.9758,3.9319,3.8954,3.8684,3.7472,3.6434,3.5769,3.5616,3.5616,3.5616,3.5616,3.5616,3.5616,3.5616,3.5616,3.5616,3.5616,3.5616,3.5616,3.5633,3.5633,3.565,3.5718,3.6011,3.6626,3.692,3.7492,3.8819,3.9439,4.0078,4.0903,4.1182,4.1612,4.2172,4.2334,4.2523,4.2729,4.2861,4.29,4.2919,4.2919,4.2919,4.2919,4.2992,4.3064,4.2992,4.2919,4.3082,4.3081,4.2991,4.3064,4.3173,4.3082,4.31,4.3118,4.3082,4.2937,4.2937,4.2919,4.2919,4.2919,4.2919,4.2919,4.2919,4.2919,4.2919,4.2919,4.2919,4.2919,4.2919,4.2919,4.2919,4.2919,4.2919,4.2919,4.2919,4.2919,4.2957,5.0436,4.911,4.8829,4.8448,4.8017,4.8001,4.8001,4.8001,4.8001,4.8001,4.8001,4.8001,4.8001,4.8001,4.8001,4.8001,4.7868,4.646,4.5798,4.5632,4.4291,4.3615,4.3615,4.3615,4.3615,4.3615,4.3598,4.282,4.1541,4.1143,4.0431,3.9481,3.9315,3.9352,3.9501,3.9537,3.9651,3.9858,3.9665,3.9404,3.9022,3.8488,3.7658,3.6417,3.5876,3.5616,3.5616,3.5616,3.5616,3.5616,3.5616,3.5616,3.5616,3.5616,3.5616,3.565,3.6096,3.6366,3.6417,3.68,3.7172,3.7483,3.7956,3.841,3.9149,3.9809,4.0435,4.0873,4.1111,4.1475,4.1913,4.221,4.2396,4.2536,4.2749,4.2919,4.2919,4.2919,4.2919,4.2992,4.3299,4.3661,4.3769,4.4095,4.4403,4.444,4.4421,4.4385,4.4421,4.4421,4.4331,4.4403,4.4421,4.4258,4.3679,4.3191,4.2919,4.2919,4.2919,4.2919,4.2919,4.2919,4.2919,4.2919,4.2919,4.2919,4.2919,4.2919,4.2919,4.2919,4.2919,4.2919,4.2919,4.2919,4.2919,5.0701,4.9806,4.9309,4.8829,4.8365,4.81,4.8001,4.8001,4.8001,4.8001,4.8001,4.8001,4.8001,4.8001,4.8001,4.8001,4.7885,4.6725,4.603,4.5682,4.4539,4.3813,4.3615,4.3615,4.3615,4.3615,4.3615,4.292,4.1844,4.1496,4.0779,3.9746,3.9448,3.9325,3.9448,3.9475,3.959,3.9746,3.9849,3.9682,3.9327,3.9065,3.8531,3.7591,3.6772,3.6073,3.565,3.5616,3.5616,3.5616,3.5616,3.5616,3.5616,3.5616,3.5718,3.6011,3.6502,3.6931,3.7185,3.7635,3.799,3.8261,3.87,3.9122,3.9466,4.0024,4.0434,4.0697,4.0894,4.1175,4.1565,4.1945,4.2257,4.2456,4.2729,4.29,4.2937,4.3137,4.3426,4.3751,4.4186,4.4458,4.453,4.4965,4.5182,4.5291,4.5291,4.5291,4.5291,4.5291,4.5291,4.5291,4.52,4.4965,4.4603,4.4168,4.3354,4.3209,4.3137,4.3064,4.3064,4.3028,4.2973,4.2955,4.2937,4.2919,4.2919,4.2919,4.2919,4.2937,4.2919,4.2919,4.2919,4.2919,4.2919,5.1315,5.1017,4.9723,4.9127,4.8928,4.8282,4.8001,4.8001,4.8001,4.8001,4.8001,4.8001,4.8001,4.8001,4.8001,4.8001,4.7868,4.7222,4.6543,4.5864,4.5003,4.4274,4.3714,4.3631,4.3615,4.3615,4.3615,4.3201,4.239,4.1778,4.111,4.0376,3.9696,3.9398,3.9299,3.9422,3.9501,3.958,3.9746,3.9858,3.9825,3.9353,3.9005,3.8785,3.8159,3.7155,3.5802,3.5752,3.5819,3.5769,3.5701,3.5633,3.5718,3.5769,3.6045,3.6688,3.6863,3.7212,3.7804,3.8024,3.8447,3.887,3.9039,3.9402,3.9901,4.007,4.0213,4.0412,4.0645,4.0954,4.137,4.1902,4.2346,4.2552,4.2749,4.29,4.3137,4.3662,4.4367,4.4965,4.5218,4.5291,4.5309,4.5526,4.5653,4.5653,4.5617,4.5635,4.5707,4.5707,4.5454,4.5472,4.5707,4.5761,4.5508,4.52,4.4258,4.3553,4.3444,4.3371,4.3463,4.3463,4.3318,4.3281,4.33,4.3281,4.2973,4.2973,4.3009,4.3009,4.2973,4.2919,4.2919,4.2919,4.2919,5.1779,5.1216,5.027,4.9574,4.9044,4.8315,4.8001,4.8001,4.8001,4.8001,4.8001,4.8001,4.8001,4.8001,4.8001,4.8001,4.7984,4.7719,4.7272,4.646,4.5268,4.4589,4.4307,4.383,4.3615,4.3615,4.3615,4.3218,4.2589,4.2286,4.1591,4.0575,4.0194,3.9796,3.9348,3.9352,3.9405,3.9528,3.958,3.9711,3.9875,3.9733,3.9412,3.9039,3.8768,3.8176,3.728,3.7195,3.7172,3.7161,3.6705,3.6417,3.6502,3.6907,3.728,3.7567,3.8058,3.8362,3.865,3.9106,3.9428,3.9706,3.9757,3.9842,4.0062,4.0113,4.0213,4.0429,4.0631,4.1091,4.198,4.2449,4.2647,4.2488,4.2729,4.3208,4.3788,4.444,4.4965,4.5291,4.578,4.6087,4.6232,4.6468,4.6794,4.683,4.6848,4.6848,4.6884,4.6757,4.6957,4.6957,4.692,4.6595,4.6305,4.6087,4.5544,4.4747,4.4385,4.4059,4.4041,4.3969,4.3806,4.3698,4.3698,4.357,4.3262,4.3154,4.3281,4.3099,4.2992,4.2955,4.2919,4.2919,4.2919,5.2144,5.163,5.0618,4.9955,4.9409,4.8465,4.8001,4.8001,4.8001,4.8001,4.8001,4.8001,4.8001,4.8001,4.8001,4.8001,4.8001,4.8001,4.7769,4.7123,4.5781,4.5017,4.4655,4.3913,4.3615,4.3615,4.3615,4.3367,4.292,4.2634,4.2054,4.1293,4.0912,4.0442,3.9779,3.9696,3.9667,3.9472,3.9458,3.959,3.9781,3.9875,3.9741,3.9462,3.9419,3.9182,3.8751,3.8717,3.8447,3.7956,3.7432,3.7235,3.7246,3.7635,3.8024,3.8362,3.8717,3.9089,3.9377,3.9808,4.0113,4.0113,4.0113,4.0096,4.0113,4.0113,4.0281,4.0745,4.1043,4.1602,4.2601,4.3062,4.3094,4.3031,4.343,4.4034,4.4854,4.5436,4.5906,4.6232,4.6667,4.6884,4.7102,4.7283,4.7699,4.7699,4.7699,4.7699,4.7699,4.7645,4.7699,4.7699,4.7518,4.7228,4.7029,4.6866,4.6757,4.6142,4.5544,4.5128,4.4874,4.4711,4.4548,4.4367,4.4313,4.4258,4.4005,4.3842,4.3824,4.3481,4.3209,4.2955,4.2919,4.2919,4.2992,5.2409,5.2227,5.0866,5.0303,5.0088,4.8746,4.815,4.81,4.8001,4.8001,4.8001,4.8001,4.8001,4.8001,4.8001,4.8001,4.8001,4.8001,4.7984,4.7554,4.6493,4.545,4.4506,4.3863,4.3615,4.3615,4.3615,4.3582,4.3449,4.2936,4.2539,4.2274,4.1723,4.1155,4.0575,4.0442,4.0028,3.9584,3.9498,3.952,3.972,3.9824,3.9918,4.002,4.0011,3.9977,3.9893,3.9842,3.9292,3.821,3.8075,3.8091,3.799,3.8007,3.8481,3.9022,3.9056,3.9453,3.9926,4.0062,4.0113,4.0113,4.0113,4.0146,4.0248,4.035,4.0637,4.1401,4.1738,4.2302,4.3096,4.3513,4.3799,4.416,4.4571,4.5297,4.6264,4.6486,4.6812,4.7355,4.7681,4.7681,4.7591,4.7663,4.7699,4.7699,4.7699,4.7699,4.7699,4.7699,4.7699,4.7699,4.7699,4.7609,4.7337,4.7319,4.7192,4.6975,4.6504,4.6196,4.5761,4.5562,4.5164,4.4983,4.4983,4.491,4.482,4.4675,4.4476,4.424,4.3806,4.3209,4.3154,4.3425,4.357,5.2409,5.231,5.138,5.0999,5.0783,4.9425,4.8812,4.8746,4.8216,4.8001,4.8001,4.8001,4.8001,4.8001,4.8001,4.8001,4.8001,4.8001,4.8001,4.7868,4.709,4.5549,4.4208,4.3714,4.3615,4.3615,4.3615,4.3615,4.3598,4.3367,4.3019,4.2489,4.2324,4.1946,4.1383,4.0752,4.0398,4.0163,3.9611,3.9484,3.9677,3.9729,3.9858,4.0087,4.0113,4.0113,4.0113,4.0113,3.9706,3.8886,3.9225,3.9225,3.8802,3.9157,3.9495,3.969,3.9791,3.9859,4.0045,4.0113,4.0113,4.0113,4.018,4.035,4.0865,4.0899,4.1349,4.2039,4.2407,4.2877,4.3666,4.3974,4.4483,4.5403,4.5546,4.5817,4.6455,4.7047,4.7518,4.7681,4.7699,4.7699,4.7699,4.7699,4.7699,4.7699,4.7699,4.7699,4.7699,4.7699,4.7699,4.7699,4.7699,4.7699,4.7663,4.7663,4.7627,4.7572,4.7373,4.7265,4.6848,4.6504,4.5924,4.5399,4.5689,4.5725,4.5635,4.5526,4.5291,4.5019,4.4711,4.4295,4.4512,4.4747,4.4729,5.2409,5.2359,5.163,5.1315,5.1116,4.974,4.911,4.8961,4.8332,4.8001,4.8001,4.8001,4.8001,4.8001,4.8001,4.8001,4.8001,4.8001,4.8001,4.7885,4.7222,4.5847,4.4406,4.3813,4.3615,4.3615,4.3615,4.3615,4.3598,4.3615,4.335,4.3069,4.2953,4.263,4.2052,4.1564,4.0967,4.0525,3.9999,3.9781,3.9711,3.9703,3.9841,4.0045,4.0113,4.0113,4.0113,4.0113,3.9893,3.9639,3.9842,3.9893,3.9571,3.9859,4.0113,4.0113,4.0113,4.0096,4.0113,4.0113,4.0265,4.0476,4.0561,4.0933,4.1474,4.166,4.2018,4.2749,4.2947,4.3435,4.4087,4.4409,4.4871,4.5542,4.5844,4.6117,4.6744,4.7286,4.76,4.7678,4.7699,4.7699,4.7699,4.7699,4.7699,4.7699,4.7699,4.7699,4.7699,4.7699,4.7699,4.7699,4.7699,4.7699,4.7699,4.7699,4.7699,4.7699,4.7699,4.7699,4.7482,4.712,4.6739,4.6269,4.645,4.6522,4.645,4.6323,4.6033,4.5798,4.5599,4.5399,4.5417,4.5653,4.5653,5.2409,5.2324,5.1696,5.1431,5.1232,4.9872,4.9309,4.9094,4.8365,4.8001,4.8001,4.8001,4.8001,4.8001,4.8001,4.8001,4.8001,4.8001,4.8001,4.7785,4.7222,4.6146,4.5119,4.4208,4.378,4.3648,4.3615,4.3615,4.3615,4.3615,4.3615,4.3499,4.3515,4.3264,4.2759,4.2469,4.1789,4.1,4.0625,4.0296,4.0036,3.9955,4.0017,4.0045,4.0113,4.0113,4.0113,4.0113,4.0062,4.0096,4.0113,4.0062,4.0062,4.0096,4.0113,4.0113,4.0113,4.0146,4.0248,4.035,4.0603,4.1153,4.1322,4.1644,4.2219,4.2422,4.2726,4.347,4.3538,4.3914,4.4366,4.4697,4.4892,4.5311,4.5588,4.6224,4.6989,4.7363,4.7511,4.7678,4.7699,4.7699,4.7699,4.7699,4.7699,4.7699,4.7699,4.7699,4.7699,4.7699,4.7699,4.7699,4.7699,4.7699,4.7699,4.7699,4.7699,4.7699,4.7699,4.7681,4.7609,4.7373,4.7319,4.7192,4.7083,4.7156,4.7319,4.7102,4.6757,4.6595,4.6432,4.6015,4.5725,4.6124,4.6287,5.2409,5.2393,5.2208,5.2177,5.1945,5.0601,4.9955,4.9823,4.8547,4.8001,4.8001,4.8001,4.8001,4.8001,4.8001,4.8001,4.8001,4.8001,4.8001,4.7901,4.7239,4.6808,4.6113,4.5119,4.4208,4.3797,4.3615,4.3615,4.3615,4.3615,4.3615,4.3615,4.3598,4.3621,4.3494,4.2862,4.251,4.2147,4.1564,4.0967,4.0645,4.0558,4.0438,4.0223,4.0163,4.0113,4.0113,4.0113,4.0113,4.0113,4.0146,4.0197,4.0113,4.0113,4.013,4.0197,4.018,4.0383,4.0815,4.1001,4.1288,4.1948,4.21,4.2371,4.3064,4.3183,4.3555,4.413,4.435,4.4367,4.4564,4.4737,4.4869,4.5069,4.5398,4.5877,4.6543,4.6994,4.7302,4.7593,4.7699,4.7699,4.7699,4.7699,4.7699,4.7699,4.7699,4.7699,4.7699,4.7699,4.7699,4.7699,4.7699,4.7699,4.7699,4.7699,4.7699,4.7699,4.7699,4.7699,4.7627,4.7591,4.7518,4.7518,4.7551,4.7642,4.7681,4.7663,4.7265,4.7265,4.721,4.6939,4.6739,4.692,4.6902,5.2409,5.2376,5.2045,5.186,5.1628,5.0336,4.9656,4.9491,4.8514,4.8001,4.8001,4.8001,4.8001,4.8001,4.8001,4.8001,4.8001,4.8001,4.8001,4.7934,4.7554,4.7255,4.6841,4.6096,4.5218,4.4257,4.3731,4.3615,4.3615,4.3615,4.3615,4.3615,4.3615,4.3628,4.3734,4.3243,4.2895,4.2572,4.2211,4.1704,4.1316,4.1291,4.1083,4.0713,4.0578,4.0502,4.0146,4.0113,4.0113,4.0197,4.0409,4.0451,4.0146,4.013,4.0265,4.0561,4.0612,4.0967,4.1508,4.1762,4.2049,4.276,4.2828,4.3267,4.3741,4.3961,4.4113,4.4451,4.4581,4.4598,4.4615,4.4654,4.4765,4.4831,4.5113,4.5589,4.6231,4.6747,4.7232,4.7572,4.7699,4.7699,4.7699,4.7699,4.7699,4.7699,4.7699,4.7699,4.7699,4.7699,4.7699,4.7699,4.7699,4.7699,4.7699,4.7699,4.7699,4.7699,4.7699,4.7699,4.7681,4.7681,4.7681,4.7681,4.766,4.7681,4.7699,4.7699,4.7699,4.7572,4.7518,4.7645,4.7627,4.7373,4.7337,5.2409,5.2343,5.163,5.1315,5.1083,4.9773,4.916,4.9028,4.8332,4.8001,4.8001,4.8001,4.8001,4.8001,4.8001,4.8001,4.8001,4.8001,4.8001,4.7968,4.7934,4.762,4.7173,4.6758,4.6179,4.5019,4.4257,4.3876,4.3648,4.3615,4.3615,4.3615,4.3615,4.3615,4.3598,4.3565,4.3343,4.2908,4.2763,4.2422,4.201,4.1972,4.1751,4.1403,4.1136,4.0882,4.0451,4.0248,4.0163,4.0282,4.0849,4.0865,4.0637,4.0468,4.0654,4.1356,4.1373,4.1728,4.2286,4.2506,4.2794,4.3504,4.3606,4.3876,4.4367,4.4496,4.4513,4.4547,4.4598,4.4598,4.4598,4.4818,4.4835,4.4908,4.5103,4.5673,4.6335,4.6938,4.7522,4.7593,4.7699,4.7699,4.7699,4.7699,4.7699,4.7735,4.7753,4.7753,4.779,4.7753,4.779,4.7717,4.7699,4.7699,4.7699,4.7808,4.779,4.7862,4.7826,4.7844,4.7808,4.7699,4.7699,4.7699,4.7699,4.7699,4.7699,4.7699,4.7699,4.7699,4.7699,4.7699,4.7699,4.7699,4.7699,5.2409,5.2343,5.163,5.1315,5.1067,4.9723,4.9061,4.8978,4.8299,4.8017,4.8001,4.8001,4.8001,4.8001,4.8001,4.8001,4.8001,4.8001,4.8001,4.8001,4.8001,4.7819,4.7669,4.7239,4.6758,4.6245,4.5268,4.4357,4.378,4.3615,4.3615,4.3615,4.3615,4.3615,4.3615,4.3598,4.3621,4.351,4.3372,4.3111,4.2834,4.2645,4.244,4.2008,4.1659,4.1305,4.0967,4.0502,4.04,4.0933,4.1136,4.1457,4.1762,4.1907,4.2016,4.2066,4.2134,4.2439,4.3081,4.325,4.3639,4.4164,4.4316,4.4316,4.4547,4.4598,4.4598,4.4632,4.4649,4.4666,4.4632,4.5145,4.5483,4.5704,4.6204,4.698,4.7709,4.8144,4.827,4.8114,4.7928,4.7898,4.8116,4.8224,4.8261,4.8315,4.8297,4.8279,4.8242,4.8116,4.7989,4.7862,4.7699,4.7699,4.7699,4.7844,4.7953,4.8116,4.8134,4.8152,4.8043,4.779,4.7735,4.8134,4.7971,4.7699,4.7699,4.7717,4.7699,4.7699,4.7699,4.7699,4.7699,4.7699,4.7699,5.2409,5.231,5.1181,5.0717,5.0469,4.916,4.8547,4.8481,4.8166,4.8001,4.8001,4.8001,4.8001,4.8001,4.8001,4.8001,4.8001,4.8001,4.8001,4.8001,4.8001,4.8001,4.8001,4.7587,4.7239,4.6825,4.6096,4.5185,4.4224,4.3764,4.3648,4.3615,4.3615,4.3615,4.3615,4.3615,4.3717,4.3822,4.3805,4.3656,4.348,4.3385,4.3199,4.2772,4.2469,4.2185,4.1728,4.1508,4.1407,4.1762,4.2108,4.2506,4.2844,4.3166,4.3267,4.2963,4.2878,4.3217,4.3859,4.4028,4.4215,4.4496,4.4598,4.4598,4.4598,4.4598,4.4632,4.4699,4.5043,4.5162,4.5213,4.5855,4.6194,4.637,4.689,4.7575,4.8242,4.869,4.8853,4.8905,4.9126,4.9184,4.9094,4.9112,4.8985,4.8931,4.8876,4.8822,4.8768,4.8713,4.8605,4.8659,4.8623,4.8623,4.8586,4.8568,4.855,4.8605,4.8641,4.8659,4.8731,4.8677,4.884,4.9148,4.8731,4.8061,4.7717,4.7735,4.7717,4.7699,4.7699,4.7699,4.7699,4.7699,4.7699,5.2409,5.2293,5.0817,5.022,4.9972,4.8647,4.8034,4.8001,4.8017,4.8001,4.8001,4.8001,4.8001,4.8001,4.8001,4.8001,4.8001,4.8001,4.8001,4.8001,4.8001,4.8001,4.8001,4.7968,4.7802,4.7636,4.7123,4.6262,4.4787,4.4175,4.3843,4.3648,4.3615,4.3615,4.3615,4.3615,4.3734,4.3881,4.3898,4.3898,4.3985,4.4035,4.3972,4.3574,4.3477,4.3064,4.2574,4.2219,4.2286,4.2574,4.297,4.3426,4.3724,4.4248,4.4265,4.3775,4.3656,4.4028,4.4333,4.4564,4.4513,4.4598,4.4598,4.4598,4.4682,4.4784,4.4874,4.4925,4.5466,4.5906,4.6007,4.6599,4.6938,4.7132,4.7464,4.7991,4.8828,4.9462,5.0084,5.0243,5.0471,5.0293,4.9963,4.9709,4.9528,4.9528,4.9474,4.9528,4.951,4.9637,4.9619,4.9767,4.9822,4.9804,4.9749,4.9619,4.9546,4.9492,4.951,4.951,4.9713,4.9858,4.9949,4.9836,4.9311,4.8677,4.8224,4.7769,4.7717,4.7699,4.7699,4.7699,4.7699,4.7699,4.7699,5.2409,5.2293,5.0817,5.022,4.9988,4.863,4.8001,4.8001,4.8001,4.8001,4.8001,4.8001,4.8001,4.8001,4.8001,4.8001,4.8001,4.8001,4.8001,4.8001,4.8001,4.805,4.805,4.8001,4.8465,4.8514,4.8183,4.6659,4.5367,4.4804,4.4224,4.3813,4.3664,4.3615,4.3615,4.3645,4.3759,4.3981,4.3969,4.3969,4.4097,4.4196,4.4197,4.4063,4.3742,4.3443,4.3234,4.2895,4.276,4.3267,4.3369,4.3792,4.4344,4.453,4.4598,4.4496,4.4479,4.4496,4.4581,4.4598,4.4598,4.4598,4.4598,4.4598,4.4835,4.5263,4.5568,4.5602,4.6244,4.6633,4.6802,4.7361,4.7635,4.8026,4.8439,4.9269,5.007,5.0125,5.0731,5.1382,5.1516,5.0999,5.0546,5.0293,5.0075,5.0112,5.0148,5.0238,5.0365,5.0546,5.0619,5.0728,5.076,5.076,5.0818,5.0709,5.0637,5.0492,5.0474,5.0474,5.0637,5.0746,5.0401,5.022,4.9785,4.9492,4.9166,4.8677,4.8025,4.7772,4.7844,4.779,4.7699,4.7717,4.7735,5.2409,5.2293,5.0817,5.022,5.0021,4.8647,4.8001,4.8001,4.8001,4.8001,4.8001,4.8001,4.8001,4.8001,4.8001,4.8001,4.8001,4.8001,4.8001,4.8001,4.8034,4.8216,4.858,4.8663,4.9011,4.9375,4.9293,4.8431,4.6858,4.5649,4.4937,4.4241,4.3813,4.3615,4.3645,4.3734,4.3881,4.4056,4.4126,4.4212,4.4344,4.4355,4.4338,4.4485,4.4187,4.4079,4.3944,4.3842,4.3707,4.4079,4.4079,4.4225,4.4513,4.4598,4.4598,4.4598,4.4581,4.4581,4.4598,4.4598,4.4598,4.4615,4.4649,4.4801,4.5241,4.5855,4.6312,4.6329,4.7005,4.7378,4.7564,4.8122,4.8392,4.8738,4.9146,4.9821,5.0542,5.0964,5.1325,5.1964,5.2444,5.1792,5.1303,5.1285,5.1194,5.1249,5.1303,5.1393,5.152,5.1683,5.1701,5.1647,5.1665,5.1665,5.1719,5.1719,5.1701,5.1611,5.1629,5.1611,5.1611,5.1538,5.1212,5.1072,5.0941,5.0615,5.0198,4.9401,4.8605,4.8239,4.8004,4.8061,4.8061,4.7826,4.7826,5.1843,5.1728,5.0651,5.022,5.0071,4.863,4.8001,4.8001,4.8001,4.8001,4.8001,4.8001,4.8001,4.8001,4.8001,4.8001,4.8001,4.8001,4.8001,4.8001,4.8067,4.8282,4.8514,4.8779,4.911,4.9921,4.9657,4.9044,4.8216,4.7189,4.6129,4.4771,4.4208,4.3873,4.375,4.3822,4.3985,4.4155,4.4298,4.4412,4.4514,4.444,4.4485,4.4542,4.4598,4.4598,4.4598,4.453,4.4547,4.4547,4.4485,4.453,4.4598,4.4598,4.4598,4.4598,4.4598,4.4598,4.4598,4.4598,4.4598,4.4666,4.4891,4.5292,4.5957,4.6616,4.7056,4.7073,4.781,4.8148,4.8352,4.8789,4.8951,4.9188,4.9483,5.0074,5.0651,5.1096,5.1569,5.2138,5.2498,5.2498,5.219,5.2335,5.2371,5.2408,5.2498,5.2498,5.2462,5.2408,5.2317,5.2118,5.2136,5.2118,5.2208,5.2335,5.2462,5.2498,5.2498,5.2426,5.2208,5.2208,5.2082,5.1991,5.1864,5.1701,5.1267,5.0198,4.9202,4.9094,4.8931,4.8641,4.8478,4.8242,4.8261,5.0369,5.0353,5.0237,5.0171,5.0037,4.8647,4.8001,4.8001,4.8001,4.8001,4.8001,4.8001,4.8001,4.8001,4.8001,4.8001,4.8001,4.8001,4.8001,4.8001,4.8034,4.815,4.8332,4.8481,4.863,4.926,4.9508,4.9359,4.8978,4.858,4.6941,4.5086,4.497,4.4414,4.4171,4.426,4.4269,4.4404,4.4525,4.4542,4.457,4.457,4.457,4.457,4.4598,4.4598,4.4598,4.4598,4.4598,4.4598,4.4598,4.4598,4.4598,4.4598,4.4598,4.4598,4.4598,4.4649,4.475,4.4756,4.4682,4.4835,4.5314,4.6041,4.6667,4.7411,4.7767,4.7868,4.8484,4.891,4.909,4.9316,4.9453,4.9703,4.9994,5.0429,5.0911,5.1304,5.1768,5.2298,5.2498,5.2498,5.2498,5.2498,5.2498,5.2498,5.2498,5.2498,5.2498,5.2462,5.2462,5.2389,5.2408,5.2408,5.2426,5.2498,5.2498,5.2498,5.2498,5.2498,5.2426,5.2498,5.2498,5.2426,5.2208,5.2299,5.2226,5.1176,5.0397,5.0126,4.9818,4.9401,4.9293,4.9275,4.9383,5.022,5.0171,4.974,4.9541,4.9458,4.8448,4.8001,4.8001,4.8001,4.8001,4.8001,4.8001,4.8001,4.8001,4.8001,4.8001,4.8001,4.8001,4.8001,4.8001,4.8017,4.8266,4.8448,4.8696,4.9094,4.9626,4.9758,4.9526,4.9244,4.9144,4.8332,4.7023,4.6262,4.6122,4.5799,4.5156,4.4992,4.4951,4.4812,4.4615,4.4598,4.4598,4.4598,4.4598,4.4598,4.4598,4.4598,4.4598,4.4598,4.4598,4.4598,4.4598,4.4598,4.4598,4.4632,4.4649,4.4682,4.4886,4.5229,4.5314,4.5449,4.6087,4.6633,4.7158,4.7479,4.8139,4.8511,4.8728,4.8934,4.9273,4.9615,4.9774,4.9948,5.0215,5.0532,5.0875,5.1271,5.1647,5.207,5.264,5.2607,5.2498,5.2498,5.2498,5.2498,5.2498,5.2498,5.2498,5.2498,5.2498,5.2498,5.2498,5.2498,5.2498,5.2498,5.2498,5.2498,5.2498,5.2498,5.2498,5.2498,5.2498,5.2498,5.2498,5.2498,5.2444,5.2263,5.1937,5.1484,5.1013,5.0488,5.0003,5.0057,5.0275,5.0383,4.9541,4.9491,4.8995,4.8912,4.8995,4.8315,4.8001,4.8001,4.8001,4.8001,4.8001,4.8001,4.8001,4.8001,4.8001,4.8001,4.8001,4.8001,4.8001,4.8001,4.8084,4.8332,4.8614,4.8829,4.8912,4.966,4.9726,4.9343,4.8911,4.9078,4.8729,4.8249,4.7851,4.755,4.6886,4.6391,4.5903,4.5809,4.5348,4.4925,4.4925,4.4716,4.4598,4.4598,4.4598,4.4598,4.4598,4.4598,4.4598,4.4598,4.4598,4.4598,4.4598,4.4632,4.4733,4.4823,4.4993,4.528,4.5805,4.6092,4.6363,4.6989,4.7428,4.7855,4.8277,4.8714,4.8866,4.8951,4.9168,4.9483,4.9919,5.0119,5.0401,5.0686,5.0982,5.1331,5.1704,5.2093,5.2516,5.2958,5.3018,5.3367,5.3241,5.3277,5.2806,5.2715,5.2498,5.2498,5.2498,5.2498,5.2498,5.2498,5.2498,5.2498,5.2498,5.2498,5.2498,5.2498,5.2498,5.2498,5.2498,5.2498,5.2498,5.2498,5.2498,5.2498,5.2371,5.2154,5.1973,5.1756,5.1303,5.0923,5.1104,5.1321,5.1158,4.8117,4.805,4.8084,4.8465,4.8928,4.8315,4.8001,4.8001,4.8001,4.8001,4.8001,4.8001,4.8001,4.8001,4.8001,4.8001,4.8033,4.8001,4.8001,4.8033,4.8017,4.8067,4.8149,4.8314,4.8577,4.836,4.8624,4.8708,4.8393,4.8827,4.8945,4.9045,4.8746,4.8379,4.7479,4.6978,4.6786,4.6684,4.6109,4.5754,4.5551,4.5122,4.4818,4.4598,4.4598,4.4598,4.4598,4.4598,4.4598,4.4598,4.4598,4.4598,4.4598,4.4716,4.5021,4.55,4.5618,4.6041,4.6684,4.6752,4.7242,4.7784,4.8091,4.8291,4.8765,4.9018,4.9018,4.9049,4.9277,4.9661,5.0051,5.0401,5.0785,5.1271,5.1571,5.1962,5.2382,5.2899,5.3406,5.3628,5.4267,5.4744,5.449,5.4164,5.3422,5.3005,5.2625,5.2516,5.2552,5.2498,5.2498,5.2498,5.2498,5.2498,5.2498,5.2498,5.2498,5.2498,5.2498,5.2498,5.2498,5.2498,5.2498,5.2498,5.2498,5.2498,5.2498,5.2462,5.2263,5.2118,5.2263,5.2118,5.2299,5.2226,5.1937,4.8001,4.8001,4.8001,4.8133,4.8332,4.8133,4.8001,4.8001,4.8001,4.8001,4.8001,4.8001,4.8001,4.8001,4.8001,4.8033,4.8115,4.8017,4.8017,4.8115,4.8066,4.8066,4.8115,4.8212,4.834,4.85,4.8595,4.8578,4.8629,4.8755,4.8943,4.9111,4.9177,4.894,4.8262,4.7804,4.7716,4.7919,4.7208,4.6413,4.6346,4.5754,4.5128,4.4716,4.4682,4.4598,4.4598,4.4598,4.4598,4.4598,4.4598,4.4615,4.4767,4.4953,4.5432,4.5872,4.6075,4.6786,4.7479,4.7885,4.8325,4.8545,4.8612,4.8697,4.8984,4.9018,4.9018,4.9063,4.9307,4.9762,5.0377,5.0795,5.1271,5.2064,5.2534,5.2949,5.3406,5.399,5.4484,5.4466,5.487,5.5051,5.4961,5.4888,5.4309,5.3748,5.3403,5.2878,5.277,5.2589,5.2516,5.2498,5.2498,5.2498,5.2498,5.2498,5.2498,5.2498,5.2498,5.2498,5.2498,5.2498,5.2498,5.2498,5.2498,5.2498,5.2498,5.2498,5.2498,5.248,5.2498,5.2498,5.2426,5.2408,5.2335,4.8001,4.8001,4.8001,4.8001,4.8001,4.8001,4.8001,4.8001,4.8001,4.8001,4.8001,4.8001,4.8001,4.8001,4.8001,4.8049,4.8163,4.8115,4.8082,4.8195,4.8212,4.8212,4.8227,4.8373,4.8532,4.8738,4.8753,4.8753,4.8738,4.8549,4.8655,4.8924,4.9155,4.89,4.8524,4.8408,4.846,4.8562,4.797,4.7631,4.7327,4.6718,4.5889,4.5382,4.5004,4.4598,4.4598,4.4598,4.4615,4.4649,4.4649,4.4767,4.5043,4.5399,4.5974,4.6447,4.7158,4.7784,4.8308,4.8578,4.8832,4.8917,4.9018,4.9018,4.9018,4.9018,4.9018,4.9094,4.9354,5.0109,5.0867,5.1282,5.207,5.2888,5.3579,5.4013,5.4249,5.4828,5.5287,5.5287,5.5522,5.5558,5.554,5.5377,5.5196,5.4689,5.4218,5.3729,5.3241,5.3041,5.2915,5.2878,5.2679,5.257,5.2534,5.2498,5.2498,5.2498,5.2498,5.2498,5.2498,5.2498,5.2498,5.2498,5.2498,5.2498,5.2498,5.2498,5.2498,5.2498,5.2498,5.2498,5.2498,5.2498,5.2498,4.8001,4.8001,4.8001,4.8001,4.8001,4.8001,4.8001,4.8001,4.8001,4.8001,4.8001,4.8001,4.8001,4.8001,4.8001,4.8082,4.8195,4.8195,4.8227,4.8292,4.8356,4.8356,4.842,4.8564,4.8738,4.8832,4.8863,4.8846,4.8818,4.8707,4.8677,4.8599,4.8716,4.8728,4.8736,4.8793,4.8968,4.9035,4.8832,4.8562,4.8308,4.7614,4.6887,4.6312,4.5737,4.5275,4.5122,4.4993,4.4953,4.4902,4.4852,4.5179,4.55,4.5754,4.6718,4.7618,4.8528,4.8731,4.8849,4.8984,4.9001,4.9018,4.9018,4.9018,4.9018,4.9018,4.9018,4.9178,4.9491,5.0558,5.15,5.2263,5.3022,5.3839,5.4641,5.4943,5.5051,5.545,5.5903,5.621,5.6609,5.6717,5.6609,5.6428,5.5975,5.583,5.545,5.5251,5.4707,5.3911,5.3784,5.3603,5.3295,5.2715,5.2625,5.2643,5.2498,5.2498,5.2498,5.2498,5.2498,5.2498,5.2498,5.2498,5.2498,5.2498,5.2498,5.2498,5.2498,5.2498,5.2498,5.2498,5.2498,5.2498,5.2498,4.8001,4.8001,4.8001,4.8001,4.8001,4.8001,4.8001,4.8001,4.8001,4.8001,4.8001,4.8001,4.8001,4.8001,4.8001,4.8179,4.8276,4.834,4.8436,4.85,4.8547,4.8564,4.8644,4.8738,4.8863,4.8925,4.8987,4.8987,4.8925,4.8863,4.869,4.8532,4.8627,4.8738,4.8832,4.8909,4.9258,4.9458,4.9238,4.9171,4.9103,4.8528,4.7834,4.7124,4.6904,4.643,4.616,4.6007,4.5991,4.6041,4.6092,4.6346,4.6397,4.6972,4.777,4.8511,4.89,4.8984,4.9018,4.9018,4.9018,4.9018,4.9018,4.9018,4.9018,4.9018,4.9018,4.9209,4.9746,5.0828,5.1952,5.2846,5.3804,5.4774,5.5462,5.5703,5.5848,5.6138,5.6554,5.6717,5.7134,5.7134,5.7098,5.7025,5.6627,5.6699,5.6645,5.6428,5.5993,5.5124,5.4635,5.4454,5.3784,5.315,5.2951,5.2933,5.2679,5.2498,5.2498,5.2498,5.2498,5.2498,5.2498,5.2498,5.2498,5.2498,5.2498,5.2498,5.2498,5.2498,5.2498,5.2498,5.2498,5.2498,5.2498,4.8001,4.8001,4.8001,4.8001,4.8001,4.8001,4.8001,4.8001,4.8001,4.8001,4.8001,4.8001,4.8001,4.8001,4.8049,4.8244,4.8452,4.85,4.8612,4.8658,4.8704,4.8721,4.8801,4.8832,4.8909,4.897,4.9018,4.9018,4.897,4.8894,4.8738,4.8736,4.8801,4.8832,4.8894,4.8973,4.9173,4.9424,4.9509,4.9441,4.939,4.939,4.8781,4.8206,4.8189,4.7648,4.7293,4.709,4.6836,4.6802,4.6786,4.6989,4.7225,4.7936,4.8376,4.8934,4.8984,4.9018,4.9018,4.9018,4.9018,4.9018,4.9018,4.9018,4.9018,4.9018,4.9018,4.9148,5.0076,5.1077,5.2212,5.3376,5.4551,5.5713,5.6088,5.6446,5.6681,5.6899,5.7043,5.7116,5.7188,5.7188,5.7188,5.7188,5.717,5.7062,5.7007,5.6935,5.6536,5.5903,5.5486,5.5287,5.4399,5.3566,5.3403,5.3132,5.2715,5.2498,5.2498,5.2498,5.2498,5.2498,5.2498,5.2498,5.2498,5.2498,5.2498,5.2498,5.2498,5.2498,5.2498,5.2498,5.2498,5.2498,5.2498,4.8001,4.8001,4.8001,4.8001,4.8001,4.8001,4.8001,4.8001,4.8001,4.8001,4.8033,4.8033,4.8066,4.8115,4.8212,4.8356,4.8564,4.8675,4.8738,4.8801,4.8877,4.8909,4.8894,4.8909,4.897,4.9001,4.9018,4.9001,4.897,4.8925,4.8894,4.897,4.8894,4.8894,4.894,4.897,4.9103,4.9187,4.9492,4.9644,4.9796,4.9949,5.0033,4.9627,4.89,4.8122,4.7868,4.7479,4.6972,4.6989,4.7107,4.7479,4.8003,4.8511,4.8866,4.8984,4.9001,4.9018,4.9018,4.9018,4.9018,4.9018,4.9018,4.9018,4.9018,4.9018,4.9018,4.93,5.0134,5.142,5.2623,5.4045,5.5312,5.6186,5.6692,5.6862,5.6953,5.7098,5.7116,5.7188,5.7188,5.7188,5.7188,5.7188,5.7188,5.7188,5.7188,5.7188,5.6989,5.6464,5.6265,5.5993,5.4961,5.4074,5.3766,5.3403,5.2733,5.2498,5.2498,5.2498,5.2498,5.2498,5.2498,5.2498,5.2498,5.2498,5.2498,5.2498,5.2498,5.2498,5.2498,5.2498,5.2498,5.2498,5.2498,4.8001,4.8001,4.8001,4.8001,4.8001,4.8001,4.8001,4.8001,4.8001,4.8049,4.813,4.8163,4.8227,4.8324,4.8388,4.8515,4.8707,4.8786,4.8863,4.8925,4.9001,4.897,4.8956,4.897,4.9018,4.9018,4.9018,4.9018,4.9001,4.8987,4.8956,4.9001,4.8956,4.8987,4.9001,4.9018,4.9018,4.9035,4.9187,4.939,4.9407,4.9746,4.9881,4.9644,4.9069,4.9086,4.8866,4.8562,4.8426,4.8477,4.8477,4.8595,4.8748,4.8934,4.9001,4.9018,4.9018,4.9018,4.9018,4.9018,4.9018,4.9018,4.9018,4.9018,4.9018,4.9018,4.9201,4.9599,5.0448,5.1798,5.3124,5.4589,5.5879,5.658,5.7188,5.7188,5.7188,5.7188,5.7188,5.7188,5.7188,5.7188,5.7188,5.7188,5.7188,5.7188,5.7188,5.7188,5.7188,5.6899,5.6844,5.6464,5.5414,5.4653,5.4255,5.3512,5.2752,5.2498,5.2498,5.2498,5.2498,5.2498,5.2498,5.2498,5.2498,5.2498,5.2498,5.2498,5.2498,5.2498,5.2498,5.2498,5.2498,5.2498,5.2498,4.8001,4.8001,4.8001,4.8017,4.8049,4.8033,4.8001,4.8001,4.8001,4.8115,4.8292,4.826,4.8324,4.8515,4.8595,4.8658,4.8818,4.8863,4.8925,4.897,4.9018,4.9001,4.9018,4.9018,4.9018,4.9018,4.9018,4.9018,4.9018,4.9018,4.9018,4.9018,4.9018,4.9018,4.9018,4.9018,4.9018,4.9018,4.9018,4.9018,4.9069,4.9543,4.9915,4.9729,4.9729,4.9746,4.9576,4.9255,4.9001,4.8984,4.8917,4.8917,4.8934,4.8984,4.9001,4.9018,4.9018,4.9018,4.9052,4.9103,4.912,4.9137,4.9052,4.9069,4.912,4.9187,4.9593,5.0077,5.1364,5.2722,5.3532,5.4816,5.5869,5.6661,5.6984,5.7087,5.7138,5.7188,5.7188,5.7188,5.7188,5.7188,5.7188,5.7188,5.7188,5.7188,5.7188,5.7188,5.7188,5.7188,5.7188,5.688,5.5812,5.5088,5.4635,5.3693,5.2625,5.2498,5.2552,5.2498,5.2498,5.2498,5.2498,5.2498,5.2498,5.2498,5.2498,5.2498,5.2498,5.2498,5.2498,5.2498,5.2498,5.2534,5.2607,4.8001,4.8033,4.8033,4.8082,4.8163,4.8082,4.8033,4.8001,4.8017,4.8212,4.8452,4.8356,4.8436,4.8595,4.8738,4.8769,4.888,4.8925,4.897,4.9001,4.9001,4.9018,4.9018,4.9018,4.9018,4.9018,4.9018,4.9018,4.9018,4.9018,4.9018,4.9018,4.9018,4.9018,4.9018,4.9018,4.9018,4.9018,4.9018,4.9018,4.9272,4.9593,4.9729,4.9864,4.9949,4.9949,4.9729,4.9458,4.9052,4.9018,4.9018,4.9018,4.9018,4.9018,4.9187,4.9204,4.9323,4.939,4.9458,4.9576,4.9509,4.9407,4.9272,4.9323,4.9475,4.983,5.0236,5.0956,5.2215,5.3058,5.3866,5.4735,5.5737,5.6591,5.6829,5.7061,5.7138,5.7188,5.7188,5.7188,5.7188,5.7188,5.7188,5.7188,5.7188,5.7188,5.7188,5.7188,5.7188,5.7188,5.7188,5.6826,5.6084,5.5468,5.5088,5.3983,5.2824,5.2752,5.2806,5.2625,5.2498,5.2498,5.2498,5.2498,5.2498,5.2498,5.2498,5.2498,5.2498,5.2498,5.2498,5.2516,5.2607,5.2643,5.277,4.8049,4.8179,4.8163,4.8163,4.8195,4.8179,4.8115,4.8033,4.8115,4.8292,4.85,4.8675,4.8769,4.8909,4.894,4.8956,4.8956,4.9001,4.9001,4.9001,4.9137,4.9086,4.9154,4.939,4.9086,4.9154,4.9255,4.9069,4.9424,4.9272,4.9069,4.9171,4.912,4.9103,4.9086,4.9103,4.9171,4.9221,4.9187,4.9154,4.9154,4.9289,4.9171,4.9204,4.9221,4.9221,4.9154,4.9086,4.9018,4.9018,4.9018,4.9018,4.9052,4.912,4.9357,4.9678,4.9779,5.0135,5.027,5.0405,5.0388,5.0456,5.0439,5.0507,5.0777,5.1183,5.1488,5.1656,5.2578,5.2953,5.3694,5.4496,5.5414,5.6284,5.6758,5.6992,5.7188,5.7188,5.7188,5.7188,5.7188,5.7188,5.7188,5.7188,5.7188,5.7188,5.7188,5.7188,5.7188,5.7188,5.7188,5.6772,5.6301,5.6066,5.574,5.4363,5.3349,5.3222,5.2969,5.2661,5.2498,5.2498,5.2498,5.2498,5.2498,5.2498,5.2498,5.2498,5.2498,5.2498,5.2498,5.2534,5.2643,5.2878,5.3078]}]]